[[{"header":{"parameterUnit":"m.s-1","parameterCategory":1,"la1":31.0,"la2":29.5877,"lo1":-88.7671,"lo2":-86.6584,"dy":0.0162,"dx":0.0185,"nx":115,"ny":88,"refTime":"2024-08-25T12:00:00:Z","depth":0,"parameterNumber":2,"parameterNumberName":"U-component_of_WINDS"},"data":[0.0,0.0,0.0,0.0,0.0,0.0,0.0,0.0,0.0,0.0,0.0,0.0,0.0,0.0,0.0,0.0,0.0,0.0,0.0,0.0,0.0,0.0,0.0,0.0,0.0,0.0,0.0,0.0,0.0,0.0,0.0,0.0,0.0,0.0,0.0,0.0,0.0,0.0,0.0,0.0,0.0,0.0,0.0,0.0,0.0,0.0,0.0,0.0,0.0,0.0,0.0,0.0,0.0,0.0,0.0,0.0,0.0,0.0,0.0,0.0,0.0,0.0,0.0,0.0,0.0,0.0,0.0,0.0,0.0,0.0,0.0,0.0,0.0,0.0,0.0,0.0,0.0,0.0,0.0,0.0,0.0,0.0,0.0,0.0,0.0,0.0,0.0,0.0,0.0,0.0,0.0,0.0,0.0,0.0,0.0,0.0,0.0,0.0,0.0,0.0,0.0,0.0,0.0,0.0,0.0,0.0,0.0,0.0,0.0,0.0,0.0,0.0,0.0,0.0,0.0,0.0,0.0,0.0,0.0,0.0,0.0,0.0,0.0,0.0,0.0,0.0,0.0,0.0,0.0,0.0,0.0,0.0,0.0,0.0,0.0,0.0,0.0,0.0,0.0,0.0,0.0,0.0,0.0,0.0,0.0,0.0,0.0,0.0,0.0,0.0,0.0,0.0,0.0,0.0,0.0,0.0,0.0,0.0,0.0,0.0,0.0,0.0,0.0,0.0,0.0,0.0,0.0,0.0,0.0,0.0,0.0,0.0,0.0,0.0,0.0,0.0,0.0,0.0,0.0,0.0,0.0,0.0,0.0,0.0,0.0,0.0,0.0,0.0,0.0,0.0,0.0,0.0,0.0,0.0,0.0,0.0,0.0,0.0,0.0,0.0,0.0,0.0,0.0,0.0,0.0,0.0,0.0,0.0,0.0,0.0,0.0,0.0,0.0,0.0,0.0,0.0,0.0,0.0,0.0,0.0,0.0,0.0,0.0,0.0,0.0,0.0,0.0,0.0,0.0,0.0,0.0,0.0,0.0,0.0,0.0,0.0,0.0,0.0,0.0,0.0,0.0,0.0,0.0,0.0,0.0,0.0,0.0,0.0,0.0,0.0,0.0,0.0,0.0,0.0,0.0,0.0,0.0,0.0,0.0,0.0,0.0,0.0,0.0,0.0,0.0,0.0,0.0,0.0,0.0,0.0,0.0,0.0,0.0,0.0,0.0,0.0,0.0,0.0,0.0,0.0,0.0,0.0,0.0,0.0,0.0,0.0,0.0,0.0,0.0,0.0,0.0,0.0,0.0,0.0,0.0,0.0,0.0,0.0,0.0,0.0,0.0,0.0,0.0,0.0,0.0,0.0,0.0,0.0,0.0,0.0,0.0,0.0,0.0,0.0,0.0,0.0,0.0,0.0,0.0,0.0,0.0,0.0,0.0,0.0,0.0,0.0,0.0,0.0,0.0,0.0,0.0,0.0,0.0,0.0,0.0,0.0,0.0,0.0,0.0,0.0,0.0,0.0,0.0,0.0,0.0,0.0,0.0,0.0,0.0,0.0,0.0,0.0,0.0,0.0,0.0,0.0,0.0,0.0,0.0,0.0,0.0,0.0,0.0,0.0,0.0,0.0,0.0,0.0,0.0,0.0,0.0,0.0,0.0,0.0,0.0,0.0,0.0,0.0,0.0,0.0,0.0,0.0,0.0,0.0,0.0,0.0,0.0,0.0,0.0,0.0,0.0,0.0,0.0,0.0,0.0,0.0,0.0,0.0,0.0,0.0,0.0,0.0,0.0,0.0,0.0,0.0,0.0,0.0,0.0,0.0,0.0,0.0,0.0,0.0,0.0,0.0,0.0,0.0,0.0,0.0,0.0,0.0,0.0,0.0,0.0,0.0,0.0,0.0,0.0,0.0,0.0,0.0,0.0,0.0,0.0,0.0,0.0,0.0,0.0,0.0,0.0,0.0,0.0,0.0,0.0,0.0,0.0,0.0,0.0,0.0,0.0,0.0,0.0,0.0,0.0,0.0,0.0,0.0,0.0,0.0,0.0,0.0,0.0,0.0,0.0,0.0,0.0,0.0,0.0,0.0,0.0,0.0,0.0,0.0,0.0,0.0,0.0,0.0,0.0,0.0,0.0,0.0,0.0,0.0,0.0,0.0,0.0,0.0,0.0,0.0,0.0,0.0,0.0,0.0,0.0,0.0,0.0,0.0,0.0,0.0,0.0,0.0,0.0,0.0,0.0,0.0,0.0,0.0,0.0,0.0,0.0,0.0,0.0,0.0,0.0,0.0,0.0,0.0,0.0,0.0,0.0,0.0,0.0,0.0,0.0,0.0,0.0,0.0,0.0,0.0,0.0,0.0,0.0,0.0,0.0,0.0,0.0,0.0,0.0,0.0,0.0,0.0,0.0,0.0,0.0,0.0,0.0,0.0,0.0,0.0,0.0,0.0,0.0,0.0,0.0,0.0,0.0,0.0,0.0,0.0,0.0,0.0,0.0,0.0,0.0,0.0,0.0,0.0,0.0,0.0,0.0,0.0,0.0,0.0,0.0,0.0,0.0,0.0,0.0,0.0,0.0,0.0,0.0,0.0,0.0,0.0,0.0,0.0,0.0,0.0,0.0,0.0,0.0,0.0,0.0,0.0,0.0,0.0,0.0,0.0,0.0,0.0,0.0,0.0,0.0,0.0,0.0,0.0,0.0,0.0,0.0,0.0,0.0,0.0,0.0,0.0,0.0,0.0,0.0,0.0,0.0,0.0,0.0,0.0,0.0,0.0,0.0,0.0,0.0,0.0,0.0,0.0,0.0,0.0,0.0,0.0,0.0,0.0,0.0,0.0,0.0,0.0,0.0,0.0,0.0,0.0,0.0,0.0,0.0,0.0,0.0,0.0,0.0,0.0,0.0,0.0,0.0,0.0,0.0,0.0,0.0,0.0,0.0,0.0,0.0,0.0,0.0,0.0,0.0,0.0,0.0,0.0,0.0,0.0,0.0,0.0,0.0,0.0,0.0,0.0,0.0,0.0,0.0,0.0,0.0,0.0,0.0,0.0,0.0,0.0,0.0,0.0,0.0,0.0,0.0,0.0,0.0,0.0,0.0,0.0,0.0,0.0,0.0,0.0,0.0,0.0,0.0,0.0,0.0,0.0,0.0,0.0,0.0,0.0,0.0,0.0,0.0,0.0,0.0,0.0,0.0,0.0,0.0,0.0,0.0,0.0,0.0,0.0,0.0,0.0,0.0,0.0,0.0,0.0,0.0,0.0,0.0,0.0,0.0,0.0,0.0,0.0,0.0,0.0,0.0,0.0,0.0,0.0,0.0,0.0,0.0,0.0,0.0,0.0,0.0,0.0,0.0,0.0,0.0,0.0,0.0,0.0,0.0,0.0,0.0,0.0,0.0,0.0,0.0,0.0,0.0,0.0,0.0,0.0,0.0,0.0,0.0,0.0,0.0,0.0,0.0,0.0,0.0,0.0,0.0,0.0,0.0,0.0,0.0,0.0,0.0,0.0,0.0,0.0,0.0,0.0,0.0,0.0,0.0,0.0,0.0,0.0,0.0,0.0,0.0,0.0,0.0,0.0,0.0,0.0,0.0,0.0,0.0,0.0,0.0,0.0,0.0,0.0,0.0,0.0,0.0,0.0,0.0,0.0,0.0,0.0,0.0,0.0,0.0,0.0,0.0,0.0,0.0,0.0,0.0,0.0,0.0,0.0,0.0,0.0,0.0,0.0,0.0,0.0,0.0,0.0,0.0,0.0,0.0,0.0,0.0,0.0,0.0,0.0,0.0,0.0,0.0,0.0,0.0,0.0,0.0,0.0,0.0,0.0,0.0,0.0,0.0,0.0,0.0,0.0,0.0,0.0,0.0,0.0,0.0,0.0,0.0,0.0,0.0,0.0,0.0,0.0,0.0,0.0,0.0,0.0,0.0,0.0,0.0,0.0,0.0,0.0,0.0,0.0,0.0,0.0,0.0,0.0,0.0,0.0,0.0,0.0,0.0,0.0,0.0,0.0,0.0,0.0,0.0,0.0,0.0,0.0,0.0,0.0,0.0,0.0,0.0,0.0,0.0,0.0,0.0,0.0,0.0,0.0,0.0,0.0,0.0,0.0,0.0,0.0,0.0,0.0,0.0,0.0,0.0,0.0,0.0,0.0,0.0,0.0,0.0,0.0,0.0,0.0,0.0,0.0,0.0,0.0,0.0,0.0,0.0,0.0,0.0,0.0,0.0,0.0,0.0,0.0,0.0,0.0,0.0,0.0,0.0,0.0,0.0,0.0,1.0057,0.0,0.0,0.0,0.0,0.0,0.0,0.0,0.0,0.0,0.0,0.0,0.0,0.0,0.0,0.0,0.0,0.0,0.0,0.0,0.0,0.0,0.0,0.0,0.0,0.0,0.0,0.0,0.0,0.0,0.0,0.0,0.0,0.0,0.0,0.0,0.0,0.0,0.0,0.0,0.0,0.0,0.0,0.0,0.0,0.0,0.0,0.0,0.0,0.0,0.0,0.0,0.0,0.0,0.0,0.0,0.0,0.0,0.0,0.0,0.0,0.0,0.0,0.0,0.0,0.0,0.0,0.0,0.0,0.0,0.0,0.0,0.0,0.0,0.0,0.0,0.0,0.0,0.0,0.0,0.0,0.0,0.0,0.0,0.0,0.0,0.0,0.0,0.0,0.0,0.0,0.0,0.0,0.0,0.0,0.0,0.0,0.0,0.0,0.0,0.0,0.0,0.0,0.0,0.0,0.0,0.0,0.0,0.0,0.0,0.0,1.0077,1.0236,1.013,0.9988,0.9847,0.0,0.0,0.0,0.0,0.0,0.0,0.0,0.0,0.0,0.0,0.0,0.0,0.0,0.0,0.0,0.0,0.0,0.0,0.0,0.0,0.0,0.0,0.0,0.0,0.0,0.0,0.0,0.0,0.0,0.0,0.0,0.0,0.0,0.0,0.0,0.0,0.0,0.0,0.0,0.0,0.0,0.0,0.0,0.0,0.0,0.0,0.0,0.0,0.0,0.0,0.0,0.0,0.0,0.0,0.0,0.0,0.0,0.0,0.0,0.0,0.0,0.0,0.0,0.0,0.0,0.0,0.0,0.0,0.0,0.0,0.0,0.0,0.0,0.0,0.0,0.0,0.0,0.0,0.0,0.0,0.0,0.0,0.0,0.0,0.0,0.0,0.0,0.0,0.0,0.0,0.0,0.0,0.0,0.0,0.0,0.0,0.0,0.0,0.0,0.0,0.0,0.0,0.0,0.0,0.0,0.0,0.0,0.0,0.0,0.0,0.0,0.0,0.9583,0.9474,0.9461,0.0,0.0,0.0,0.0,0.0,0.0,0.0,0.0,0.0,0.0,0.0,0.0,0.0,0.0,0.0,0.0,0.0,0.0,0.0,0.0,0.0,0.0,0.0,0.0,0.0,0.0,0.0,0.0,0.0,0.0,0.0,0.0,0.0,0.0,0.0,0.0,0.0,0.0,0.0,0.0,0.0,0.0,0.0,0.0,0.0,0.0,0.0,0.0,0.0,0.0,0.0,0.0,0.0,0.0,0.0,0.0,0.0,0.0,0.0,0.0,0.0,0.0,0.0,0.0,0.0,0.0,0.0,0.0,0.0,0.0,0.0,0.0,0.0,0.0,0.0,0.0,0.0,0.0,0.0,0.0,0.0,0.0,0.0,0.0,0.0,0.0,0.0,0.0,0.0,0.0,0.0,0.0,0.0,0.0,0.0,0.0,0.0,0.0,0.0,0.0,0.0,0.0,0.0,0.0,0.0,0.0,0.0,0.0,0.0,0.0,0.8874,0.8899,0.8909,0.0,0.8457,0.0,0.0,0.0,0.0,0.0,0.0,0.0,0.0,0.0,0.0,0.0,0.0,0.0,0.0,0.0,0.0,0.0,0.0,0.0,0.0,0.0,0.0,0.0,0.0,0.0,0.0,0.0,0.0,0.0,0.0,0.0,0.0,0.0,0.0,0.0,0.0,0.0,0.0,0.0,0.0,0.0,0.0,0.0,0.0,0.0,0.0,0.0,0.0,0.0,0.0,0.0,0.0,0.0,0.0,0.0,0.0,0.0,0.0,0.0,0.0,0.0,0.0,0.0,0.0,0.0,0.0,0.0,0.0,0.0,0.0,0.0,0.0,0.0,0.0,0.0,0.0,0.0,0.0,0.0,0.0,0.0,0.0,0.0,0.0,0.0,0.0,0.0,0.0,0.0,0.0,0.0,0.0,0.0,0.0,0.0,0.0,0.0,0.0,0.0,0.0,0.0,0.0,0.0,0.0,0.0,0.0,0.0,0.0,0.0,0.0,0.0,0.8552,0.8517,0.8451,0.0,0.0,0.0,0.0,0.0,0.0,0.0,0.0,0.0,0.0,0.0,0.0,0.0,0.0,0.0,0.0,0.0,0.0,0.0,0.0,0.0,0.0,0.0,0.0,0.0,0.0,0.0,0.0,0.0,0.0,0.0,0.0,0.0,0.0,0.0,0.0,0.0,0.0,0.0,0.0,0.0,0.0,0.0,0.0,0.0,0.0,0.0,0.0,0.0,0.0,0.0,0.0,0.0,0.0,0.0,0.0,0.0,0.0,0.0,0.0,0.0,0.0,0.0,0.0,0.0,0.0,0.0,0.0,0.0,0.0,0.0,0.0,0.0,0.0,0.0,0.0,0.0,0.0,0.0,0.0,0.0,0.0,0.0,0.0,0.0,0.0,0.0,0.0,0.0,0.0,0.0,0.0,0.0,0.0,0.0,0.0,0.0,0.0,0.0,0.0,0.0,0.0,0.0,0.0,0.0,0.0,0.0,0.0,0.0,0.0,0.7988,0.0,0.8273,0.8177,0.8106,0.8106,0.0,0.0,0.0,0.0,0.0,0.0,0.0,0.0,0.0,0.0,0.0,0.0,0.0,0.0,0.0,0.0,0.0,0.0,0.0,0.0,0.0,0.0,0.0,0.0,0.0,0.0,0.0,0.0,0.0,0.0,0.0,0.0,0.0,0.0,0.0,0.0,0.0,0.0,0.0,0.0,0.0,0.0,0.0,0.0,0.0,0.0,0.0,0.0,0.0,0.0,0.0,0.0,0.0,0.0,0.0,0.0,0.0,0.0,0.0,0.0,0.0,0.0,0.0,0.0,0.0,0.0,0.0,0.0,0.0,0.0,0.0,0.0,0.0,0.0,0.0,0.0,0.0,0.0,0.0,0.0,0.0,0.0,0.0,0.0,0.0,0.0,0.0,0.0,0.0,0.0,0.0,0.0,0.0,0.0,0.0,0.0,0.0,0.0,0.0,0.0,0.0,0.0,0.0,0.0,0.0,0.0,0.0,0.0,0.0,0.7988,0.8013,0.8038,0.7753,0.7621,0.0,0.0,0.0,0.0,0.0,0.0,0.0,0.0,0.0,0.0,0.0,0.0,0.0,0.0,0.0,0.0,0.0,0.0,0.0,0.0,0.0,0.0,0.0,0.0,0.0,0.0,0.0,0.0,0.0,0.0,0.0,0.0,0.0,0.0,0.0,0.0,0.0,0.0,0.0,0.0,0.0,0.0,0.0,0.0,0.0,0.0,0.0,0.0,0.0,0.0,0.0,0.0,0.0,0.0,0.0,0.0,0.0,0.0,0.0,0.0,0.0,0.0,0.0,0.0,0.0,0.0,0.0,0.0,0.0,0.0,0.0,0.0,0.0,0.0,0.0,0.0,0.0,0.0,0.0,0.0,0.0,0.0,0.0,0.0,0.0,0.0,0.0,0.0,0.0,0.0,0.0,0.0,0.0,0.0,0.0,0.0,0.0,0.0,0.0,0.0,0.0,0.0,0.0,0.0,0.0,0.0,0.0,0.0,0.0,0.7982,0.7988,0.8088,0.8255,0.7969,0.7879,0.0,0.0,0.0,0.0,0.0,0.0,0.0,0.0,0.0,0.0,0.0,0.0,0.0,0.0,0.0,0.0,0.0,0.0,0.0,0.0,0.0,0.0,0.0,0.0,0.0,0.0,0.0,0.0,0.0,0.0,0.0,0.0,0.0,0.0,0.0,0.0,0.0,0.0,0.0,0.0,0.0,0.0,0.0,0.0,0.0,0.0,0.0,0.0,0.0,0.0,0.0,0.0,0.0,0.0,0.0,0.0,0.0,0.0,0.0,0.0,0.0,0.0,0.0,0.0,0.0,0.0,0.0,0.0,0.0,0.0,0.0,0.0,0.0,0.0,0.0,0.0,0.0,0.0,0.0,0.0,0.0,0.0,0.0,0.0,0.0,0.0,0.0,0.0,0.0,0.0,0.0,0.0,0.0,0.0,0.0,0.0,0.0,0.0,0.0,0.0,0.0,0.0,0.0,0.0,0.0,0.0,0.0,0.0,0.0,0.7982,0.0,0.8205,0.0,0.8177,0.813,0.0,0.0,0.0,0.0,0.0,0.0,0.0,0.0,0.0,0.0,0.0,0.0,0.0,0.0,0.0,0.0,0.0,0.0,0.0,0.0,0.0,0.0,0.0,0.0,0.0,0.0,0.0,0.0,0.0,0.0,0.0,0.0,0.0,0.0,0.0,0.0,0.0,0.0,0.0,0.0,0.0,0.0,0.0,0.0,0.0,0.0,0.0,0.0,0.0,0.0,0.0,0.0,0.0,0.0,0.0,0.0,0.0,0.0,0.0,0.0,0.0,0.0,0.0,0.0,0.0,0.0,0.0,0.0,0.0,0.0,0.0,0.0,0.0,0.0,0.0,0.0,0.0,0.0,0.0,0.0,0.0,0.0,0.0,0.0,0.0,0.0,0.0,0.0,0.0,0.0,0.0,0.0,0.0,0.0,0.0,0.0,0.0,0.0,0.0,0.0,0.0,0.0,0.0,0.0,0.0,0.0,0.0,0.0,0.7651,0.7982,0.8262,0.8411,0.8396,0.8337,0.8317,0.0,0.0,0.0,0.0,0.0,0.0,0.0,0.0,0.0,0.0,0.0,0.0,0.0,0.0,0.0,0.0,0.0,0.0,0.0,0.0,0.0,0.0,0.0,0.0,0.0,0.0,0.0,0.0,0.0,0.0,0.0,0.0,0.0,0.0,0.0,0.0,0.0,0.0,0.0,0.0,0.0,0.0,0.0,0.0,0.0,0.0,0.0,0.0,0.0,0.0,0.0,0.0,0.0,0.0,0.0,0.0,0.0,0.0,0.0,0.0,0.0,0.0,0.0,0.0,0.0,0.0,0.0,0.0,0.0,0.0,0.0,0.0,0.0,0.0,0.0,0.0,0.0,0.0,0.0,0.0,0.0,0.0,0.0,0.0,0.0,0.0,0.0,0.0,0.0,0.0,0.0,0.0,0.0,0.0,0.0,0.0,0.0,0.0,0.0,0.0,0.0,0.0,0.0,0.0,0.0,0.0,0.0,0.0,0.0,0.7721,0.8162,0.8503,0.8669,0.8624,0.866,0.0,0.0,0.0,0.0,0.0,0.0,0.0,0.0,0.0,0.0,0.0,0.0,0.0,0.0,0.0,0.0,0.0,0.0,0.0,0.0,0.0,0.0,0.0,0.0,0.0,0.0,0.0,0.0,0.0,0.0,0.0,0.0,0.0,0.0,0.0,0.0,0.0,0.0,0.0,0.0,0.0,0.0,0.0,0.0,0.0,0.0,0.0,0.0,0.0,0.0,0.0,0.0,0.0,0.0,0.0,0.0,0.0,0.0,0.0,0.0,0.0,0.0,0.0,0.0,0.0,0.0,0.0,0.0,0.0,0.0,0.0,0.0,0.0,0.0,0.0,0.0,0.0,0.0,0.0,0.0,0.0,0.0,0.0,0.0,0.0,0.0,0.0,0.0,0.0,0.0,0.0,0.0,0.0,0.0,0.0,0.0,0.0,0.0,0.0,0.0,0.0,0.0,0.0,0.0,0.0,0.0,0.0,0.0,0.0,0.7297,0.7939,0.8428,0.8775,0.878,0.8894,0.9088,0.0,0.0,0.0,0.0,0.0,0.0,0.0,0.0,0.0,0.0,0.0,0.0,0.0,0.0,0.0,0.0,0.0,0.0,0.0,0.0,0.0,0.0,0.0,0.0,0.0,0.0,0.0,0.0,0.0,0.0,0.0,0.0,0.0,0.0,0.0,0.0,0.0,0.0,0.0,0.0,0.0,0.0,0.0,0.0,0.0,0.0,0.0,0.0,0.0,0.0,0.0,0.0,0.0,0.0,0.0,0.0,0.0,0.0,0.0,0.0,0.0,0.0,0.0,0.0,0.0,0.0,0.0,0.0,0.0,0.0,0.0,0.0,0.0,0.0,0.0,0.0,0.0,0.0,0.0,0.0,0.0,0.0,0.0,0.0,0.0,0.0,0.0,0.0,0.0,0.0,0.0,0.0,0.0,0.0,0.0,0.0,0.0,0.0,0.0,0.0,0.0,0.0,0.0,0.0,0.0,0.0,0.0,0.0,0.6742,0.754,0.8212,0.8743,0.8911,0.9037,0.0,0.0,0.0,0.0,0.0,0.0,0.0,0.0,0.0,0.0,0.0,0.0,0.0,0.0,0.0,0.0,0.0,0.0,0.0,0.0,0.0,0.0,0.0,0.0,0.0,0.0,0.0,0.0,0.0,0.0,0.0,0.0,0.0,0.0,0.0,0.0,0.0,0.0,0.0,0.0,0.0,0.0,0.0,0.0,0.0,0.0,0.0,0.0,0.0,0.0,0.0,0.0,0.0,0.0,0.0,0.0,0.0,0.0,0.0,0.0,0.0,0.0,0.0,0.0,0.0,0.0,0.0,0.0,0.0,0.0,0.0,0.0,0.0,0.0,0.0,0.0,0.0,0.0,0.0,0.0,0.0,0.0,0.0,0.0,0.0,0.0,0.0,0.0,0.0,0.0,0.0,0.0,0.0,0.0,0.0,0.0,0.0,0.0,0.0,0.0,0.0,0.0,0.0,0.0,0.0,0.0,0.0,0.0,0.0,0.6487,0.7086,0.7764,0.8478,0.8846,0.8941,0.0,0.0,0.0,0.0,0.0,0.0,0.0,0.0,0.0,0.0,0.0,0.0,0.0,0.0,0.0,0.0,0.0,0.0,0.0,0.0,0.0,0.0,0.0,0.0,0.0,0.0,0.0,0.0,0.0,0.0,0.0,0.0,0.0,0.0,0.0,0.0,0.0,0.0,0.0,0.0,0.0,0.0,0.0,0.0,0.0,0.0,0.0,0.0,0.0,0.0,0.0,0.0,0.0,0.0,0.0,0.0,0.0,0.0,0.0,0.0,0.0,0.0,0.0,0.0,0.0,0.0,0.0,0.0,0.0,0.0,0.0,0.0,0.0,0.0,0.0,0.0,0.0,0.0,0.0,0.0,0.0,0.0,0.0,0.0,0.0,0.0,0.0,0.0,0.0,0.0,0.0,0.0,0.0,0.0,0.0,0.0,0.0,0.0,0.0,0.0,0.0,0.0,0.0,0.0,0.0,0.0,0.0,0.0,0.5486,0.6387,0.6911,0.754,0.8212,0.8571,0.8723,0.0,0.0,0.0,0.0,0.0,0.0,0.0,0.0,0.0,0.0,0.0,0.0,0.0,0.0,0.0,0.0,0.0,0.0,0.0,0.0,0.0,0.0,0.0,0.0,0.0,0.0,0.0,0.0,0.0,0.0,0.0,0.0,0.0,0.0,0.0,0.0,0.0,0.0,0.0,0.0,0.0,0.0,0.0,0.0,0.0,0.0,0.0,0.0,0.0,0.0,0.0,0.0,0.0,0.0,0.0,0.0,0.0,0.0,0.0,0.0,0.0,0.0,0.0,0.0,0.0,0.0,0.0,0.0,0.0,0.0,0.0,0.0,0.0,0.0,0.0,0.0,0.0,0.0,0.0,0.0,0.0,0.0,0.0,0.0,0.0,0.0,0.0,0.0,0.0,0.0,0.0,0.0,0.0,0.0,0.0,0.0,0.0,0.0,0.0,0.0,0.0,0.0,0.0,0.0,0.0,0.0,0.0,0.0,0.5386,0.6387,0.6936,0.749,0.7988,0.8262,0.8449,0.0,0.0,0.0,0.0,0.0,0.0,0.0,0.0,0.0,0.0,0.0,0.0,0.0,0.0,0.0,0.0,0.0,0.0,0.0,0.0,0.0,0.0,0.0,0.0,0.0,0.0,0.0,0.0,0.0,0.0,0.0,0.0,0.0,0.0,0.0,0.0,0.0,0.0,0.0,0.0,0.0,0.0,0.0,0.0,0.0,0.0,0.0,0.0,0.0,0.0,0.0,0.0,0.0,0.0,0.0,0.0,0.0,0.0,0.0,0.0,0.0,0.0,0.0,0.0,0.0,0.0,0.0,0.0,0.0,0.0,0.0,0.0,0.0,0.0,0.0,0.0,0.0,0.0,0.0,0.0,0.0,0.0,0.0,0.0,0.0,0.0,0.0,0.0,0.0,0.0,0.0,0.0,0.0,0.0,0.0,0.0,0.0,0.0,0.0,0.0,0.0,0.0,0.0,0.0,0.0,0.0,0.0,0.0,0.5737,0.6387,0.7141,0.7665,0.7988,0.8262,0.8286,0.0,0.0,0.0,0.0,0.0,0.0,0.0,0.0,0.0,0.0,0.0,0.0,0.0,0.0,0.0,0.0,0.0,0.0,0.0,0.0,0.0,0.0,0.0,0.0,0.0,0.0,0.0,0.0,0.0,0.0,0.0,0.0,0.0,0.0,0.0,0.0,0.0,0.0,0.0,0.0,0.0,0.0,0.0,0.0,0.0,0.0,0.0,0.0,1.6135,0.0,0.0,0.0,0.0,0.0,0.0,0.0,0.0,0.0,0.0,0.0,0.0,0.0,0.0,0.0,0.0,0.0,0.0,0.0,0.0,0.0,0.0,0.0,0.0,0.0,0.0,0.0,0.0,0.0,0.0,0.0,0.0,0.0,0.0,0.0,0.0,0.0,0.0,0.0,0.0,0.0,0.0,0.0,0.0,0.0,0.0,0.0,0.0,0.0,0.0,0.0,0.0,0.0,0.0,0.0,0.0,0.0,0.0,0.0,0.5912,0.6567,0.7241,0.7721,0.7988,0.8069,0.8039,0.0,0.0,0.0,0.0,0.0,0.0,0.0,0.0,0.0,0.0,0.0,0.0,0.0,0.0,0.0,0.0,0.0,0.0,0.0,0.0,0.0,0.0,0.0,0.0,0.0,0.0,0.0,0.0,0.0,0.0,0.0,0.0,0.0,0.0,0.0,0.0,0.0,0.0,0.0,0.0,0.0,0.0,0.0,0.0,0.0,0.0,0.0,0.0,0.0,0.0,0.0,0.0,0.0,0.0,0.0,0.0,0.0,0.0,0.0,0.0,0.0,0.0,0.0,0.0,0.0,0.0,0.0,0.0,0.0,0.0,0.0,0.0,0.0,0.0,0.0,0.0,0.0,0.0,0.0,0.0,0.0,0.0,0.0,0.0,0.0,0.0,0.0,0.0,0.0,0.0,0.0,0.0,0.0,0.0,0.0,0.0,0.0,0.0,0.0,0.0,0.0,0.0,0.0,0.0,0.0,0.0,0.0,0.5461,0.6137,0.6842,0.7397,0.7771,0.7988,0.7913,0.789,0.7902,0.0,0.0,0.0,0.0,0.0,0.0,0.0,0.0,0.0,0.0,0.0,0.0,0.0,0.0,0.0,0.0,0.0,0.0,0.0,0.0,0.0,0.0,0.0,0.0,0.0,0.0,0.0,0.0,0.0,0.0,0.0,0.0,0.0,0.0,0.0,0.0,0.0,0.0,1.1669,1.2078,0.0,0.0,0.0,0.0,0.0,0.0,0.0,0.0,1.5261,0.0,0.0,0.0,0.0,0.0,0.0,0.0,0.0,0.0,0.0,0.0,0.0,0.0,0.0,0.0,0.0,0.0,0.0,0.0,0.0,0.0,0.0,0.0,0.0,0.0,0.0,0.0,0.0,0.0,0.0,0.0,0.0,0.0,0.0,0.0,0.0,0.0,0.0,0.0,0.0,0.0,0.0,0.0,0.0,0.0,0.0,0.0,0.0,0.0,0.0,0.0,0.0,0.0,0.0,0.0,0.0,0.5115,0.6092,0.6767,0.7135,0.7665,0.7939,0.7988,0.8091,0.8058,0.7926,0.0,0.0,0.0,0.0,0.0,0.0,0.0,0.0,0.0,0.0,0.0,0.0,0.0,0.0,0.0,0.0,0.0,0.0,0.0,0.0,0.0,0.0,0.0,0.0,0.0,0.0,0.0,0.0,0.0,0.0,0.0,0.0,0.0,0.0,0.0,0.0,0.0,0.0,0.0,1.0584,1.0984,0.0,0.0,0.0,0.0,0.0,0.0,0.0,0.0,1.4627,0.0,0.0,0.0,0.0,0.0,0.0,0.0,0.0,0.0,0.0,0.0,0.0,0.0,0.0,0.0,0.0,0.0,0.0,0.0,0.0,0.0,0.0,0.0,0.0,0.0,0.0,0.0,0.0,0.0,0.0,0.0,0.0,0.0,0.0,0.0,0.0,0.0,0.0,0.0,0.0,0.0,0.0,0.0,0.0,0.0,0.0,0.0,0.0,0.0,0.0,0.0,0.0,0.0,0.0,0.0,0.5812,0.6617,0.7116,0.7391,0.7789,0.7979,0.7898,0.7997,0.8032,0.0,0.0,0.0,0.0,0.0,0.0,0.0,0.0,0.0,0.0,0.0,0.0,0.0,0.0,0.0,0.0,0.0,0.0,0.0,0.0,0.0,0.0,0.0,0.0,0.0,0.0,0.0,0.0,0.0,0.0,0.0,0.0,0.0,0.0,0.0,0.0,0.0,0.0,0.0,0.0,0.879,0.9139,0.9682,0.0,0.0,0.0,0.0,0.0,0.0,1.3125,1.3607,0.0,0.0,0.0,0.0,0.0,0.0,0.0,0.0,0.0,0.0,0.0,0.0,0.0,0.0,0.0,0.0,0.0,0.0,0.0,0.0,0.0,0.0,0.0,0.0,0.0,0.0,0.0,0.0,0.0,0.0,0.0,0.0,0.0,0.0,0.0,0.0,0.0,0.0,0.0,0.0,0.0,0.0,0.0,0.0,0.0,0.0,0.0,0.0,0.0,0.0,0.0,0.0,0.0,0.0,0.0,0.6462,0.6992,0.7416,0.7671,0.7889,0.7959,0.7855,0.7875,0.7955,0.0,0.0,0.0,0.0,0.0,0.0,0.0,0.0,0.0,0.0,0.0,0.0,0.0,0.0,0.0,0.0,0.0,0.0,0.0,0.0,0.0,0.0,0.0,0.0,0.0,0.0,0.0,0.0,0.0,0.0,0.0,0.0,0.0,0.0,0.0,0.0,0.0,0.0,0.0,0.0,0.0,0.7248,0.7763,0.811,0.0,0.0,0.0,0.0,1.139,1.195,0.0,0.0,0.0,0.0,0.0,0.0,0.0,0.0,0.0,0.0,0.0,0.0,0.0,0.0,0.0,0.0,0.0,0.0,0.0,0.0,0.0,0.0,0.0,0.0,0.0,0.0,0.0,0.0,0.0,0.0,0.0,0.0,0.0,0.0,0.0,0.0,0.0,0.0,0.0,0.0,0.0,0.0,0.0,0.0,0.0,0.0,0.0,0.0,0.0,0.0,0.0,0.0,0.0,0.0,0.0,0.0,0.6742,0.7291,0.769,0.7945,0.7988,0.8006,0.7986,0.7931,0.7912,0.0,0.0,0.0,0.0,0.0,0.0,0.0,0.0,0.0,0.0,0.0,0.0,0.0,0.0,0.0,0.0,0.0,0.0,0.0,0.0,0.0,0.0,0.0,0.0,0.0,0.0,0.0,0.0,0.0,0.0,0.0,0.0,0.0,0.0,0.0,0.0,0.0,0.0,0.0,0.0,0.0,0.5322,0.5847,0.6346,0.6869,0.0,0.0,0.9221,0.978,1.0527,0.0,0.0,0.0,0.0,0.0,0.0,0.0,0.0,0.0,0.0,0.0,0.0,0.0,0.0,0.0,0.0,0.0,0.0,0.0,0.0,0.0,0.0,0.0,0.0,0.0,0.0,0.0,0.0,0.0,0.0,0.0,0.0,0.0,0.0,0.0,0.0,0.0,0.0,0.0,0.0,0.0,0.0,0.0,0.0,0.0,0.0,0.0,0.0,0.0,0.0,0.0,0.0,0.0,0.0,0.0,0.6317,0.6798,0.7322,0.7572,0.754,0.754,0.7502,0.7426,0.7586,0.7627,0.0,0.0,0.0,0.0,0.0,0.0,0.0,0.0,0.0,0.0,0.0,0.0,0.0,0.0,0.0,0.0,0.0,0.0,0.0,0.0,0.0,0.0,0.0,0.0,0.0,0.0,0.0,0.0,0.0,0.0,0.0,0.0,0.0,0.0,0.0,0.0,0.0,0.0,0.0,0.0,0.0,0.0,0.3995,0.4542,0.0,0.0,0.0,0.7667,0.8155,0.0,0.0,0.0,0.0,0.0,0.0,0.0,0.0,0.0,0.0,0.0,0.0,0.0,0.0,0.0,0.0,0.0,0.0,0.0,0.0,0.0,0.0,0.0,0.0,0.0,0.0,0.0,0.0,0.0,0.0,0.0,0.0,0.0,0.0,0.0,0.0,0.0,0.0,0.0,0.0,0.0,0.0,0.0,0.0,0.0,0.0,0.0,0.0,0.0,0.0,0.0,0.0,0.0,0.0,0.0,0.0,0.0,0.6592,0.7067,0.7216,0.7011,0.7011,0.6969,0.685,0.7097,0.0,0.0,0.0,0.0,0.0,0.0,0.0,0.0,0.0,0.0,0.0,0.0,0.0,0.0,0.0,0.0,0.0,0.0,0.0,0.0,0.0,0.0,0.0,0.0,0.0,0.0,0.0,0.4764,0.0,0.0,0.0,0.0,0.0,0.0,0.0,0.0,0.0,0.0,0.0,0.0,0.0,0.0,0.1675,0.2181,0.2766,0.3443,0.0,0.0,0.6164,0.658,0.7276,0.7837,0.0,0.0,0.0,0.0,0.0,0.0,0.0,0.0,0.0,0.0,0.0,0.0,0.0,0.0,0.0,0.0,0.0,0.0,0.0,0.0,0.0,0.0,0.0,0.0,0.0,0.0,0.0,0.0,0.0,0.0,0.0,0.0,0.0,0.0,0.0,0.0,0.0,0.0,0.0,0.0,0.0,0.0,0.0,0.0,0.0,0.0,0.0,0.0,0.0,0.0,0.0,0.0,0.0,0.0,0.0,0.6042,0.6337,0.6462,0.6437,0.6462,0.6456,0.6445,0.6468,0.6507,0.0,0.0,0.0,0.0,0.0,0.0,0.0,0.0,0.0,0.0,0.0,0.0,0.0,0.0,0.0,0.0,0.0,0.0,0.0,0.0,0.0,0.0,0.0,0.0,0.0,0.0,0.0,0.0,0.0,0.0,0.0,0.0,0.0,0.0,0.0,0.0,0.0,0.0,0.0,0.0,0.0,0.0133,0.0426,0.1198,0.197,0.0,0.0,0.4827,0.5106,0.5602,0.6049,0.6333,0.0,0.0,0.0,0.0,0.0,0.0,0.0,0.0,0.0,0.0,0.0,0.0,0.0,0.0,0.0,0.0,0.0,0.0,0.0,0.0,0.0,0.0,0.0,0.0,0.0,0.0,0.0,0.0,0.0,0.0,0.0,0.0,0.0,0.0,0.0,0.0,0.0,0.0,0.0,0.0,0.0,0.0,0.0,0.0,0.0,0.0,0.0,0.0,0.0,0.0,0.0,0.0,0.0,0.4985,0.501,0.5286,0.5236,0.4935,0.491,0.4935,0.491,0.5152,0.5316,0.0,0.0,0.0,0.0,0.0,0.0,0.0,0.0,0.0,0.0,0.0,0.0,0.0,0.0,0.0,0.0,0.0,0.0,0.0,0.0,0.0,0.0,0.0,0.0,0.0,0.0,0.0,0.0,0.2361,0.2043,0.1646,0.0,0.0,0.0,0.0,0.0,0.0,0.0,0.0,0.0,0.0,-0.0605,0.0027,0.055,0.0,0.0,0.2189,0.2716,0.2607,0.3048,0.3366,0.3258,0.3048,0.0,0.0,0.0,0.0,0.0,0.0,0.0,0.0,0.0,0.0,0.0,0.0,0.0,0.0,0.0,0.0,0.0,0.0,0.0,0.0,0.0,0.0,0.0,0.0,0.0,0.0,0.0,0.0,0.0,0.0,0.0,0.0,0.0,0.0,0.0,0.0,0.0,0.0,0.0,0.0,0.0,0.0,0.0,0.0,0.0,0.0,0.0,0.0,0.0,0.0,0.0,0.0,0.3968,0.3684,0.3863,0.3751,0.3301,0.3276,0.3293,0.3302,0.3682,0.395,0.0,0.0,0.0,0.0,0.0,0.0,0.0,0.0,0.0,0.0,0.0,0.0,0.0,0.0,0.0,0.0,0.0,0.0,0.0,0.0,0.0,0.0,0.0,0.0,0.0,0.0,0.0,0.0,0.1354,0.0933,0.0474,0.0,0.0,0.0,0.0,0.0,0.0,0.0,0.0,0.0,0.0,-0.11,-0.0477,-0.0197,0.0056,0.025,0.0557,0.0695,0.0467,0.052,0.0465,0.0219,0.0,0.0,0.0,0.0,0.0,0.0,0.0,0.0,0.0,0.0,0.0,0.0,0.0,0.0,0.0,0.0,0.0,0.0,0.0,0.0,0.0,0.0,0.0,0.0,0.0,0.0,0.0,0.0,0.0,0.0,-0.6004,0.0,0.0,0.0,0.0,0.0,0.0,0.0,0.0,0.0,0.0,0.0,0.0,0.0,0.0,0.0,0.0,0.0,0.0,0.0,0.0,0.0,0.0,0.2392,0.207,0.2068,0.192,0.1656,0.1655,0.1641,0.1641,0.2028,0.2419,0.2791,0.0,0.0,0.0,0.0,0.0,0.0,0.0,0.0,0.0,0.0,0.0,0.0,0.0,0.0,0.0,0.0,0.0,0.0,0.0,0.0,0.0,0.0,0.0,0.0,0.0,0.0,0.0848,0.0394,-0.0087,0.0,0.0,0.0,0.0,0.0,0.0,0.0,0.0,0.0,0.0,-0.1552,-0.1371,-0.1266,-0.1081,-0.0948,-0.0976,-0.1017,-0.1056,-0.1113,-0.1873,-0.2517,0.0,0.0,0.0,0.0,0.0,0.0,0.0,0.0,0.0,0.0,0.0,0.0,0.0,0.0,0.0,0.0,0.0,0.0,0.0,0.0,0.0,0.0,0.0,0.0,0.0,0.0,0.0,-0.7707,-0.7404,0.0,0.0,0.0,0.0,0.0,0.0,0.0,0.0,0.0,0.0,0.0,-0.5379,-0.4679,0.0,0.0,0.0,0.0,0.0,0.0,0.0,0.0,0.0,0.0,0.0,0.0,0.1385,0.0878,0.0692,0.0371,-0.0106,-0.0105,-0.0131,-0.0131,0.0205,0.0663,0.118,0.0,0.0,0.0,0.0,0.0,0.0,0.0,0.0,0.0,0.0,0.0,0.0,0.0,0.0,0.0,0.0,0.0,0.0,0.0,0.0,0.0,0.0,0.0,0.0,0.0,-0.0489,0.0,0.0,0.0,0.0,0.0,0.0,0.0,0.0,0.0,0.0,0.0,-0.1734,-0.155,-0.1257,-0.1079,-0.1044,-0.1368,-0.1787,0.0,0.0,0.0,0.0,0.0,0.0,0.0,0.0,0.0,0.0,0.0,0.0,0.0,0.0,0.187,0.2483,0.2637,0.2774,0.3005,0.0,0.0,0.0,0.0,0.0,0.0,0.0,0.0,0.0,0.0,0.0,0.0,0.0,0.0,-0.836,0.0,-0.729,0.0,0.0,0.0,0.0,0.0,0.0,0.0,0.0,-0.6446,-0.6146,-0.5936,-0.5365,-0.4999,0.0,-0.3789,-0.2783,0.0,0.0,0.0,0.0,0.0,0.0,0.0,0.0,0.0298,-0.0407,-0.0597,-0.0973,-0.1505,-0.1665,-0.1714,-0.1677,-0.1315,-0.0863,-0.0366,0.0262,0.0684,0.0,0.0,0.0,0.0,0.0,0.0,0.0,0.0,0.0,0.0,0.0,0.0,0.0,0.0,0.0,0.0,0.0,0.0,0.0,0.0,0.0,0.0,0.0,-0.1036,0.0,0.0,0.0,0.0,0.0,0.0,0.0,0.0,0.0,-0.1924,-0.1796,-0.1546,-0.114,-0.0898,-0.0805,-0.0885,0.0,0.0,0.0,0.0,0.0,0.0,0.0,-0.5558,-0.5614,-0.5485,-0.4949,-0.3795,-0.2634,-0.1572,-0.0802,0.0,0.0,0.1413,0.1788,0.2107,0.2462,0.3072,0.3883,0.4852,0.5511,0.612,0.0,0.0,0.0,0.0,0.0,0.0,0.0,0.0,-0.9141,-0.8677,0.0,-0.7602,0.0,0.0,0.0,0.0,0.0,0.0,0.0,0.0,-0.68,-0.6495,-0.6464,-0.5946,-0.5659,-0.5556,-0.4699,-0.4028,-0.3545,-0.1918,0.0,0.0,0.0,0.0,0.0,0.0,-0.087,-0.1711,-0.1767,-0.206,-0.2602,-0.2898,-0.3065,-0.299,-0.2533,-0.2132,-0.1865,-0.1039,-0.056,-0.056,-0.0293,0.0,0.0,0.0,0.0,0.0,0.0,0.0,0.0,0.0,0.0,0.0,0.0,0.0,0.0,0.0,0.0,0.0,0.0,0.0,0.0,-0.1389,0.0,0.0,0.0,0.0,0.0,0.0,0.0,0.0,0.0,0.0,-0.1806,-0.1643,-0.1213,-0.0589,0.0,0.0,0.0,0.0,-0.2203,-0.281,-0.4035,-0.4875,-0.4909,-0.5943,-0.6644,-0.6337,0.0,0.0,-0.3295,-0.2125,-0.111,-0.0154,0.0617,0.1048,0.1141,0.1857,0.2473,0.2863,0.3666,0.4598,0.5538,0.6305,0.688,-1.0797,0.0,0.0,0.0,0.0,-1.0461,-1.0141,-0.9663,-0.9041,-0.8695,-0.8537,-0.788,0.0,0.0,0.0,0.0,0.0,0.0,-0.6886,-0.726,-0.6846,-0.6623,-0.6628,-0.6234,-0.6042,-0.5986,-0.5529,-0.4974,-0.436,-0.3345,-0.2307,-0.1209,0.0,0.0,0.0,0.0,-0.1242,-0.1457,-0.1912,-0.2406,-0.295,-0.3061,-0.3283,-0.361,-0.3553,-0.3417,-0.3282,-0.2438,-0.2017,-0.2041,-0.1353,0.0,0.0,0.0,0.0,0.0,0.0,0.0,0.0,0.0,0.0,0.0,0.0,0.0,0.0,0.0,0.0,0.0,0.0,0.0,-0.2071,-0.1837,-0.1778,0.0,0.0,0.0,0.0,0.0,0.0,0.0,0.0,0.0,-0.0266,-0.0556,-0.0708,0.0,0.0,-0.025,-0.0558,-0.1429,-0.225,-0.303,0.0,0.0,0.0,-0.4873,-0.4742,-0.4619,-0.3881,-0.2895,-0.1753,-0.0955,-0.0092,0.0893,0.1603,0.225,0.2897,0.2704,0.2726,0.3243,0.4085,0.5104,0.631,0.719,0.796,-1.0194,-1.0517,-1.0857,-1.0808,-1.0485,-1.0259,-1.0,-0.967,-0.9086,-0.8794,-0.8632,-0.7922,-0.7544,-0.7339,-0.6556,0.0,0.0,0.0,-0.6515,-0.694,-0.6716,-0.6597,-0.6535,-0.6406,-0.6304,-0.6239,-0.5914,-0.549,-0.491,-0.4063,-0.3056,-0.1958,0.0,0.0,-0.0684,-0.1005,-0.1231,-0.1308,-0.1829,-0.2339,-0.2772,-0.3122,-0.3563,-0.4116,-0.4168,-0.4165,-0.4113,-0.3504,-0.3133,-0.3052,-0.2382,-0.1897,0.0,0.0,0.0,0.0,0.0,0.0,0.0,0.0,0.0,0.0,0.0,-0.4554,-0.4375,0.0,0.0,0.0,-0.289,-0.2341,-0.1899,-0.1824,0.0,0.0,0.0,0.0,0.0,0.0,0.0,-0.0133,-0.01,0.0167,0.0806,0.0597,0.0229,-0.0065,0.0065,0.0064,-0.0253,0.0,-0.1421,-0.2026,-0.2796,-0.3383,-0.3634,-0.3367,-0.3018,-0.2618,-0.1602,-0.0616,0.0092,0.0739,0.1479,0.2278,0.2987,0.3728,0.4558,0.4435,0.4309,0.4619,0.5418,0.6425,0.7464,0.8473,0.9351,-0.9266,-0.9348,-1.0126,-1.0285,-1.0039,-1.0039,-0.9834,-0.9495,-0.9117,-0.8817,-0.8456,-0.776,-0.7208,-0.6756,-0.5919,0.0,0.0,-0.577,-0.601,-0.6455,-0.6489,-0.6444,-0.6333,-0.6448,-0.6444,-0.6296,-0.6078,-0.5741,-0.528,-0.4287,-0.3373,-0.2617,-0.1888,-0.1263,-0.0849,-0.0897,-0.1008,-0.1183,-0.1539,-0.1919,-0.2265,-0.3103,-0.3828,-0.4417,-0.4441,-0.4494,-0.4519,-0.4217,-0.3936,-0.3734,-0.3372,-0.2925,-0.2395,0.0,0.0,0.0,0.0,0.0,0.0,0.0,0.0,0.0,0.0,0.0,0.0,0.0,0.0,0.0,-0.2915,0.0,-0.149,-0.1426,0.0,0.0,0.0,-0.0697,-0.0403,-0.0303,-0.0034,0.0606,0.0,0.0,0.1683,0.0,0.1473,0.086,0.0692,0.0522,0.0191,0.0159,0.0,-0.0343,-0.09,-0.1303,-0.1342,-0.146,-0.1208,-0.0279,0.0588,0.1425,0.2138,0.2727,0.3375,0.4027,0.4663,0.5306,0.5947,0.653,0.698,0.6766,0.7413,0.8238,0.8867,0.9953,1.0771,-0.8258,-0.8209,-0.84,-0.8534,-0.8697,-0.8663,-0.8407,-0.8028,-0.7922,-0.7822,-0.7727,-0.7321,-0.664,-0.5722,-0.5232,-0.5002,-0.5048,-0.5352,-0.5696,-0.6046,-0.6351,-0.651,-0.6456,-0.651,-0.6477,-0.6456,-0.6376,-0.6008,-0.5355,-0.4818,-0.3888,-0.269,-0.1922,-0.1127,-0.0254,-0.0727,-0.0718,-0.0244,-0.0824,-0.1358,-0.1916,-0.2581,-0.3211,-0.387,-0.4128,-0.4479,-0.4857,-0.4652,-0.4598,-0.4718,-0.4274,-0.3838,-0.3434,-0.3272,0.0,0.0,0.0,0.0,0.0,0.0,0.0,0.0,0.0,-0.4996,-0.4212,0.0,-0.3654,0.0,-0.2188,-0.1489,-0.0812,-0.0745,0.0,0.0,0.0268,0.0637,0.0706,0.1212,0.1717,0.2119,0.2185,0.2455,0.3194,0.3028,0.2888,0.298,0.2321,0.1775,0.1665,0.1402,0.1205,0.1102,0.0777,0.0487,0.055,0.0899,0.1496,0.2519,0.2899,0.3347,0.427,0.4559,0.4969,0.5886,0.6369,0.683,0.7448,0.7993,0.8604,0.9177,0.9359,0.9542,1.021,1.1148,1.1897,-0.7241,-0.719,-0.7154,-0.7138,-0.7118,-0.7562,-0.7511,-0.7115,-0.7115,-0.7081,-0.7081,-0.674,-0.6092,-0.5208,-0.5,-0.4829,-0.4692,-0.5068,-0.541,-0.5785,-0.6122,-0.6377,-0.6546,-0.6505,-0.6489,-0.6489,-0.6489,-0.6116,-0.5413,-0.4973,-0.4086,-0.2693,-0.2128,-0.1259,-0.0066,-0.039,-0.0352,0.0063,-0.0441,-0.1027,-0.1612,-0.2096,-0.2595,-0.3066,-0.3539,-0.4015,-0.4386,-0.4451,-0.4539,-0.468,-0.4421,-0.4044,-0.3453,-0.3377,-0.3263,0.0,0.0,0.0,0.0,0.0,0.0,0.0,0.0,0.0,0.0,0.0,-0.2617,-0.1747,-0.0966,-0.0312,0.0208,0.0416,0.0656,0.0995,0.1541,0.1954,0.2159,0.2658,0.3089,0.3426,0.344,0.3631,0.4168,0.4202,0.4336,0.4705,0.4342,0.3782,0.3035,0.2801,0.2793,0.2744,0.261,0.2545,0.2674,0.3174,0.3766,0.4441,0.4766,0.5087,0.5793,0.6054,0.6438,0.7267,0.7668,0.8133,0.8909,0.9181,0.9702,1.0706,1.108,1.1246,1.1571,1.2303,1.2931,-0.6173,-0.6166,-0.6166,-0.5939,-0.558,-0.6434,-0.6671,-0.6399,-0.6333,-0.6333,-0.6298,-0.5949,-0.5464,-0.487,-0.48,-0.466,-0.4447,-0.4762,-0.515,-0.5534,-0.5846,-0.6191,-0.6534,-0.6491,-0.6454,-0.6454,-0.6421,-0.6017,-0.5342,-0.4934,-0.4083,-0.2798,-0.2362,-0.1484,-0.0202,-0.0066,0.0,0.0,-0.0291,-0.0705,-0.1265,-0.1582,-0.1875,-0.2193,-0.2798,-0.3291,-0.3569,-0.3925,-0.4133,-0.4157,-0.4219,-0.3888,-0.3043,-0.3244,-0.3107,0.0,-0.2319,0.0,0.0,0.0,0.0,0.0,0.0,0.0,0.0,-0.1643,-0.0987,-0.0317,0.0493,0.1126,0.144,0.1861,0.221,0.2558,0.3013,0.3398,0.3746,0.4053,0.4366,0.4678,0.466,0.4763,0.5106,0.544,0.5781,0.6072,0.6266,0.5867,0.4604,0.443,0.4511,0.4479,0.4474,0.4527,0.4845,0.5192,0.5544,0.5993,0.6324,0.6666,0.7029,0.7352,0.7738,0.8349,0.8788,0.9276,1.0163,1.0269,1.0734,1.1906,1.2472,1.2768,1.2853,1.3354,1.3895,-0.5078,-0.5034,-0.5031,-0.4774,-0.4426,-0.4596,-0.4929,-0.5289,-0.4972,-0.4832,-0.4797,-0.445,-0.4243,-0.4065,-0.3785,-0.375,-0.403,-0.4377,-0.4727,-0.515,-0.5761,-0.614,-0.6206,-0.6195,-0.6152,-0.6152,-0.591,-0.5528,-0.5077,-0.4693,-0.4043,-0.3181,-0.2258,-0.1498,-0.0909,0.0,0.0,0.0,-0.0065,-0.029,-0.0643,-0.0739,-0.1026,-0.1624,-0.2038,0.0,-0.3026,-0.3433,-0.3718,-0.3958,-0.4009,0.0,0.0,0.0,0.0,0.0,0.0,0.0,0.0,0.0,0.0,0.0,0.0495,0.0035,-0.078,0.0072,0.0724,0.0904,0.1844,0.2628,0.303,0.3381,0.3756,0.4138,0.4762,0.5181,0.5321,0.5831,0.6275,0.6341,0.6329,0.6456,0.6733,0.6914,0.7052,0.7285,0.7408,0.7265,0.6844,0.6293,0.5986,0.597,0.5955,0.6095,0.6531,0.6622,0.6912,0.746,0.7697,0.7985,0.847,0.8673,0.8877,0.9372,0.9817,1.022,1.0446,1.1217,1.2019,1.2898,1.3424,1.37,1.3571,1.4222,1.4927,-0.3543,0.0,-0.3525,-0.3425,0.0,-0.3016,-0.3092,-0.3393,-0.3787,-0.3859,-0.3645,-0.3466,-0.3397,-0.3395,-0.3182,-0.343,-0.4002,-0.4177,-0.4572,-0.5107,-0.5466,-0.5694,-0.5902,-0.5866,-0.5744,-0.5569,-0.5394,-0.501,-0.4485,-0.4275,-0.3702,-0.2739,-0.2185,-0.1556,-0.0825,-0.0273,0.0,0.0,0.0,-0.0067,-0.0233,-0.0402,-0.0669,-0.1022,0.0,0.0,0.0,0.0,0.0,0.0,0.0,0.0,0.0,0.0,0.0,-0.103,-0.0137,0.038,0.035,0.0881,0.1526,0.2285,0.2749,0.2397,0.0974,0.1778,0.2331,0.2368,0.3385,0.4211,0.4585,0.4976,0.5356,0.5752,0.6318,0.6638,0.667,0.7058,0.7385,0.7376,0.7375,0.7418,0.7592,0.7766,0.7951,0.8281,0.8478,0.8628,0.8667,0.7689,0.6958,0.6958,0.7154,0.7355,0.7717,0.7951,0.8223,0.8756,0.8895,0.9028,0.9356,0.9555,0.9788,1.012,1.0551,1.093,1.1374,1.1968,1.2713,1.3522,1.4195,1.4665,1.4761,1.5109,1.5472,-0.2132,-0.2127,-0.2089,-0.2111,-0.2088,-0.1752,-0.1591,-0.1682,0.0,0.0,0.0,-0.2589,-0.2589,-0.2589,-0.2662,-0.3134,-0.3862,-0.3971,-0.441,-0.5101,-0.512,-0.5307,-0.5587,-0.5498,-0.5257,-0.4941,-0.4729,-0.4339,-0.3742,-0.3601,-0.3031,-0.218,-0.2003,-0.1405,-0.0456,-0.0069,0.0103,0.0102,0.0103,0.0103,0.0103,-0.0105,-0.0208,-0.0204,-0.0542,-0.0838,-0.1114,-0.1179,-0.1349,-0.1599,-0.1617,-0.1295,-0.0655,-0.0557,-0.0245,0.0387,0.1163,0.1624,0.1628,0.2329,0.3105,0.3896,0.4711,0.4448,0.2856,0.348,0.3958,0.3958,0.5022,0.5826,0.6158,0.6505,0.6861,0.7193,0.7579,0.7815,0.7883,0.8146,0.8373,0.8398,0.8439,0.8378,0.8424,0.8634,0.8858,0.9161,0.9434,0.9735,0.9826,0.886,0.803,0.8035,0.8249,0.8456,0.8723,0.8989,0.9356,0.9628,0.9761,0.9794,0.9894,1.016,1.0459,1.0717,1.1115,1.1637,1.2231,1.271,1.3235,1.4162,1.4981,1.568,1.6077,1.606,1.6113,-0.1398,-0.1347,-0.1347,-0.1375,-0.1359,-0.1284,-0.1275,-0.1296,-0.1467,-0.1496,-0.1423,-0.1423,-0.1423,-0.146,-0.1824,-0.2369,-0.3061,-0.3427,-0.401,0.0,-0.5056,-0.5235,-0.5235,-0.4969,-0.4785,-0.4674,-0.3697,-0.3154,-0.2972,-0.2355,-0.191,-0.1713,-0.1141,-0.0568,-0.007,0.0315,0.0524,0.0523,0.0518,0.0515,0.0515,0.0801,0.0946,0.0942,0.0593,0.0348,0.0312,0.0035,-0.0139,-0.0174,0.0139,0.0383,0.0489,0.1086,0.1444,0.1603,0.2628,0.3276,0.3275,0.4062,0.4876,0.5662,0.6173,0.589,0.4601,0.5233,0.5753,0.5787,0.6795,0.7556,0.7627,0.785,0.8021,0.8163,0.8385,0.8657,0.9023,0.9368,0.9706,0.9994,1.0126,1.0066,0.9983,1.006,1.0084,1.0119,1.0165,1.0199,1.0158,0.9821,0.9595,0.9537,0.9494,0.9507,0.9525,0.9567,0.9806,1.0093,1.016,1.0226,1.0459,1.0757,1.0982,1.1115,1.1677,1.2206,1.2667,1.3538,1.4279,1.5115,1.5881,1.6624,1.7164,1.7165,1.7081,-0.0587,-0.0546,-0.0545,-0.0541,-0.0535,-0.0304,-0.0226,-0.0188,0.0075,-0.0222,-0.0839,-0.0876,-0.0876,-0.0912,-0.1277,-0.2006,-0.2917,-0.3318,-0.3937,-0.4665,-0.4847,-0.481,-0.4629,-0.4447,-0.4007,-0.3389,-0.2842,-0.2369,-0.1969,-0.1605,-0.1346,-0.1048,-0.0325,0.0144,0.0319,0.0709,0.0918,0.0947,0.0913,0.0949,0.0913,0.1104,0.1286,0.1453,0.1275,0.1306,0.1508,0.1367,0.1301,0.1311,0.1453,0.1782,0.224,0.2568,0.2983,0.3461,0.4186,0.4734,0.4945,0.5954,0.6691,0.7067,0.749,0.7503,0.6932,0.6996,0.7067,0.7105,0.7783,0.8309,0.8497,0.8678,0.8909,0.9361,0.9493,0.9724,1.0081,1.0243,1.0426,1.0559,1.0534,1.0491,1.0491,1.0491,1.0587,1.0668,1.084,1.0986,1.0879,1.0792,1.053,1.0116,1.0116,1.0187,1.0208,1.0287,1.0416,1.0578,1.0538,1.0532,1.0717,1.0989,1.1247,1.1512,1.2107,1.2667,1.3071,1.3949,1.4866,1.5671,1.6528,1.7277,1.7762,1.7897,1.7744,0.0315,0.0315,0.0275,0.0273,0.031,0.0612,0.076,0.0798,0.1137,0.0749,-0.0111,-0.0294,-0.0331,-0.0368,-0.0957,-0.1729,-0.2648,-0.3163,-0.3788,-0.4412,-0.4446,-0.43,-0.3969,-0.3822,-0.3198,-0.2353,-0.2059,-0.1618,-0.1104,-0.0883,-0.0588,-0.0183,0.0402,0.0726,0.0755,0.1222,0.1466,0.1453,0.1716,0.1722,0.1467,0.1594,0.1851,0.2084,0.2189,0.2393,0.2689,0.2791,0.2845,0.2881,0.2955,0.3314,0.398,0.4213,0.4603,0.5252,0.5799,0.627,0.6702,0.7583,0.8156,0.8232,0.8569,0.8808,0.8875,0.8583,0.8346,0.8308,0.8616,0.9028,0.9369,0.9413,0.9699,1.0387,1.0433,1.0554,1.0965,1.0952,1.0927,1.0988,1.0907,1.088,1.0868,1.0806,1.0889,1.1152,1.1404,1.1584,1.157,1.1511,1.1114,1.07,1.0622,1.0703,1.0737,1.0865,1.0934,1.0961,1.0874,1.0893,1.0974,1.1206,1.157,1.2043,1.2526,1.3137,1.3663,1.4506,1.5388,1.6159,1.7055,1.7869,1.8218,1.8404,1.8325,0.1158,0.1195,0.1145,0.1177,0.1175,0.1239,0.127,0.1269,0.1294,0.1249,0.1132,0.0679,0.049,0.034,-0.0678,-0.1432,-0.196,-0.2718,-0.328,-0.3654,-0.3696,-0.3656,-0.3539,-0.2903,-0.249,-0.2225,-0.1281,-0.0753,-0.0602,0.0075,0.0637,0.1001,0.1101,0.1131,0.1239,0.1857,0.2182,0.2215,0.3272,0.3291,0.2327,0.2935,0.3316,0.335,0.371,0.3889,0.3952,0.4283,0.4493,0.4583,0.4918,0.5172,0.5387,0.6002,0.6457,0.6585,0.7371,0.8064,0.8498,0.8633,0.8857,0.9216,0.9289,0.9493,0.9804,0.9832,0.9638,0.9434,0.9627,0.997,1.0407,1.0382,1.0509,1.0928,1.0919,1.1014,1.137,1.145,1.1556,1.1928,1.1858,1.1939,1.1787,1.17,1.1623,1.1536,1.1581,1.1611,1.1604,1.157,1.1536,1.1368,1.1285,1.113,1.1151,1.1158,1.1179,1.1172,1.1159,1.1262,1.146,1.177,1.2109,1.2698,1.3211,1.3763,1.4566,1.5388,1.6104,1.6807,1.7668,1.8521,1.8664,1.8881,1.8834,0.1293,0.1293,0.1327,0.1438,0.1665,0.1921,0.2144,0.2375,0.2675,0.2785,0.2708,0.2281,0.1535,0.0568,-0.0151,-0.0833,-0.1514,-0.231,-0.2689,-0.2839,-0.3103,-0.299,-0.246,-0.2158,-0.1779,-0.1287,-0.0568,-0.0114,0.0189,0.0719,0.1095,0.1278,0.1458,0.1679,0.1977,0.2499,0.3019,0.3466,0.4213,0.4569,0.4506,0.4321,0.4301,0.4519,0.4732,0.4974,0.5235,0.5638,0.59,0.5927,0.6301,0.6676,0.7025,0.7333,0.7663,0.7953,0.8529,0.8963,0.9124,0.9363,0.9597,0.9747,0.998,1.0175,1.033,1.0602,1.0719,1.0563,1.0447,1.0525,1.0907,1.0975,1.1144,1.1484,1.1511,1.1632,1.2013,1.2016,1.2045,1.2189,1.2152,1.2104,1.2091,1.2043,1.1945,1.1877,1.1809,1.1748,1.1705,1.1674,1.1619,1.1606,1.1504,1.145,1.1416,1.1348,1.1342,1.135,1.1427,1.1579,1.1752,1.2437,1.2956,1.3296,1.3914,1.4566,1.5295,1.6077,1.6818,1.7518,1.8206,1.894,1.9181,1.9347,1.9393,0.2044,0.2043,0.2038,0.2187,0.2488,0.2895,0.3195,0.3507,0.3931,0.4121,0.4081,0.365,0.276,0.1493,0.0688,-0.0038,-0.0765,-0.1415,-0.1721,-0.1721,-0.2028,-0.1836,-0.1262,-0.1109,-0.0803,-0.0268,0.0153,0.0574,0.0956,0.1409,0.1675,0.1826,0.2161,0.2536,0.2992,0.337,0.3975,0.4767,0.5298,0.5899,0.6405,0.6052,0.574,0.5816,0.5974,0.6229,0.6493,0.6961,0.7193,0.7217,0.7482,0.7866,0.8265,0.8413,0.875,0.9203,0.9494,0.9651,0.969,1.0044,1.0274,1.0319,1.0667,1.0908,1.0974,1.1185,1.1395,1.1473,1.117,1.1146,1.1378,1.1456,1.165,1.1998,1.2076,1.2192,1.2449,1.2406,1.2345,1.2338,1.2264,1.22,1.2173,1.2159,1.2145,1.2084,1.1959,1.1898,1.187,1.1775,1.1681,1.1638,1.1647,1.1577,1.1613,1.1531,1.1463,1.1649,1.1783,1.1909,1.2075,1.297,1.376,1.4079,1.4833,1.5606,1.6312,1.7029,1.7487,1.8153,1.8784,1.9264,1.9483,1.9699,1.9973,0.3886,0.3882,0.3801,0.3783,0.3856,0.425,0.4429,0.4504,0.481,0.4944,0.4907,0.4557,0.4081,0.3525,0.2115,0.1019,0.0509,0.0078,-0.0117,-0.0117,-0.0157,-0.0118,-0.0039,0.0314,0.0509,0.0625,0.1094,0.1486,0.1877,0.2247,0.266,0.3005,0.3357,0.3788,0.4247,0.4593,0.5226,0.6026,0.6706,0.7377,0.7791,0.8117,0.7845,0.7356,0.7548,0.7707,0.782,0.8196,0.8436,0.8497,0.8545,0.863,0.8808,0.9258,0.9755,1.022,1.0316,1.0362,1.0437,1.0753,1.0953,1.0999,1.1342,1.1641,1.161,1.1598,1.174,1.201,1.1907,1.1876,1.1856,1.1889,1.2037,1.2385,1.2463,1.2463,1.2501,1.2488,1.2488,1.2481,1.2454,1.2386,1.2291,1.2277,1.2254,1.2166,1.2104,1.2091,1.207,1.1918,1.1837,1.1759,1.1685,1.1584,1.1619,1.1664,1.1807,1.2001,1.2137,1.2415,1.2955,1.3538,1.4203,1.484,1.5453,1.6268,1.7265,1.794,1.8307,1.8753,1.916,1.9552,1.9807,2.0221,2.0455,0.489,0.4885,0.483,0.4969,0.5251,0.5356,0.5532,0.5768,0.586,0.5871,0.5871,0.5752,0.5436,0.504,0.4518,0.3342,0.1846,0.1413,0.1334,0.153,0.1334,0.1334,0.1609,0.1766,0.1805,0.1884,0.2276,0.2669,0.3101,0.3283,0.3511,0.3899,0.4078,0.4609,0.542,0.5729,0.6347,0.7346,0.7693,0.8155,0.8813,0.901,0.9049,0.9001,0.8559,0.8374,0.8336,0.8818,0.9137,0.9247,0.9487,0.9696,0.9845,1.0017,1.0295,1.0741,1.0786,1.0907,1.1189,1.135,1.143,1.147,1.1832,1.2086,1.2107,1.2309,1.2522,1.2622,1.2635,1.2562,1.2409,1.2329,1.2347,1.2463,1.2501,1.2501,1.2501,1.2501,1.2501,1.2501,1.2501,1.2474,1.2433,1.2427,1.2406,1.2352,1.2264,1.2254,1.2227,1.2111,1.1979,1.1959,1.1857,1.1828,1.2082,1.2028,1.2086,1.2302,1.2538,1.3024,1.3571,1.4202,1.4885,1.5684,1.6213,1.7025,1.8122,1.8752,1.9092,1.9362,1.9725,1.9934,2.0157,2.0475,2.0697,0.5798,0.5792,0.5793,0.5941,0.6225,0.6482,0.6696,0.6974,0.7179,0.7261,0.7261,0.7145,0.6821,0.6468,0.6354,0.556,0.4049,0.3333,0.3135,0.3373,0.3135,0.3135,0.3373,0.3414,0.3374,0.3454,0.3692,0.3969,0.4284,0.4389,0.4658,0.5012,0.5153,0.5844,0.6896,0.7131,0.7716,0.8735,0.8998,0.937,0.9967,0.996,1.0021,1.0167,0.955,0.9143,0.9113,0.9487,0.9782,0.9895,1.0144,1.0398,1.0624,1.0808,1.1028,1.1306,1.1353,1.1475,1.18,1.1962,1.2044,1.205,1.2415,1.2652,1.2693,1.2896,1.303,1.3064,1.3016,1.2948,1.282,1.2712,1.261,1.2528,1.2501,1.2501,1.2501,1.2501,1.2501,1.2501,1.2501,1.2501,1.2501,1.2501,1.2494,1.2501,1.2413,1.2359,1.2338,1.2237,1.2173,1.2159,1.1999,1.2109,1.2362,1.2459,1.2568,1.2754,1.3054,1.3583,1.4189,1.4866,1.5603,1.6423,1.7232,1.8013,1.8766,1.946,1.979,2.0014,2.0198,2.0413,2.0547,2.0666,2.0824,0.6769,0.6808,0.6727,0.6846,0.7,0.759,0.7884,0.8036,0.8644,0.8846,0.8724,0.8603,0.8122,0.7758,0.745,0.7191,0.6823,0.5851,0.5356,0.5307,0.5269,0.5269,0.5307,0.5304,0.5304,0.5304,0.5315,0.5315,0.5425,0.5697,0.6028,0.6416,0.6759,0.7558,0.8817,0.8915,0.9412,1.0381,1.0746,1.1035,1.1403,1.1101,1.0913,1.0884,1.0517,1.0227,1.017,1.0267,1.0322,1.0384,1.0429,1.064,1.119,1.1581,1.1922,1.2014,1.2092,1.2098,1.2175,1.2494,1.2647,1.2729,1.3087,1.3267,1.324,1.3247,1.3214,1.3159,1.3118,1.3016,1.3009,1.2989,1.2834,1.2569,1.2562,1.2562,1.2542,1.2522,1.2515,1.2535,1.2535,1.2508,1.2508,1.2508,1.2501,1.2501,1.2488,1.2474,1.2461,1.2359,1.2298,1.2302,1.2275,1.2403,1.2637,1.289,1.3092,1.3323,1.3642,1.4082,1.4759,1.5434,1.6249,1.7077,1.8051,1.8884,1.9473,2.0091,2.0254,2.0435,2.066,2.0812,2.0907,2.0993,2.0964,0.8571,0.8571,0.8571,0.8571,0.8566,0.8827,0.8939,0.8925,0.9199,0.9238,0.9197,0.9116,0.8952,0.8848,0.8733,0.8723,0.8686,0.8264,0.7749,0.7203,0.7107,0.7066,0.7107,0.7107,0.7063,0.7103,0.7103,0.7103,0.7103,0.7238,0.7589,0.8228,0.8447,0.9307,1.0685,1.0816,1.1293,1.2093,1.2058,1.1997,1.2084,1.1687,1.135,1.1039,1.0947,1.0807,1.0489,1.0411,1.0468,1.0538,1.0829,1.1207,1.1729,1.1966,1.2191,1.2471,1.2526,1.2692,1.2982,1.3065,1.3148,1.3189,1.3321,1.3403,1.3397,1.3356,1.3322,1.3322,1.3288,1.3227,1.3173,1.3146,1.3057,1.284,1.286,1.2839,1.2826,1.2807,1.282,1.2807,1.2725,1.2664,1.2637,1.2589,1.2515,1.2508,1.2508,1.2501,1.2488,1.2461,1.244,1.242,1.2533,1.2738,1.3034,1.3401,1.3722,1.4023,1.4366,1.4678,1.5301,1.6108,1.6921,1.7861,1.8854,1.9588,2.0176,2.0559,2.0758,2.0881,2.1029,2.115,2.1231,2.1227,2.1197,0.9464,0.9459,0.9421,0.9407,0.9407,0.9569,0.9657,0.9689,0.9791,0.9798,0.9839,0.9798,0.9715,0.9647,0.9628,0.9653,0.9699,0.982,0.9621,0.9175,0.8789,0.8789,0.8916,0.8957,0.8952,0.8952,0.8952,0.8957,0.8952,0.9119,0.9505,1.0114,1.0319,1.1057,1.2341,1.2462,1.2822,1.3349,1.3285,1.3111,1.2883,1.2565,1.2062,1.1504,1.1324,1.107,1.0659,1.0552,1.0629,1.0941,1.1447,1.1942,1.2312,1.2484,1.2692,1.2899,1.2982,1.3106,1.3362,1.3355,1.3397,1.3397,1.3397,1.3397,1.3397,1.3397,1.3397,1.3397,1.339,1.3363,1.3275,1.3261,1.3214,1.3139,1.305,1.3009,1.3003,1.3003,1.2996,1.2962,1.2868,1.2827,1.2786,1.2645,1.2557,1.2544,1.2535,1.2501,1.2501,1.2501,1.2501,1.261,1.2772,1.3054,1.3489,1.3868,1.4282,1.471,1.5097,1.5399,1.5861,1.6825,1.7696,1.8738,1.9761,2.0179,2.0719,2.1049,2.1276,2.1385,2.1388,2.1556,2.1618,2.1424,2.1323,0.9696,0.9634,0.9543,0.9542,0.9574,0.9945,1.0112,1.0195,1.0482,1.0601,1.0643,1.0549,1.0435,1.019,1.0112,1.0153,1.0237,1.0529,1.0981,1.1084,1.0746,1.0533,1.0812,1.0854,1.0854,1.0823,1.0829,1.084,1.0854,1.1141,1.1628,1.2024,1.2336,1.2983,1.3774,1.3905,1.4135,1.4486,1.4551,1.4327,1.3846,1.3514,1.2921,1.2086,1.1671,1.122,1.0757,1.0829,1.1048,1.1481,1.2175,1.2589,1.2816,1.3189,1.3321,1.3321,1.3397,1.3355,1.3397,1.3397,1.3397,1.3397,1.3397,1.3397,1.3397,1.3397,1.3397,1.3397,1.3397,1.3397,1.3383,1.3383,1.3376,1.3363,1.3214,1.3084,1.3037,1.305,1.3077,1.3057,1.303,1.3009,1.3003,1.282,1.2686,1.2645,1.2589,1.2515,1.2501,1.2501,1.2501,1.2681,1.2891,1.3269,1.3655,1.4182,1.4638,1.5237,1.5737,1.6176,1.6612,1.7561,1.8433,1.9483,2.0249,2.07,2.1057,2.1283,2.1564,2.1658,2.1789,2.1945,2.1897,2.1697,2.1489,1.0662,1.0535,1.0503,1.0441,1.0367,1.0487,1.0529,1.057,1.0654,1.0695,1.0695,1.0695,1.0654,1.057,1.0529,1.0737,1.0987,1.1153,1.1902,1.274,1.2692,1.2561,1.2685,1.2679,1.2685,1.2679,1.2679,1.2727,1.2679,1.284,1.3281,1.3947,1.4054,1.4694,1.5731,1.5829,1.5935,1.5984,1.573,1.5188,1.4489,1.4072,1.3321,1.2193,1.1944,1.1486,1.0904,1.1362,1.1778,1.1944,1.2401,1.2864,1.3161,1.3327,1.3417,1.3424,1.3417,1.3403,1.3403,1.3403,1.3403,1.3397,1.3397,1.3397,1.3397,1.3397,1.3397,1.3397,1.3397,1.3397,1.3397,1.3397,1.3397,1.339,1.3302,1.3261,1.3268,1.3281,1.3281,1.3316,1.322,1.3166,1.3111,1.2922,1.272,1.2686,1.2623,1.2501,1.2508,1.2501,1.2501,1.2733,1.2997,1.339,1.3837,1.4429,1.5028,1.5717,1.6313,1.6976,1.7554,1.8354,1.9143,1.997,2.0353,2.077,2.1012,2.1264,2.1533,2.1868,2.2133,2.2278,2.2151,2.1951,2.1703,1.1134,1.1058,1.096,1.0836,1.0808,1.0717,1.0695,1.0695,1.0695,1.0695,1.0695,1.0695,1.0695,1.0695,1.0695,1.0945,1.1403,1.1778,1.2484,1.3355,1.4101,1.4349,1.4341,1.4375,1.4499,1.4499,1.4499,1.4499,1.4541,1.4664,1.5085,1.5489,1.5752,1.6287,1.6845,1.6985,1.6903,1.6648,1.6369,1.5793,1.4754,1.4473,1.3521,1.2443,1.2069,1.1736,1.1195,1.1748,1.2178,1.2253,1.265,1.3133,1.345,1.3498,1.3484,1.3573,1.3545,1.3566,1.3505,1.3492,1.3464,1.3417,1.3397,1.3397,1.3397,1.3397,1.3397,1.3397,1.3397,1.3397,1.3397,1.3397,1.3397,1.3397,1.3397,1.3397,1.3397,1.339,1.3397,1.3376,1.3329,1.3268,1.3302,1.3051,1.2915,1.282,1.2705,1.2596,1.2522,1.2508,1.2617,1.2849,1.3197,1.3628,1.4053,1.4568,1.528,1.599,1.7179,1.7832,1.8487,1.918,1.9656,2.0226,2.0527,2.077,2.1012,2.1289,2.1734,2.2069,2.234,2.2471,2.2352,2.2191,2.1943,1.133,1.1297,1.1031,1.0933,1.0858,1.0749,1.0695,1.0695,1.0695,1.0695,1.0695,1.0695,1.0695,1.0695,1.082,1.1029,1.157,1.2359,1.3148,1.4183,1.5257,1.5999,1.5785,1.5908,1.5991,1.6032,1.6106,1.6065,1.6073,1.6443,1.6772,1.6944,1.7281,1.7527,1.7723,1.7682,1.7322,1.6903,1.6821,1.6032,1.4961,1.4589,1.3762,1.2318,1.1861,1.1736,1.1598,1.1957,1.2288,1.2243,1.3028,1.3449,1.3599,1.3605,1.366,1.3741,1.3747,1.3707,1.3626,1.3585,1.3566,1.3464,1.3417,1.3397,1.3397,1.3397,1.3397,1.3397,1.3397,1.3397,1.3397,1.3397,1.3397,1.3397,1.3397,1.3397,1.3397,1.3397,1.3397,1.3397,1.3397,1.3397,1.3363,1.3268,1.3152,1.2901,1.2773,1.2637,1.2588,1.2663,1.2772,1.3004,1.3428,1.3937,1.4322,1.4699,1.5497,1.6324,1.7836,1.8817,1.9428,1.9988,2.0227,2.0516,2.0643,2.0804,2.0977,2.1358,2.1829,2.216,2.239,2.2523,2.2539,2.2392,2.2164,1.1406,1.1303,1.1123,1.1009,1.0863,1.0749,1.0695,1.0695,1.0695,1.0695,1.0695,1.0695,1.0695,1.0695,1.107,1.1486,1.1986,1.2899,1.3976,1.5587,1.6903,1.7478,1.7355,1.7273,1.7108,1.7108,1.7108,1.7108,1.7191,1.7355,1.7609,1.8224,1.8337,1.8592,1.8827,1.8705,1.8296,1.7486,1.724,1.6328,1.5002,1.4672,1.3894,1.2253,1.1543,1.1379,1.1661,1.2143,1.2618,1.299,1.3409,1.3727,1.3747,1.3754,1.3781,1.3815,1.3822,1.3795,1.3747,1.3666,1.3578,1.3573,1.3471,1.3397,1.3397,1.3397,1.3397,1.3397,1.3397,1.3397,1.3397,1.3397,1.3397,1.3397,1.3397,1.3397,1.3397,1.3397,1.3397,1.3397,1.3397,1.3397,1.339,1.3281,1.3132,1.3023,1.2873,1.2678,1.2699,1.2817,1.3081,1.3312,1.3706,1.4207,1.4553,1.5006,1.5812,1.6721,1.817,1.9451,2.007,2.0493,2.0615,2.0671,2.0678,2.0804,2.0943,2.1358,2.1794,2.2104,2.2413,2.2574,2.2652,2.2518,2.2472,1.1406,1.1384,1.1177,1.1063,1.0982,1.0777,1.0695,1.0695,1.0695,1.0695,1.0695,1.0695,1.0695,1.0737,1.1195,1.1653,1.2318,1.348,1.4968,1.6451,1.7437,1.7896,1.8337,1.8337,1.8296,1.8296,1.8541,1.8582,1.8623,1.8582,1.8868,1.9285,1.9316,1.9398,1.952,1.9439,1.8705,1.7846,1.7445,1.6534,1.5002,1.4672,1.3901,1.2363,1.1396,1.1235,1.1985,1.2361,1.294,1.3484,1.3884,1.4014,1.396,1.3953,1.3937,1.4048,1.4055,1.4007,1.3946,1.3878,1.3783,1.3599,1.3546,1.3478,1.3424,1.3397,1.3397,1.3397,1.3397,1.3397,1.3397,1.3397,1.3397,1.3397,1.3397,1.3397,1.3397,1.3397,1.3397,1.3397,1.3397,1.3397,1.3363,1.3295,1.3193,1.3084,1.3295,1.3135,1.3035,1.3158,1.3513,1.3821,1.413,1.4476,1.4784,1.5352,1.6156,1.714,1.8298,1.9495,2.0371,2.064,2.0911,2.0863,2.0809,2.0712,2.0839,2.1289,2.1656,2.1932,2.2242,2.2585,2.2798,2.2712,2.2686,1.1379,1.1455,1.1194,1.1107,1.1063,1.0798,1.0695,1.0695,1.0695,1.0695,1.0695,1.0695,1.0695,1.082,1.132,1.1819,1.2858,1.4011,1.5669,1.7117,1.7486,1.8019,1.8551,1.8918,1.9113,1.9316,1.9601,1.9805,1.9845,2.0008,1.9764,2.0049,2.0089,2.0049,1.9967,1.9601,1.895,1.8051,1.756,1.6492,1.5002,1.4672,1.3839,1.236,1.1416,1.149,1.2238,1.2706,1.3141,1.4028,1.4231,1.4217,1.415,1.4116,1.4156,1.4285,1.4258,1.4204,1.4116,1.4055,1.3933,1.3639,1.3585,1.3546,1.3444,1.3397,1.3397,1.3397,1.3397,1.3397,1.3397,1.3397,1.3397,1.3397,1.3397,1.3397,1.3397,1.3397,1.3397,1.3397,1.3397,1.3397,1.3397,1.3356,1.3234,1.3198,1.3457,1.3576,1.3457,1.3513,1.3898,1.4168,1.4438,1.4592,1.4891,1.5505,1.6348,1.7255,1.8375,1.95,2.0466,2.0849,2.1052,2.1006,2.0942,2.0833,2.0806,2.1116,2.1415,2.1725,2.2104,2.2482,2.2722,2.2859,2.288,1.133,1.1291,1.1156,1.1107,1.1063,1.0798,1.0695,1.0695,1.0695,1.0695,1.0695,1.0695,1.0695,1.0904,1.1611,1.2775,1.3887,1.4886,1.5917,1.7199,1.756,1.8051,1.851,1.9,1.9235,1.9398,1.9764,2.0008,2.0049,2.0008,2.0292,2.0465,2.0506,2.0506,2.0424,2.0049,1.9194,1.8174,1.756,1.641,1.5126,1.439,1.3811,1.2283,1.1436,1.1678,1.2413,1.2847,1.3287,1.4133,1.4285,1.4278,1.4251,1.4245,1.4265,1.4285,1.4299,1.4272,1.4231,1.4136,1.4,1.3788,1.3666,1.3566,1.3451,1.3397,1.3397,1.3397,1.3397,1.3397,1.3397,1.3397,1.3397,1.3397,1.3397,1.3397,1.3397,1.3397,1.3397,1.3397,1.3397,1.3438,1.3528,1.3583,1.3575,1.3577,1.3785,1.3872,1.38,1.3967,1.4284,1.4515,1.4699,1.4814,1.4968,1.5659,1.6433,1.7226,1.8319,1.9542,2.0415,2.0997,2.1229,2.1222,2.1135,2.099,2.1021,2.1051,2.1323,2.1716,2.2082,2.2413,2.2654,2.2893,2.2893,1.1259,1.139,1.1177,1.1107,1.1058,1.0798,1.0695,1.0695,1.0695,1.0695,1.0695,1.0695,1.0695,1.0945,1.1694,1.2982,1.4142,1.4844,1.5669,1.6624,1.7108,1.756,1.8101,1.8673,1.8959,1.9204,1.9642,2.0089,2.0343,2.0576,2.0709,2.0911,2.0952,2.0952,2.079,2.0292,1.9388,1.8378,1.7437,1.6287,1.4713,1.3976,1.2878,1.2344,1.1632,1.1752,1.2583,1.2871,1.3363,1.4078,1.4299,1.4299,1.4299,1.4299,1.4299,1.4299,1.4299,1.4299,1.4299,1.4211,1.4095,1.3829,1.3727,1.3585,1.3471,1.3397,1.3397,1.3397,1.3397,1.3397,1.3397,1.3397,1.3397,1.3397,1.3397,1.3397,1.3397,1.3397,1.3397,1.3397,1.3397,1.3528,1.3818,1.3851,1.389,1.4006,1.4143,1.4134,1.4151,1.4353,1.4662,1.4737,1.4853,1.4891,1.5122,1.5744,1.6357,1.715,1.8177,1.9401,2.0323,2.09,2.1356,2.1571,2.1402,2.1268,2.1086,2.1082,2.1403,2.1672,2.1923,2.222,2.2619,2.2893,2.2893,1.1248,1.1444,1.1188,1.1107,1.1063,1.084,1.0695,1.0695,1.0695,1.0695,1.0695,1.0695,1.0695,1.0945,1.1694,1.2775,1.3942,1.439,1.5092,1.5834,1.6287,1.6698,1.7355,1.7887,1.8337,1.8664,1.9245,2.0008,2.0384,2.079,2.1073,2.1033,2.1114,2.1154,2.0952,2.0049,1.9357,1.8409,1.7232,1.5875,1.4383,1.2995,1.2161,1.2233,1.1532,1.1688,1.2744,1.2913,1.3407,1.4033,1.4299,1.4299,1.4299,1.4299,1.4299,1.4299,1.4299,1.4299,1.4299,1.4292,1.417,1.3939,1.3822,1.3653,1.3526,1.3437,1.3397,1.3397,1.3397,1.3397,1.3397,1.3397,1.3397,1.3397,1.3397,1.3397,1.3397,1.3397,1.3397,1.3397,1.3397,1.3611,1.3901,1.4045,1.4056,1.4438,1.4612,1.4629,1.4657,1.4781,1.4949,1.4954,1.4968,1.4968,1.5237,1.5744,1.628,1.6883,1.7949,1.9174,2.0043,2.08,2.1263,2.1738,2.1824,2.168,2.1401,2.1159,2.1377,2.1568,2.1698,2.2014,2.2448,2.2791,2.2893,1.1313,1.133,1.1156,1.1107,1.1069,1.084,1.0695,1.0695,1.0695,1.0695,1.0695,1.0695,1.0695,1.0945,1.1653,1.2567,1.3355,1.3942,1.4514,1.5216,1.5463,1.5958,1.6657,1.6821,1.7396,1.7887,1.85,1.9316,1.9845,2.0343,2.0668,2.0668,2.0668,2.0668,2.0465,1.9571,1.8592,1.7928,1.6739,1.5216,1.3728,1.2567,1.2095,1.1806,1.1506,1.1645,1.2656,1.2881,1.3369,1.4078,1.4299,1.4299,1.4299,1.4299,1.4299,1.4299,1.4299,1.4299,1.4299,1.4299,1.4231,1.4027,1.3876,1.3727,1.3587,1.3451,1.3397,1.3397,1.3397,1.3397,1.3397,1.3397,1.3397,1.3397,1.3397,1.3397,1.3397,1.3397,1.3397,1.3397,1.3397,1.3735,1.4025,1.4128,1.4305,1.472,1.5037,1.5098,1.509,1.5127,1.509,1.5039,1.5006,1.5006,1.5237,1.5744,1.6203,1.6692,1.7835,1.8984,1.9844,2.071,2.1435,2.1841,2.1979,2.1994,2.1704,2.1497,2.1432,2.153,2.1754,2.1987,2.2276,2.2551,2.2859,1.1902,1.1406,1.1177,1.1107,1.1074,1.0798,1.0695,1.0695,1.0695,1.0695,1.0695,1.0695,1.082,1.1153,1.157,1.2027,1.265,1.3113,1.3652,1.4266,1.4555,1.4961,1.5497,1.5875,1.6328,1.6862,1.7355,1.7805,1.8664,1.9642,2.0252,2.0211,2.0221,2.0089,1.9764,1.9082,1.8183,1.7067,1.5546,1.4059,1.3065,1.2212,1.1735,1.1773,1.136,1.1717,1.2323,1.2831,1.3192,1.3856,1.4122,1.4299,1.4299,1.4299,1.4299,1.4299,1.4299,1.4299,1.4299,1.4299,1.4217,1.4082,1.3919,1.3693,1.3559,1.3451,1.3397,1.3397,1.3397,1.3397,1.3397,1.3397,1.3397,1.3397,1.3397,1.3397,1.3397,1.3397,1.3397,1.3397,1.3438,1.3776,1.4108,1.4341,1.4657,1.5262,1.5479,1.5457,1.5393,1.5279,1.5179,1.5023,1.5006,1.5006,1.5275,1.5667,1.605,1.6624,1.7769,1.8871,1.9768,2.0597,2.136,2.1934,2.2161,2.2091,2.1921,2.1801,2.163,2.1742,2.1833,2.208,2.2311,2.2619,2.2859,1.2387,1.1655,1.1373,1.123,1.1079,1.0798,1.0695,1.0695,1.0695,1.0695,1.0695,1.0737,1.0904,1.1195,1.1362,1.1653,1.1986,1.2359,1.2733,1.3106,1.3438,1.3804,1.4217,1.4638,1.5175,1.5669,1.6369,1.6903,1.76,1.846,1.9276,1.951,1.9357,1.9184,1.8745,1.8051,1.715,1.5661,1.4183,1.3065,1.2318,1.1778,1.1553,1.1453,1.1382,1.1427,1.2125,1.2654,1.3147,1.3591,1.4078,1.4299,1.4299,1.4299,1.4299,1.4299,1.4299,1.4299,1.4299,1.4292,1.4238,1.4116,1.3926,1.368,1.3464,1.3397,1.3397,1.3397,1.3397,1.3397,1.3397,1.3397,1.3397,1.3397,1.3397,1.3397,1.3397,1.3397,1.3397,1.3397,1.3521,1.3776,1.4142,1.4514,1.5043,1.5736,1.5943,1.5837,1.565,1.5455,1.5268,1.5065,1.5015,1.5015,1.5198,1.5544,1.5935,1.6624,1.7769,1.8795,1.973,2.056,2.136,2.1822,2.2271,2.2248,2.2103,2.1994,2.1873,2.1907,2.1957,2.2116,2.2345,2.2677,2.2859,1.2609,1.2098,1.1851,1.1489,1.1042,1.0798,1.0695,1.057,1.0654,1.0612,1.0654,1.0737,1.0737,1.0862,1.1153,1.1362,1.1445,1.1944,1.211,1.2193,1.2276,1.2609,1.3024,1.3521,1.4018,1.4803,1.5381,1.604,1.6698,1.7067,1.7764,1.8092,1.8123,1.7837,1.7223,1.6402,1.5422,1.4142,1.2982,1.2318,1.1778,1.1426,1.1325,1.1218,1.1204,1.1471,1.2187,1.2609,1.3008,1.3502,1.3945,1.4255,1.4299,1.4299,1.4299,1.4299,1.4299,1.4299,1.4299,1.4299,1.4285,1.4197,1.4021,1.3749,1.3485,1.3417,1.3403,1.3403,1.3397,1.3397,1.3397,1.3397,1.3397,1.3397,1.3397,1.3397,1.3397,1.3397,1.3397,1.3397,1.3521,1.3769,1.4142,1.4473,1.4968,1.5661,1.5983,1.5918,1.5707,1.5512,1.5302,1.5171,1.5033,1.5023,1.5083,1.5467,1.6089,1.6777,1.7693,1.8757,1.9768,2.0571,2.1372,2.1897,2.2308,2.2308,2.2284,2.2152,2.2019,2.1971,2.2051,2.2271,2.2467,2.2712,2.2852,1.3318,1.263,1.2322,1.1612,1.0649,1.0419,1.0153,0.9945,0.9903,1.007,1.0362,1.057,1.0695,1.0779,1.082,1.0945,1.0987,1.1112,1.1403,1.157,1.1694,1.1944,1.2276,1.2609,1.3065,1.3769,1.4307,1.4803,1.5414,1.5744,1.5538,1.5867,1.6525,1.6402,1.5703,1.4465,1.3438,1.2941,1.2069,1.1362,1.1486,1.1081,1.1025,1.1117,1.1107,1.1313,1.1765,1.2204,1.2698,1.3141,1.3635,1.3945,1.4255,1.4299,1.4299,1.4299,1.4299,1.4299,1.4299,1.4292,1.4265,1.4156,1.4027,1.3858,1.3573,1.3539,1.3478,1.3444,1.3403,1.3397,1.3397,1.3397,1.3397,1.3397,1.3397,1.3397,1.3397,1.3397,1.3397,1.3397,1.348,1.3604,1.4018,1.4473,1.4968,1.5505,1.5785,1.5942,1.5788,1.5601,1.5439,1.5221,1.5122,1.5031,1.5053,1.5629,1.628,1.6968,1.7693,1.8785,1.9844,2.0571,2.1297,2.1897,2.2308,2.2308,2.2272,2.2212,2.2128,2.2044,2.221,2.2512,2.2675,2.2759,2.2844,1.3635,1.2889,1.2452,1.1564,1.0457,1.0167,0.9824,0.9444,0.9449,0.9653,1.0117,1.0404,1.0612,1.0695,1.0737,1.0737,1.0737,1.082,1.0945,1.107,1.1237,1.1403,1.1611,1.1902,1.2235,1.2775,1.3189,1.3645,1.4093,1.4217,1.4052,1.4135,1.4548,1.4424,1.3845,1.2443,1.1653,1.157,1.1195,1.0654,1.0904,1.0873,1.0857,1.1058,1.1101,1.1226,1.161,1.2032,1.2343,1.2787,1.323,1.3723,1.4033,1.421,1.4299,1.4299,1.4292,1.4292,1.4299,1.4285,1.4231,1.4159,1.4125,1.3926,1.377,1.3619,1.3524,1.3498,1.3444,1.3397,1.3397,1.3397,1.3397,1.3397,1.3397,1.3397,1.3397,1.3397,1.3397,1.3397,1.348,1.3521,1.3852,1.4307,1.5051,1.5505,1.5834,1.5975,1.5885,1.574,1.5553,1.5374,1.5164,1.5082,1.5053,1.5705,1.6318,1.6921,1.7759,1.8974,1.9957,2.0646,2.1372,2.2009,2.2308,2.2308,2.2284,2.2248,2.2163,2.2079,2.2333,2.2634,2.2758,2.2831,2.2852,1.3318,1.2845,1.2105,1.1262,1.0366,1.0162,0.9741,0.9235,0.9281,0.9574,0.9991,1.0153,1.0362,1.0654,1.0695,1.0695,1.0695,1.0695,1.0779,1.082,1.0862,1.082,1.0945,1.1237,1.157,1.1653,1.2193,1.2692,1.2816,1.3141,1.2851,1.2146,1.2146,1.2187,1.1986,1.082,1.0195,1.0153,1.007,1.0153,1.032,1.057,1.0825,1.1009,1.1069,1.1183,1.1461,1.1781,1.204,1.2355,1.2934,1.3381,1.3645,1.3967,1.415,1.4245,1.4251,1.4265,1.4285,1.4292,1.4231,1.4136,1.4122,1.4021,1.3815,1.3693,1.3592,1.3573,1.3478,1.341,1.3397,1.3397,1.3397,1.3397,1.3397,1.3397,1.3397,1.3397,1.3397,1.3397,1.3397,1.3438,1.3728,1.4183,1.501,1.5546,1.5883,1.5983,1.5942,1.5837,1.5642,1.5455,1.5229,1.5114,1.5163,1.5791,1.6395,1.6959,1.7835,1.905,2.0032,2.0759,2.1435,2.2109,2.2308,2.2308,2.2296,2.2284,2.2336,2.2387,2.2503,2.2721,2.2819,2.2893,2.2893,1.2741,1.2278,1.1853,1.0982,0.9891,0.9375,0.8775,0.8232,0.8441,0.8942,0.9611,0.995,1.032,1.0612,1.0695,1.0695,1.0695,1.0695,1.0695,1.0695,1.0695,1.0737,1.0779,1.0904,1.1112,1.1403,1.1778,1.1819,1.1861,1.1979,1.1309,1.0518,0.9689,0.9522,0.9815,0.9356,0.8859,0.9188,0.9444,0.9783,1.0112,1.0456,1.0771,1.0939,1.0992,1.1079,1.1232,1.1515,1.1646,1.1908,1.2475,1.273,1.3159,1.355,1.371,1.3877,1.3964,1.4048,1.4143,1.4217,1.4278,1.4231,1.4197,1.4136,1.4007,1.3858,1.3749,1.3627,1.3512,1.3437,1.3397,1.3397,1.3397,1.3397,1.3397,1.3397,1.3397,1.3397,1.3397,1.3397,1.3397,1.3569,1.3811,1.4101,1.4844,1.5381,1.5669,1.5925,1.5975,1.5869,1.5691,1.5512,1.5294,1.5163,1.5273,1.5808,1.6424,1.7026,1.7987,1.9174,2.0043,2.0797,2.1473,2.2109,2.2221,2.2308,2.2334,2.2421,2.2645,2.2803,2.2951,2.3002,2.3042,2.3006,2.2893,1.2216,1.1926,1.1516,1.071,0.963,0.9109,0.8436,0.7771,0.7813,0.8357,0.9114,0.9657,1.007,1.0404,1.0654,1.0695,1.0695,1.0695,1.0695,1.0695,1.0695,1.0695,1.0695,1.0695,1.0779,1.0987,1.0945,1.0904,1.0654,1.0529,0.9689,0.8474,0.7349,0.7394,0.7684,0.7646,0.7855,0.8227,0.865,0.924,0.9736,1.021,1.0629,1.0805,1.0944,1.0992,1.1074,1.1144,1.1225,1.1526,1.1784,1.2042,1.2595,1.3066,1.3281,1.3538,1.3826,1.393,1.4089,1.4224,1.4278,1.4285,1.4299,1.4251,1.4143,1.4014,1.3858,1.3722,1.3566,1.3471,1.3424,1.3417,1.341,1.341,1.3397,1.3397,1.3397,1.3397,1.3397,1.3397,1.3438,1.3652,1.3859,1.4183,1.4597,1.5051,1.5505,1.576,1.5966,1.5877,1.5748,1.5545,1.5359,1.5236,1.5361,1.5761,1.6386,1.7064,1.8092,1.9174,2.0081,2.0861,2.151,2.2072,2.2184,2.2334,2.2446,2.2583,2.2905,2.3173,2.3406,2.3428,2.3302,2.3207,2.3033,1.1784,1.1681,1.1135,1.0403,0.9667,0.9361,0.8775,0.8018,0.7604,0.7939,0.878,0.9281,0.9783,1.0195,1.0529,1.0695,1.0695,1.0695,1.0695,1.0695,1.0695,1.0695,1.0695,1.0654,1.0487,1.0237,1.0112,0.9945,0.9402,0.8687,0.7809,0.6846,0.5969,0.5759,0.5885,0.6221,0.6724,0.7265,0.806,0.865,0.9193,0.9783,1.0247,1.0562,1.072,1.0853,1.0955,1.1036,1.1041,1.1224,1.1449,1.1675,1.2068,1.2668,1.2968,1.335,1.3737,1.3971,1.4132,1.4217,1.4285,1.4299,1.4299,1.4292,1.4245,1.4122,1.398,1.3851,1.3715,1.3566,1.3464,1.3444,1.3424,1.3417,1.3403,1.3397,1.3397,1.3397,1.3397,1.3397,1.3397,1.3528,1.3611,1.3901,1.4431,1.4844,1.5298,1.5669,1.5883,1.6007,1.5804,1.5569,1.5431,1.5317,1.5482,1.5778,1.6271,1.695,1.7987,1.9022,1.9957,2.0861,2.1473,2.196,2.2184,2.2334,2.2408,2.2744,2.324,2.3507,2.3695,2.3786,2.3692,2.3487,2.33,1.1141,1.113,1.0882,1.0456,0.9822,0.8914,0.8106,0.7604,0.7436,0.8068,0.9198,0.9323,0.982,1.0529,1.0654,1.0695,1.069,1.0695,1.0695,1.0695,1.0695,1.0695,1.0612,1.0404,1.0237,0.9986,0.9694,0.9151,0.8273,0.7269,0.6389,0.5717,0.492,0.4542,0.4539,0.4665,0.5505,0.6427,0.7307,0.8064,0.8608,0.9193,0.9771,1.021,1.0346,1.0467,1.0651,1.0788,1.0783,1.0862,1.0935,1.114,1.1555,1.1855,1.2077,1.3059,1.3518,1.3946,1.4068,1.4211,1.4299,1.4299,1.4299,1.4299,1.4258,1.4177,1.4105,1.3953,1.3788,1.3632,1.3511,1.3505,1.3458,1.3417,1.3403,1.3397,1.3397,1.3397,1.3397,1.3397,1.3397,1.3397,1.3486,1.3818,1.4356,1.4679,1.5092,1.5546,1.5834,1.5925,1.5894,1.565,1.5472,1.5366,1.5435,1.5676,1.6203,1.6844,1.7835,1.8909,1.9957,2.0785,2.1435,2.1897,2.2234,2.2308,2.2308,2.2781,2.3364,2.3661,2.384,2.3997,2.4062,2.3821,2.3554,1.0846,1.0798,1.0728,1.0487,0.9986,0.9068,0.8441,0.8148,0.7855,0.8273,0.9114,0.9527,0.9966,1.0299,1.058,1.071,1.0661,1.0715,1.0695,1.0695,1.0695,1.057,1.0404,1.0153,0.9866,0.9569,0.9026,0.8353,0.7349,0.6053,0.5088,0.4542,0.3954,0.3868,0.3826,0.3954,0.433,0.5295,0.6301,0.7311,0.8022,0.8608,0.9151,0.9653,0.9778,0.9986,1.0195,1.0278,1.0445,1.0529,1.057,1.082,1.1218,1.1372,1.1753,1.2652,1.3294,1.3621,1.382,1.4129,1.4234,1.4299,1.4299,1.4299,1.4285,1.4224,1.4143,1.4048,1.3912,1.3734,1.3626,1.3524,1.3485,1.341,1.3403,1.3397,1.3397,1.3397,1.3397,1.3397,1.3397,1.3397,1.3569,1.3901,1.4273,1.4679,1.5092,1.5546,1.5801,1.5966,1.5894,1.5715,1.5553,1.5423,1.5515,1.5586,1.605,1.6653,1.7569,1.8633,1.9844,2.0785,2.1435,2.1885,2.2271,2.2308,2.2308,2.2893,2.3438,2.3661,2.397,2.4232,2.4266,2.4128,2.3861,1.0695,1.0701,1.0737,1.0612,1.0195,0.9694,0.9486,0.9407,0.865,0.8524,0.9031,0.9684,1.0035,1.0236,1.0469,1.0628,1.0617,1.0661,1.0627,1.0648,1.057,1.0404,1.007,0.9945,0.9365,0.8775,0.819,0.7646,0.6469,0.5253,0.4164,0.3449,0.3365,0.3323,0.3323,0.3323,0.3659,0.4248,0.5046,0.5927,0.7269,0.798,0.8357,0.9026,0.9235,0.9318,0.9444,0.9736,1.0075,1.0195,1.0362,1.0612,1.0922,1.1308,1.1788,1.2246,1.2934,1.3339,1.3598,1.3929,1.419,1.4255,1.4299,1.4299,1.4285,1.4272,1.4204,1.4136,1.4007,1.3815,1.37,1.3565,1.3505,1.3431,1.3403,1.3397,1.3397,1.3397,1.3397,1.3397,1.3397,1.3438,1.3694,1.4025,1.4397,1.4721,1.5092,1.5546,1.5842,1.6007,1.5975,1.5853,1.5601,1.5439,1.5409,1.5546,1.5838,1.6501,1.7416,1.8481,1.972,2.0635,2.1473,2.1885,2.2308,2.2308,2.2408,2.293,2.329,2.3513,2.3859,2.4377,2.4479,2.4356,2.4155,1.0695,1.0737,1.1112,1.1153,1.1029,1.057,1.0404,1.032,0.9861,0.9689,0.9805,0.99,1.0133,1.0388,1.0422,1.0538,1.0604,1.0513,1.0449,1.0336,1.0278,0.9986,0.9527,0.9235,0.8775,0.8273,0.7687,0.6808,0.5591,0.4458,0.3659,0.3365,0.3155,0.2945,0.2945,0.2945,0.3155,0.3533,0.3954,0.4754,0.5885,0.6766,0.7314,0.7855,0.8106,0.8524,0.8775,0.9277,0.9736,1.007,1.0153,1.0451,1.0873,1.1329,1.1698,1.207,1.255,1.3029,1.3412,1.3735,1.3982,1.421,1.4299,1.4299,1.4299,1.4299,1.4265,1.4197,1.4089,1.3889,1.3747,1.3605,1.3519,1.3451,1.3397,1.3397,1.3397,1.3397,1.3397,1.3397,1.3397,1.3611,1.3859,1.419,1.4514,1.4886,1.5175,1.5546,1.5917,1.6163,1.6221,1.6064,1.5666,1.5487,1.5442,1.5541,1.5855,1.6548,1.7464,1.8519,1.9682,2.0823,2.1885,2.2084,2.2308,2.2308,2.2408,2.2707,2.3042,2.3377,2.3785,2.4267,2.4525,2.4466,2.4356,1.082,1.107,1.1528,1.1736,1.1653,1.1445,1.132,1.1278,1.107,1.0954,1.0738,1.0461,1.0326,1.0528,1.0451,1.0405,1.0487,1.0331,1.0262,1.0086,0.982,0.9486,0.9068,0.865,0.8232,0.7729,0.6598,0.5549,0.4584,0.3743,0.3071,0.3071,0.2777,0.2692,0.2692,0.2734,0.2819,0.3071,0.3281,0.3828,0.467,0.534,0.6179,0.6682,0.7101,0.7474,0.7939,0.8399,0.8901,0.9444,0.9736,1.0388,1.081,1.1189,1.1435,1.1743,1.2196,1.2708,1.316,1.3502,1.3812,1.4122,1.4292,1.4292,1.4183,1.4183,1.4245,1.417,1.4007,1.3808,1.372,1.3599,1.3505,1.3417,1.3403,1.3397,1.3397,1.3397,1.3397,1.3397,1.3528,1.3818,1.4149,1.4638,1.501,1.5505,1.5752,1.6163,1.641,1.6616,1.6548,1.6422,1.614,1.5688,1.5454,1.5593,1.5838,1.6624,1.754,1.886,2.0108,2.136,2.2308,2.2308,2.2308,2.2308,2.2446,2.2669,2.2968,2.3327,2.3748,2.4119,2.4341,2.4562,2.4479,1.107,1.1528,1.2069,1.2276,1.2276,1.2359,1.2318,1.2235,1.2175,1.1977,1.1622,1.0968,1.0652,1.0475,1.0346,1.0362,1.0319,1.0267,1.0138,0.9836,0.9611,0.9151,0.8692,0.819,0.7604,0.6682,0.5549,0.4584,0.3617,0.3029,0.2777,0.2692,0.2692,0.2692,0.2692,0.2692,0.2777,0.2861,0.3029,0.3239,0.3701,0.4122,0.5004,0.5591,0.5927,0.6137,0.6682,0.7269,0.7767,0.865,0.9449,1.0225,1.0747,1.1105,1.1226,1.1477,1.1814,1.2352,1.2875,1.328,1.3723,1.4115,1.4241,1.4217,1.4095,1.4075,1.4136,1.4068,1.3862,1.3754,1.3673,1.3572,1.3478,1.3403,1.3403,1.3397,1.3397,1.3397,1.3438,1.3438,1.3735,1.4066,1.4604,1.5092,1.5546,1.604,1.6534,1.6985,1.7314,1.7478,1.7524,1.7251,1.6928,1.6415,1.5854,1.5908,1.6203,1.6777,1.7769,1.9163,2.0496,2.1585,2.2271,2.2308,2.2308,2.2308,2.2383,2.252,2.2893,2.3215,2.3562,2.3896,2.4267,2.4451,2.4562,1.1528,1.2027,1.2816,1.3148,1.3196,1.3514,1.3521,1.3087,1.2604,1.2172,1.18,1.1462,1.1082,1.0708,1.0246,1.0172,1.0362,1.0219,0.9871,0.9545,0.9397,0.8901,0.8315,0.7813,0.685,0.5759,0.4752,0.3994,0.3323,0.2903,0.2692,0.2734,0.2734,0.2734,0.2734,0.2777,0.2819,0.2903,0.2861,0.2987,0.3113,0.3574,0.4036,0.4497,0.4794,0.5172,0.5678,0.6179,0.7097,0.8144,0.9286,1.0183,1.0694,1.0977,1.1128,1.127,1.1571,1.2096,1.2593,1.2947,1.3419,1.4129,1.4183,1.4095,1.3994,1.3919,1.3933,1.3878,1.3714,1.366,1.3572,1.3477,1.3403,1.3403,1.3397,1.3397,1.3397,1.3445,1.3486,1.3694,1.3983,1.4521,1.5133,1.5628,1.6122,1.6657,1.7314,1.7764,1.8092,1.8255,1.846,1.8151,1.7805,1.7239,1.6726,1.6596,1.6844,1.7312,1.8035,1.9504,2.0759,2.166,2.2147,2.2271,2.2308,2.2308,2.2383,2.2458,2.2669,2.2968,2.3265,2.36,2.4007,2.4304,2.4451]},{"header":{"parameterUnit":"m.s-1","parameterCategory":1,"la1":31.0,"la2":29.5877,"lo1":-88.7671,"lo2":-86.6584,"dy":0.0162,"dx":0.0185,"nx":115,"ny":88,"refTime":"2024-08-25T12:00:00:Z","depth":0,"parameterNumber":3,"parameterNumberName":"V-component_of_WINDS"},"data":[0.0,0.0,0.0,0.0,0.0,0.0,0.0,0.0,0.0,0.0,0.0,0.0,0.0,0.0,0.0,0.0,0.0,0.0,0.0,0.0,0.0,0.0,0.0,0.0,0.0,0.0,0.0,0.0,0.0,0.0,0.0,0.0,0.0,0.0,0.0,0.0,0.0,0.0,0.0,0.0,0.0,0.0,0.0,0.0,0.0,0.0,0.0,0.0,0.0,0.0,0.0,0.0,0.0,0.0,0.0,0.0,0.0,0.0,0.0,0.0,0.0,0.0,0.0,0.0,0.0,0.0,0.0,0.0,0.0,0.0,0.0,0.0,0.0,0.0,0.0,0.0,0.0,0.0,0.0,0.0,0.0,0.0,0.0,0.0,0.0,0.0,0.0,0.0,0.0,0.0,0.0,0.0,0.0,0.0,0.0,0.0,0.0,0.0,0.0,0.0,0.0,0.0,0.0,0.0,0.0,0.0,0.0,0.0,0.0,0.0,0.0,0.0,0.0,0.0,0.0,0.0,0.0,0.0,0.0,0.0,0.0,0.0,0.0,0.0,0.0,0.0,0.0,0.0,0.0,0.0,0.0,0.0,0.0,0.0,0.0,0.0,0.0,0.0,0.0,0.0,0.0,0.0,0.0,0.0,0.0,0.0,0.0,0.0,0.0,0.0,0.0,0.0,0.0,0.0,0.0,0.0,0.0,0.0,0.0,0.0,0.0,0.0,0.0,0.0,0.0,0.0,0.0,0.0,0.0,0.0,0.0,0.0,0.0,0.0,0.0,0.0,0.0,0.0,0.0,0.0,0.0,0.0,0.0,0.0,0.0,0.0,0.0,0.0,0.0,0.0,0.0,0.0,0.0,0.0,0.0,0.0,0.0,0.0,0.0,0.0,0.0,0.0,0.0,0.0,0.0,0.0,0.0,0.0,0.0,0.0,0.0,0.0,0.0,0.0,0.0,0.0,0.0,0.0,0.0,0.0,0.0,0.0,0.0,0.0,0.0,0.0,0.0,0.0,0.0,0.0,0.0,0.0,0.0,0.0,0.0,0.0,0.0,0.0,0.0,0.0,0.0,0.0,0.0,0.0,0.0,0.0,0.0,0.0,0.0,0.0,0.0,0.0,0.0,0.0,0.0,0.0,0.0,0.0,0.0,0.0,0.0,0.0,0.0,0.0,0.0,0.0,0.0,0.0,0.0,0.0,0.0,0.0,0.0,0.0,0.0,0.0,0.0,0.0,0.0,0.0,0.0,0.0,0.0,0.0,0.0,0.0,0.0,0.0,0.0,0.0,0.0,0.0,0.0,0.0,0.0,0.0,0.0,0.0,0.0,0.0,0.0,0.0,0.0,0.0,0.0,0.0,0.0,0.0,0.0,0.0,0.0,0.0,0.0,0.0,0.0,0.0,0.0,0.0,0.0,0.0,0.0,0.0,0.0,0.0,0.0,0.0,0.0,0.0,0.0,0.0,0.0,0.0,0.0,0.0,0.0,0.0,0.0,0.0,0.0,0.0,0.0,0.0,0.0,0.0,0.0,0.0,0.0,0.0,0.0,0.0,0.0,0.0,0.0,0.0,0.0,0.0,0.0,0.0,0.0,0.0,0.0,0.0,0.0,0.0,0.0,0.0,0.0,0.0,0.0,0.0,0.0,0.0,0.0,0.0,0.0,0.0,0.0,0.0,0.0,0.0,0.0,0.0,0.0,0.0,0.0,0.0,0.0,0.0,0.0,0.0,0.0,0.0,0.0,0.0,0.0,0.0,0.0,0.0,0.0,0.0,0.0,0.0,0.0,0.0,0.0,0.0,0.0,0.0,0.0,0.0,0.0,0.0,0.0,0.0,0.0,0.0,0.0,0.0,0.0,0.0,0.0,0.0,0.0,0.0,0.0,0.0,0.0,0.0,0.0,0.0,0.0,0.0,0.0,0.0,0.0,0.0,0.0,0.0,0.0,0.0,0.0,0.0,0.0,0.0,0.0,0.0,0.0,0.0,0.0,0.0,0.0,0.0,0.0,0.0,0.0,0.0,0.0,0.0,0.0,0.0,0.0,0.0,0.0,0.0,0.0,0.0,0.0,0.0,0.0,0.0,0.0,0.0,0.0,0.0,0.0,0.0,0.0,0.0,0.0,0.0,0.0,0.0,0.0,0.0,0.0,0.0,0.0,0.0,0.0,0.0,0.0,0.0,0.0,0.0,0.0,0.0,0.0,0.0,0.0,0.0,0.0,0.0,0.0,0.0,0.0,0.0,0.0,0.0,0.0,0.0,0.0,0.0,0.0,0.0,0.0,0.0,0.0,0.0,0.0,0.0,0.0,0.0,0.0,0.0,0.0,0.0,0.0,0.0,0.0,0.0,0.0,0.0,0.0,0.0,0.0,0.0,0.0,0.0,0.0,0.0,0.0,0.0,0.0,0.0,0.0,0.0,0.0,0.0,0.0,0.0,0.0,0.0,0.0,0.0,0.0,0.0,0.0,0.0,0.0,0.0,0.0,0.0,0.0,0.0,0.0,0.0,0.0,0.0,0.0,0.0,0.0,0.0,0.0,0.0,0.0,0.0,0.0,0.0,0.0,0.0,0.0,0.0,0.0,0.0,0.0,0.0,0.0,0.0,0.0,0.0,0.0,0.0,0.0,0.0,0.0,0.0,0.0,0.0,0.0,0.0,0.0,0.0,0.0,0.0,0.0,0.0,0.0,0.0,0.0,0.0,0.0,0.0,0.0,0.0,0.0,0.0,0.0,0.0,0.0,0.0,0.0,0.0,0.0,0.0,0.0,0.0,0.0,0.0,0.0,0.0,0.0,0.0,0.0,0.0,0.0,0.0,0.0,0.0,0.0,0.0,0.0,0.0,0.0,0.0,0.0,0.0,0.0,0.0,0.0,0.0,0.0,0.0,0.0,0.0,0.0,0.0,0.0,0.0,0.0,0.0,0.0,0.0,0.0,0.0,0.0,0.0,0.0,0.0,0.0,0.0,0.0,0.0,0.0,0.0,0.0,0.0,0.0,0.0,0.0,0.0,0.0,0.0,0.0,0.0,0.0,0.0,0.0,0.0,0.0,0.0,0.0,0.0,0.0,0.0,0.0,0.0,0.0,0.0,0.0,0.0,0.0,0.0,0.0,0.0,0.0,0.0,0.0,0.0,0.0,0.0,0.0,0.0,0.0,0.0,0.0,0.0,0.0,0.0,0.0,0.0,0.0,0.0,0.0,0.0,0.0,0.0,0.0,0.0,0.0,0.0,0.0,0.0,0.0,0.0,0.0,0.0,0.0,0.0,0.0,0.0,0.0,0.0,0.0,0.0,0.0,0.0,0.0,0.0,0.0,0.0,0.0,0.0,0.0,0.0,0.0,0.0,0.0,0.0,0.0,0.0,0.0,0.0,0.0,0.0,0.0,0.0,0.0,0.0,0.0,0.0,0.0,0.0,0.0,0.0,0.0,0.0,0.0,0.0,0.0,0.0,0.0,0.0,0.0,0.0,0.0,0.0,0.0,0.0,0.0,0.0,0.0,0.0,0.0,0.0,0.0,0.0,0.0,0.0,0.0,0.0,0.0,0.0,0.0,0.0,0.0,0.0,0.0,0.0,0.0,0.0,0.0,0.0,0.0,0.0,0.0,0.0,0.0,0.0,0.0,0.0,0.0,0.0,0.0,0.0,0.0,0.0,0.0,0.0,0.0,0.0,0.0,0.0,0.0,0.0,0.0,0.0,0.0,0.0,0.0,0.0,0.0,0.0,0.0,0.0,0.0,0.0,0.0,0.0,0.0,0.0,0.0,0.0,0.0,0.0,0.0,0.0,0.0,0.0,0.0,0.0,0.0,0.0,0.0,0.0,0.0,0.0,0.0,0.0,0.0,0.0,0.0,0.0,0.0,0.0,0.0,0.0,0.0,0.0,0.0,0.0,0.0,0.0,0.0,0.0,0.0,0.0,0.0,0.0,0.0,0.0,0.0,0.0,0.0,0.0,0.0,0.0,0.0,0.0,0.0,0.0,0.0,0.0,0.0,0.0,0.0,0.0,0.0,0.0,0.0,0.0,0.0,0.0,0.0,0.0,0.0,0.0,0.0,0.0,0.0,0.0,0.0,0.0,0.0,0.0,0.0,0.0,0.0,0.0,0.0,0.0,0.0,0.0,0.0,0.0,0.0,0.0,0.0,0.0,0.0,0.0,0.0,0.0,0.0,0.0,0.0,0.0,0.0,0.0,0.0,0.0,0.0,0.0,0.0,0.0,0.0,0.0,0.0,0.0,0.0,0.0,0.0,0.0,0.0,0.0,0.0,0.0,4.1293,0.0,0.0,0.0,0.0,0.0,0.0,0.0,0.0,0.0,0.0,0.0,0.0,0.0,0.0,0.0,0.0,0.0,0.0,0.0,0.0,0.0,0.0,0.0,0.0,0.0,0.0,0.0,0.0,0.0,0.0,0.0,0.0,0.0,0.0,0.0,0.0,0.0,0.0,0.0,0.0,0.0,0.0,0.0,0.0,0.0,0.0,0.0,0.0,0.0,0.0,0.0,0.0,0.0,0.0,0.0,0.0,0.0,0.0,0.0,0.0,0.0,0.0,0.0,0.0,0.0,0.0,0.0,0.0,0.0,0.0,0.0,0.0,0.0,0.0,0.0,0.0,0.0,0.0,0.0,0.0,0.0,0.0,0.0,0.0,0.0,0.0,0.0,0.0,0.0,0.0,0.0,0.0,0.0,0.0,0.0,0.0,0.0,0.0,0.0,0.0,0.0,0.0,0.0,0.0,0.0,0.0,0.0,0.0,0.0,0.0,4.3977,4.39,4.3444,4.2835,4.2026,0.0,0.0,0.0,0.0,0.0,0.0,0.0,0.0,0.0,0.0,0.0,0.0,0.0,0.0,0.0,0.0,0.0,0.0,0.0,0.0,0.0,0.0,0.0,0.0,0.0,0.0,0.0,0.0,0.0,0.0,0.0,0.0,0.0,0.0,0.0,0.0,0.0,0.0,0.0,0.0,0.0,0.0,0.0,0.0,0.0,0.0,0.0,0.0,0.0,0.0,0.0,0.0,0.0,0.0,0.0,0.0,0.0,0.0,0.0,0.0,0.0,0.0,0.0,0.0,0.0,0.0,0.0,0.0,0.0,0.0,0.0,0.0,0.0,0.0,0.0,0.0,0.0,0.0,0.0,0.0,0.0,0.0,0.0,0.0,0.0,0.0,0.0,0.0,0.0,0.0,0.0,0.0,0.0,0.0,0.0,0.0,0.0,0.0,0.0,0.0,0.0,0.0,0.0,0.0,0.0,0.0,0.0,0.0,0.0,0.0,0.0,0.0,4.4607,4.3751,4.2675,0.0,0.0,0.0,0.0,0.0,0.0,0.0,0.0,0.0,0.0,0.0,0.0,0.0,0.0,0.0,0.0,0.0,0.0,0.0,0.0,0.0,0.0,0.0,0.0,0.0,0.0,0.0,0.0,0.0,0.0,0.0,0.0,0.0,0.0,0.0,0.0,0.0,0.0,0.0,0.0,0.0,0.0,0.0,0.0,0.0,0.0,0.0,0.0,0.0,0.0,0.0,0.0,0.0,0.0,0.0,0.0,0.0,0.0,0.0,0.0,0.0,0.0,0.0,0.0,0.0,0.0,0.0,0.0,0.0,0.0,0.0,0.0,0.0,0.0,0.0,0.0,0.0,0.0,0.0,0.0,0.0,0.0,0.0,0.0,0.0,0.0,0.0,0.0,0.0,0.0,0.0,0.0,0.0,0.0,0.0,0.0,0.0,0.0,0.0,0.0,0.0,0.0,0.0,0.0,0.0,0.0,0.0,0.0,0.0,0.0,4.539,4.5386,4.5304,0.0,4.2885,0.0,0.0,0.0,0.0,0.0,0.0,0.0,0.0,0.0,0.0,0.0,0.0,0.0,0.0,0.0,0.0,0.0,0.0,0.0,0.0,0.0,0.0,0.0,0.0,0.0,0.0,0.0,0.0,0.0,0.0,0.0,0.0,0.0,0.0,0.0,0.0,0.0,0.0,0.0,0.0,0.0,0.0,0.0,0.0,0.0,0.0,0.0,0.0,0.0,0.0,0.0,0.0,0.0,0.0,0.0,0.0,0.0,0.0,0.0,0.0,0.0,0.0,0.0,0.0,0.0,0.0,0.0,0.0,0.0,0.0,0.0,0.0,0.0,0.0,0.0,0.0,0.0,0.0,0.0,0.0,0.0,0.0,0.0,0.0,0.0,0.0,0.0,0.0,0.0,0.0,0.0,0.0,0.0,0.0,0.0,0.0,0.0,0.0,0.0,0.0,0.0,0.0,0.0,0.0,0.0,0.0,0.0,0.0,0.0,0.0,0.0,4.5452,4.4465,4.3603,0.0,0.0,0.0,0.0,0.0,0.0,0.0,0.0,0.0,0.0,0.0,0.0,0.0,0.0,0.0,0.0,0.0,0.0,0.0,0.0,0.0,0.0,0.0,0.0,0.0,0.0,0.0,0.0,0.0,0.0,0.0,0.0,0.0,0.0,0.0,0.0,0.0,0.0,0.0,0.0,0.0,0.0,0.0,0.0,0.0,0.0,0.0,0.0,0.0,0.0,0.0,0.0,0.0,0.0,0.0,0.0,0.0,0.0,0.0,0.0,0.0,0.0,0.0,0.0,0.0,0.0,0.0,0.0,0.0,0.0,0.0,0.0,0.0,0.0,0.0,0.0,0.0,0.0,0.0,0.0,0.0,0.0,0.0,0.0,0.0,0.0,0.0,0.0,0.0,0.0,0.0,0.0,0.0,0.0,0.0,0.0,0.0,0.0,0.0,0.0,0.0,0.0,0.0,0.0,0.0,0.0,0.0,0.0,0.0,0.0,4.5594,0.0,4.5464,4.3853,4.2953,4.2953,0.0,0.0,0.0,0.0,0.0,0.0,0.0,0.0,0.0,0.0,0.0,0.0,0.0,0.0,0.0,0.0,0.0,0.0,0.0,0.0,0.0,0.0,0.0,0.0,0.0,0.0,0.0,0.0,0.0,0.0,0.0,0.0,0.0,0.0,0.0,0.0,0.0,0.0,0.0,0.0,0.0,0.0,0.0,0.0,0.0,0.0,0.0,0.0,0.0,0.0,0.0,0.0,0.0,0.0,0.0,0.0,0.0,0.0,0.0,0.0,0.0,0.0,0.0,0.0,0.0,0.0,0.0,0.0,0.0,0.0,0.0,0.0,0.0,0.0,0.0,0.0,0.0,0.0,0.0,0.0,0.0,0.0,0.0,0.0,0.0,0.0,0.0,0.0,0.0,0.0,0.0,0.0,0.0,0.0,0.0,0.0,0.0,0.0,0.0,0.0,0.0,0.0,0.0,0.0,0.0,0.0,0.0,0.0,0.0,4.5594,4.559,4.5586,4.397,4.3081,0.0,0.0,0.0,0.0,0.0,0.0,0.0,0.0,0.0,0.0,0.0,0.0,0.0,0.0,0.0,0.0,0.0,0.0,0.0,0.0,0.0,0.0,0.0,0.0,0.0,0.0,0.0,0.0,0.0,0.0,0.0,0.0,0.0,0.0,0.0,0.0,0.0,0.0,0.0,0.0,0.0,0.0,0.0,0.0,0.0,0.0,0.0,0.0,0.0,0.0,0.0,0.0,0.0,0.0,0.0,0.0,0.0,0.0,0.0,0.0,0.0,0.0,0.0,0.0,0.0,0.0,0.0,0.0,0.0,0.0,0.0,0.0,0.0,0.0,0.0,0.0,0.0,0.0,0.0,0.0,0.0,0.0,0.0,0.0,0.0,0.0,0.0,0.0,0.0,0.0,0.0,0.0,0.0,0.0,0.0,0.0,0.0,0.0,0.0,0.0,0.0,0.0,0.0,0.0,0.0,0.0,0.0,0.0,0.0,4.5556,4.5594,4.5577,4.5507,4.3931,4.3035,0.0,0.0,0.0,0.0,0.0,0.0,0.0,0.0,0.0,0.0,0.0,0.0,0.0,0.0,0.0,0.0,0.0,0.0,0.0,0.0,0.0,0.0,0.0,0.0,0.0,0.0,0.0,0.0,0.0,0.0,0.0,0.0,0.0,0.0,0.0,0.0,0.0,0.0,0.0,0.0,0.0,0.0,0.0,0.0,0.0,0.0,0.0,0.0,0.0,0.0,0.0,0.0,0.0,0.0,0.0,0.0,0.0,0.0,0.0,0.0,0.0,0.0,0.0,0.0,0.0,0.0,0.0,0.0,0.0,0.0,0.0,0.0,0.0,0.0,0.0,0.0,0.0,0.0,0.0,0.0,0.0,0.0,0.0,0.0,0.0,0.0,0.0,0.0,0.0,0.0,0.0,0.0,0.0,0.0,0.0,0.0,0.0,0.0,0.0,0.0,0.0,0.0,0.0,0.0,0.0,0.0,0.0,0.0,0.0,4.5556,0.0,4.5516,0.0,4.3853,4.2948,0.0,0.0,0.0,0.0,0.0,0.0,0.0,0.0,0.0,0.0,0.0,0.0,0.0,0.0,0.0,0.0,0.0,0.0,0.0,0.0,0.0,0.0,0.0,0.0,0.0,0.0,0.0,0.0,0.0,0.0,0.0,0.0,0.0,0.0,0.0,0.0,0.0,0.0,0.0,0.0,0.0,0.0,0.0,0.0,0.0,0.0,0.0,0.0,0.0,0.0,0.0,0.0,0.0,0.0,0.0,0.0,0.0,0.0,0.0,0.0,0.0,0.0,0.0,0.0,0.0,0.0,0.0,0.0,0.0,0.0,0.0,0.0,0.0,0.0,0.0,0.0,0.0,0.0,0.0,0.0,0.0,0.0,0.0,0.0,0.0,0.0,0.0,0.0,0.0,0.0,0.0,0.0,0.0,0.0,0.0,0.0,0.0,0.0,0.0,0.0,0.0,0.0,0.0,0.0,0.0,0.0,0.0,0.0,4.482,4.5556,4.5546,4.5518,4.5442,4.3783,4.2912,0.0,0.0,0.0,0.0,0.0,0.0,0.0,0.0,0.0,0.0,0.0,0.0,0.0,0.0,0.0,0.0,0.0,0.0,0.0,0.0,0.0,0.0,0.0,0.0,0.0,0.0,0.0,0.0,0.0,0.0,0.0,0.0,0.0,0.0,0.0,0.0,0.0,0.0,0.0,0.0,0.0,0.0,0.0,0.0,0.0,0.0,0.0,0.0,0.0,0.0,0.0,0.0,0.0,0.0,0.0,0.0,0.0,0.0,0.0,0.0,0.0,0.0,0.0,0.0,0.0,0.0,0.0,0.0,0.0,0.0,0.0,0.0,0.0,0.0,0.0,0.0,0.0,0.0,0.0,0.0,0.0,0.0,0.0,0.0,0.0,0.0,0.0,0.0,0.0,0.0,0.0,0.0,0.0,0.0,0.0,0.0,0.0,0.0,0.0,0.0,0.0,0.0,0.0,0.0,0.0,0.0,0.0,0.0,0.0,4.568,4.5564,4.5462,4.539,4.3728,4.2805,0.0,0.0,0.0,0.0,0.0,0.0,0.0,0.0,0.0,0.0,0.0,0.0,0.0,0.0,0.0,0.0,0.0,0.0,0.0,0.0,0.0,0.0,0.0,0.0,0.0,0.0,0.0,0.0,0.0,0.0,0.0,0.0,0.0,0.0,0.0,0.0,0.0,0.0,0.0,0.0,0.0,0.0,0.0,0.0,0.0,0.0,0.0,0.0,0.0,0.0,0.0,0.0,0.0,0.0,0.0,0.0,0.0,0.0,0.0,0.0,0.0,0.0,0.0,0.0,0.0,0.0,0.0,0.0,0.0,0.0,0.0,0.0,0.0,0.0,0.0,0.0,0.0,0.0,0.0,0.0,0.0,0.0,0.0,0.0,0.0,0.0,0.0,0.0,0.0,0.0,0.0,0.0,0.0,0.0,0.0,0.0,0.0,0.0,0.0,0.0,0.0,0.0,0.0,0.0,0.0,0.0,0.0,0.0,0.0,4.575,4.5603,4.5475,4.541,4.4016,4.3115,4.2756,0.0,0.0,0.0,0.0,0.0,0.0,0.0,0.0,0.0,0.0,0.0,0.0,0.0,0.0,0.0,0.0,0.0,0.0,0.0,0.0,0.0,0.0,0.0,0.0,0.0,0.0,0.0,0.0,0.0,0.0,0.0,0.0,0.0,0.0,0.0,0.0,0.0,0.0,0.0,0.0,0.0,0.0,0.0,0.0,0.0,0.0,0.0,0.0,0.0,0.0,0.0,0.0,0.0,0.0,0.0,0.0,0.0,0.0,0.0,0.0,0.0,0.0,0.0,0.0,0.0,0.0,0.0,0.0,0.0,0.0,0.0,0.0,0.0,0.0,0.0,0.0,0.0,0.0,0.0,0.0,0.0,0.0,0.0,0.0,0.0,0.0,0.0,0.0,0.0,0.0,0.0,0.0,0.0,0.0,0.0,0.0,0.0,0.0,0.0,0.0,0.0,0.0,0.0,0.0,0.0,0.0,0.0,0.0,4.5795,4.5671,4.5555,4.5376,4.4547,4.3684,0.0,0.0,0.0,0.0,0.0,0.0,0.0,0.0,0.0,0.0,0.0,0.0,0.0,0.0,0.0,0.0,0.0,0.0,0.0,0.0,0.0,0.0,0.0,0.0,0.0,0.0,0.0,0.0,0.0,0.0,0.0,0.0,0.0,0.0,0.0,0.0,0.0,0.0,0.0,0.0,0.0,0.0,0.0,0.0,0.0,0.0,0.0,0.0,0.0,0.0,0.0,0.0,0.0,0.0,0.0,0.0,0.0,0.0,0.0,0.0,0.0,0.0,0.0,0.0,0.0,0.0,0.0,0.0,0.0,0.0,0.0,0.0,0.0,0.0,0.0,0.0,0.0,0.0,0.0,0.0,0.0,0.0,0.0,0.0,0.0,0.0,0.0,0.0,0.0,0.0,0.0,0.0,0.0,0.0,0.0,0.0,0.0,0.0,0.0,0.0,0.0,0.0,0.0,0.0,0.0,0.0,0.0,0.0,0.0,4.5793,4.5704,4.5633,4.5466,4.46,4.3704,0.0,0.0,0.0,0.0,0.0,0.0,0.0,0.0,0.0,0.0,0.0,0.0,0.0,0.0,0.0,0.0,0.0,0.0,0.0,0.0,0.0,0.0,0.0,0.0,0.0,0.0,0.0,0.0,0.0,0.0,0.0,0.0,0.0,0.0,0.0,0.0,0.0,0.0,0.0,0.0,0.0,0.0,0.0,0.0,0.0,0.0,0.0,0.0,0.0,0.0,0.0,0.0,0.0,0.0,0.0,0.0,0.0,0.0,0.0,0.0,0.0,0.0,0.0,0.0,0.0,0.0,0.0,0.0,0.0,0.0,0.0,0.0,0.0,0.0,0.0,0.0,0.0,0.0,0.0,0.0,0.0,0.0,0.0,0.0,0.0,0.0,0.0,0.0,0.0,0.0,0.0,0.0,0.0,0.0,0.0,0.0,0.0,0.0,0.0,0.0,0.0,0.0,0.0,0.0,0.0,0.0,0.0,0.0,4.5923,4.5807,4.5731,4.5671,4.5555,4.5011,4.4106,0.0,0.0,0.0,0.0,0.0,0.0,0.0,0.0,0.0,0.0,0.0,0.0,0.0,0.0,0.0,0.0,0.0,0.0,0.0,0.0,0.0,0.0,0.0,0.0,0.0,0.0,0.0,0.0,0.0,0.0,0.0,0.0,0.0,0.0,0.0,0.0,0.0,0.0,0.0,0.0,0.0,0.0,0.0,0.0,0.0,0.0,0.0,0.0,0.0,0.0,0.0,0.0,0.0,0.0,0.0,0.0,0.0,0.0,0.0,0.0,0.0,0.0,0.0,0.0,0.0,0.0,0.0,0.0,0.0,0.0,0.0,0.0,0.0,0.0,0.0,0.0,0.0,0.0,0.0,0.0,0.0,0.0,0.0,0.0,0.0,0.0,0.0,0.0,0.0,0.0,0.0,0.0,0.0,0.0,0.0,0.0,0.0,0.0,0.0,0.0,0.0,0.0,0.0,0.0,0.0,0.0,0.0,0.0,4.5935,4.5807,4.5727,4.5679,4.5594,4.5546,4.4637,0.0,0.0,0.0,0.0,0.0,0.0,0.0,0.0,0.0,0.0,0.0,0.0,0.0,0.0,0.0,0.0,0.0,0.0,0.0,0.0,0.0,0.0,0.0,0.0,0.0,0.0,0.0,0.0,0.0,0.0,0.0,0.0,0.0,0.0,0.0,0.0,0.0,0.0,0.0,0.0,0.0,0.0,0.0,0.0,0.0,0.0,0.0,0.0,0.0,0.0,0.0,0.0,0.0,0.0,0.0,0.0,0.0,0.0,0.0,0.0,0.0,0.0,0.0,0.0,0.0,0.0,0.0,0.0,0.0,0.0,0.0,0.0,0.0,0.0,0.0,0.0,0.0,0.0,0.0,0.0,0.0,0.0,0.0,0.0,0.0,0.0,0.0,0.0,0.0,0.0,0.0,0.0,0.0,0.0,0.0,0.0,0.0,0.0,0.0,0.0,0.0,0.0,0.0,0.0,0.0,0.0,0.0,0.0,4.5893,4.5807,4.5735,4.565,4.5594,4.5546,4.4707,0.0,0.0,0.0,0.0,0.0,0.0,0.0,0.0,0.0,0.0,0.0,0.0,0.0,0.0,0.0,0.0,0.0,0.0,0.0,0.0,0.0,0.0,0.0,0.0,0.0,0.0,0.0,0.0,0.0,0.0,0.0,0.0,0.0,0.0,0.0,0.0,0.0,0.0,0.0,0.0,0.0,0.0,0.0,0.0,0.0,0.0,0.0,0.0,4.3011,0.0,0.0,0.0,0.0,0.0,0.0,0.0,0.0,0.0,0.0,0.0,0.0,0.0,0.0,0.0,0.0,0.0,0.0,0.0,0.0,0.0,0.0,0.0,0.0,0.0,0.0,0.0,0.0,0.0,0.0,0.0,0.0,0.0,0.0,0.0,0.0,0.0,0.0,0.0,0.0,0.0,0.0,0.0,0.0,0.0,0.0,0.0,0.0,0.0,0.0,0.0,0.0,0.0,0.0,0.0,0.0,0.0,0.0,0.0,4.5871,4.5821,4.5719,4.568,4.5594,4.5184,4.4316,0.0,0.0,0.0,0.0,0.0,0.0,0.0,0.0,0.0,0.0,0.0,0.0,0.0,0.0,0.0,0.0,0.0,0.0,0.0,0.0,0.0,0.0,0.0,0.0,0.0,0.0,0.0,0.0,0.0,0.0,0.0,0.0,0.0,0.0,0.0,0.0,0.0,0.0,0.0,0.0,0.0,0.0,0.0,0.0,0.0,0.0,0.0,0.0,0.0,0.0,0.0,0.0,0.0,0.0,0.0,0.0,0.0,0.0,0.0,0.0,0.0,0.0,0.0,0.0,0.0,0.0,0.0,0.0,0.0,0.0,0.0,0.0,0.0,0.0,0.0,0.0,0.0,0.0,0.0,0.0,0.0,0.0,0.0,0.0,0.0,0.0,0.0,0.0,0.0,0.0,0.0,0.0,0.0,0.0,0.0,0.0,0.0,0.0,0.0,0.0,0.0,0.0,0.0,0.0,0.0,0.0,0.0,4.5926,4.5841,4.5781,4.5734,4.5672,4.5594,4.4735,4.3906,4.303,0.0,0.0,0.0,0.0,0.0,0.0,0.0,0.0,0.0,0.0,0.0,0.0,0.0,0.0,0.0,0.0,0.0,0.0,0.0,0.0,0.0,0.0,0.0,0.0,0.0,0.0,0.0,0.0,0.0,0.0,0.0,0.0,0.0,0.0,0.0,0.0,0.0,0.0,4.2165,4.3551,0.0,0.0,0.0,0.0,0.0,0.0,0.0,0.0,4.3701,0.0,0.0,0.0,0.0,0.0,0.0,0.0,0.0,0.0,0.0,0.0,0.0,0.0,0.0,0.0,0.0,0.0,0.0,0.0,0.0,0.0,0.0,0.0,0.0,0.0,0.0,0.0,0.0,0.0,0.0,0.0,0.0,0.0,0.0,0.0,0.0,0.0,0.0,0.0,0.0,0.0,0.0,0.0,0.0,0.0,0.0,0.0,0.0,0.0,0.0,0.0,0.0,0.0,0.0,0.0,0.0,4.6006,4.5886,4.5792,4.5696,4.565,4.5603,4.5594,4.4743,4.3876,4.3026,0.0,0.0,0.0,0.0,0.0,0.0,0.0,0.0,0.0,0.0,0.0,0.0,0.0,0.0,0.0,0.0,0.0,0.0,0.0,0.0,0.0,0.0,0.0,0.0,0.0,0.0,0.0,0.0,0.0,0.0,0.0,0.0,0.0,0.0,0.0,0.0,0.0,0.0,0.0,4.43,4.4887,0.0,0.0,0.0,0.0,0.0,0.0,0.0,0.0,4.3876,0.0,0.0,0.0,0.0,0.0,0.0,0.0,0.0,0.0,0.0,0.0,0.0,0.0,0.0,0.0,0.0,0.0,0.0,0.0,0.0,0.0,0.0,0.0,0.0,0.0,0.0,0.0,0.0,0.0,0.0,0.0,0.0,0.0,0.0,0.0,0.0,0.0,0.0,0.0,0.0,0.0,0.0,0.0,0.0,0.0,0.0,0.0,0.0,0.0,0.0,0.0,0.0,0.0,0.0,0.0,4.5883,4.5814,4.5739,4.5695,4.5629,4.5398,4.4936,4.4085,4.3205,0.0,0.0,0.0,0.0,0.0,0.0,0.0,0.0,0.0,0.0,0.0,0.0,0.0,0.0,0.0,0.0,0.0,0.0,0.0,0.0,0.0,0.0,0.0,0.0,0.0,0.0,0.0,0.0,0.0,0.0,0.0,0.0,0.0,0.0,0.0,0.0,0.0,0.0,0.0,0.0,4.5089,4.5298,4.5185,0.0,0.0,0.0,0.0,0.0,0.0,4.4308,4.4162,0.0,0.0,0.0,0.0,0.0,0.0,0.0,0.0,0.0,0.0,0.0,0.0,0.0,0.0,0.0,0.0,0.0,0.0,0.0,0.0,0.0,0.0,0.0,0.0,0.0,0.0,0.0,0.0,0.0,0.0,0.0,0.0,0.0,0.0,0.0,0.0,0.0,0.0,0.0,0.0,0.0,0.0,0.0,0.0,0.0,0.0,0.0,0.0,0.0,0.0,0.0,0.0,0.0,0.0,0.0,4.5796,4.5758,4.5691,4.5688,4.5612,4.5282,4.4547,4.3551,4.2663,0.0,0.0,0.0,0.0,0.0,0.0,0.0,0.0,0.0,0.0,0.0,0.0,0.0,0.0,0.0,0.0,0.0,0.0,0.0,0.0,0.0,0.0,0.0,0.0,0.0,0.0,0.0,0.0,0.0,0.0,0.0,0.0,0.0,0.0,0.0,0.0,0.0,0.0,0.0,0.0,0.0,4.5599,4.5475,4.5414,0.0,0.0,0.0,0.0,4.4745,4.4599,0.0,0.0,0.0,0.0,0.0,0.0,0.0,0.0,0.0,0.0,0.0,0.0,0.0,0.0,0.0,0.0,0.0,0.0,0.0,0.0,0.0,0.0,0.0,0.0,0.0,0.0,0.0,0.0,0.0,0.0,0.0,0.0,0.0,0.0,0.0,0.0,0.0,0.0,0.0,0.0,0.0,0.0,0.0,0.0,0.0,0.0,0.0,0.0,0.0,0.0,0.0,0.0,0.0,0.0,0.0,0.0,4.5795,4.5711,4.5646,4.5642,4.5594,4.5552,4.5436,4.3859,4.2949,0.0,0.0,0.0,0.0,0.0,0.0,0.0,0.0,0.0,0.0,0.0,0.0,0.0,0.0,0.0,0.0,0.0,0.0,0.0,0.0,0.0,0.0,0.0,0.0,0.0,0.0,0.0,0.0,0.0,0.0,0.0,0.0,0.0,0.0,0.0,0.0,0.0,0.0,0.0,0.0,0.0,4.5825,4.5761,4.5694,4.5619,0.0,0.0,4.5321,4.5164,4.5036,0.0,0.0,0.0,0.0,0.0,0.0,0.0,0.0,0.0,0.0,0.0,0.0,0.0,0.0,0.0,0.0,0.0,0.0,0.0,0.0,0.0,0.0,0.0,0.0,0.0,0.0,0.0,0.0,0.0,0.0,0.0,0.0,0.0,0.0,0.0,0.0,0.0,0.0,0.0,0.0,0.0,0.0,0.0,0.0,0.0,0.0,0.0,0.0,0.0,0.0,0.0,0.0,0.0,0.0,0.0,4.5856,4.5827,4.5746,4.5705,4.5671,4.5671,4.5439,4.4977,4.3722,4.2842,0.0,0.0,0.0,0.0,0.0,0.0,0.0,0.0,0.0,0.0,0.0,0.0,0.0,0.0,0.0,0.0,0.0,0.0,0.0,0.0,0.0,0.0,0.0,0.0,0.0,0.0,0.0,0.0,0.0,0.0,0.0,0.0,0.0,0.0,0.0,0.0,0.0,0.0,0.0,0.0,0.0,0.0,4.7449,4.7439,0.0,0.0,0.0,4.6125,4.5525,0.0,0.0,0.0,0.0,0.0,0.0,0.0,0.0,0.0,0.0,0.0,0.0,0.0,0.0,0.0,0.0,0.0,0.0,0.0,0.0,0.0,0.0,0.0,0.0,0.0,0.0,0.0,0.0,0.0,0.0,0.0,0.0,0.0,0.0,0.0,0.0,0.0,0.0,0.0,0.0,0.0,0.0,0.0,0.0,0.0,0.0,0.0,0.0,0.0,0.0,0.0,0.0,0.0,0.0,0.0,0.0,0.0,4.5817,4.5746,4.5723,4.5715,4.5715,4.5445,4.4831,4.3725,0.0,0.0,0.0,0.0,0.0,0.0,0.0,0.0,0.0,0.0,0.0,0.0,0.0,0.0,0.0,0.0,0.0,0.0,0.0,0.0,0.0,0.0,0.0,0.0,0.0,0.0,0.0,4.2429,0.0,0.0,0.0,0.0,0.0,0.0,0.0,0.0,0.0,0.0,0.0,0.0,0.0,0.0,4.8721,4.874,4.871,4.8472,0.0,0.0,4.7216,4.645,4.6267,4.6215,0.0,0.0,0.0,0.0,0.0,0.0,0.0,0.0,0.0,0.0,0.0,0.0,0.0,0.0,0.0,0.0,0.0,0.0,0.0,0.0,0.0,0.0,0.0,0.0,0.0,0.0,0.0,0.0,0.0,0.0,0.0,0.0,0.0,0.0,0.0,0.0,0.0,0.0,0.0,0.0,0.0,0.0,0.0,0.0,0.0,0.0,0.0,0.0,0.0,0.0,0.0,0.0,0.0,0.0,0.0,4.5893,4.5814,4.5796,4.58,4.5796,4.5758,4.568,4.4098,4.354,0.0,0.0,0.0,0.0,0.0,0.0,0.0,0.0,0.0,0.0,0.0,0.0,0.0,0.0,0.0,0.0,0.0,0.0,0.0,0.0,0.0,0.0,0.0,0.0,0.0,0.0,0.0,0.0,0.0,0.0,0.0,0.0,0.0,0.0,0.0,0.0,0.0,0.0,0.0,0.0,0.0,4.8789,4.8787,4.8813,4.8788,0.0,0.0,4.8471,4.8325,4.823,4.8176,4.81,0.0,0.0,0.0,0.0,0.0,0.0,0.0,0.0,0.0,0.0,0.0,0.0,0.0,0.0,0.0,0.0,0.0,0.0,0.0,0.0,0.0,0.0,0.0,0.0,0.0,0.0,0.0,0.0,0.0,0.0,0.0,0.0,0.0,0.0,0.0,0.0,0.0,0.0,0.0,0.0,0.0,0.0,0.0,0.0,0.0,0.0,0.0,0.0,0.0,0.0,0.0,0.0,0.0,4.598,4.5978,4.5947,4.5953,4.5986,4.5989,4.5986,4.5989,4.4783,4.4291,0.0,0.0,0.0,0.0,0.0,0.0,0.0,0.0,0.0,0.0,0.0,0.0,0.0,0.0,0.0,0.0,0.0,0.0,0.0,0.0,0.0,0.0,0.0,0.0,0.0,0.0,0.0,0.0,4.8067,4.8629,4.9465,0.0,0.0,0.0,0.0,0.0,0.0,0.0,0.0,0.0,0.0,5.0387,5.0391,5.0427,0.0,0.0,4.9522,4.9261,4.8719,4.8537,4.8516,4.8484,4.9398,0.0,0.0,0.0,0.0,0.0,0.0,0.0,0.0,0.0,0.0,0.0,0.0,0.0,0.0,0.0,0.0,0.0,0.0,0.0,0.0,0.0,0.0,0.0,0.0,0.0,0.0,0.0,0.0,0.0,0.0,0.0,0.0,0.0,0.0,0.0,0.0,0.0,0.0,0.0,0.0,0.0,0.0,0.0,0.0,0.0,0.0,0.0,0.0,0.0,0.0,0.0,0.0,4.6824,4.6808,4.6794,4.6685,4.6484,4.6486,4.6367,4.6132,4.5202,4.4865,0.0,0.0,0.0,0.0,0.0,0.0,0.0,0.0,0.0,0.0,0.0,0.0,0.0,0.0,0.0,0.0,0.0,0.0,0.0,0.0,0.0,0.0,0.0,0.0,0.0,0.0,0.0,0.0,4.963,5.0304,5.117,0.0,0.0,0.0,0.0,0.0,0.0,0.0,0.0,0.0,0.0,5.1707,5.1443,5.164,5.1562,5.0976,5.1052,5.0972,5.0349,5.0153,5.0115,5.0156,0.0,0.0,0.0,0.0,0.0,0.0,0.0,0.0,0.0,0.0,0.0,0.0,0.0,0.0,0.0,0.0,0.0,0.0,0.0,0.0,0.0,0.0,0.0,0.0,0.0,0.0,0.0,0.0,0.0,0.0,4.8458,0.0,0.0,0.0,0.0,0.0,0.0,0.0,0.0,0.0,0.0,0.0,0.0,0.0,0.0,0.0,0.0,0.0,0.0,0.0,0.0,0.0,0.0,4.8691,4.8628,4.8589,4.8204,4.7432,4.7393,4.7002,4.626,4.5306,4.5209,4.6048,0.0,0.0,0.0,0.0,0.0,0.0,0.0,0.0,0.0,0.0,0.0,0.0,0.0,0.0,0.0,0.0,0.0,0.0,0.0,0.0,0.0,0.0,0.0,0.0,0.0,0.0,5.0149,5.16,5.2929,0.0,0.0,0.0,0.0,0.0,0.0,0.0,0.0,0.0,0.0,5.2672,5.2365,5.1586,5.2137,5.2687,5.2647,5.3271,5.3779,5.3699,5.3639,5.3613,0.0,0.0,0.0,0.0,0.0,0.0,0.0,0.0,0.0,0.0,0.0,0.0,0.0,0.0,0.0,0.0,0.0,0.0,0.0,0.0,0.0,0.0,0.0,0.0,0.0,0.0,0.0,5.1378,5.087,0.0,0.0,0.0,0.0,0.0,0.0,0.0,0.0,0.0,0.0,0.0,5.3716,5.382,0.0,0.0,0.0,0.0,0.0,0.0,0.0,0.0,0.0,0.0,0.0,0.0,4.8808,4.8781,4.8784,4.8631,4.8359,4.832,4.8203,4.7929,4.707,4.6753,4.7016,0.0,0.0,0.0,0.0,0.0,0.0,0.0,0.0,0.0,0.0,0.0,0.0,0.0,0.0,0.0,0.0,0.0,0.0,0.0,0.0,0.0,0.0,0.0,0.0,0.0,5.2693,0.0,0.0,0.0,0.0,0.0,0.0,0.0,0.0,0.0,0.0,0.0,5.3878,5.361,5.3579,5.3466,5.3154,5.3342,5.3681,0.0,0.0,0.0,0.0,0.0,0.0,0.0,0.0,0.0,0.0,0.0,0.0,0.0,0.0,5.5281,5.4162,5.3685,5.3483,5.3431,0.0,0.0,0.0,0.0,0.0,0.0,0.0,0.0,0.0,0.0,0.0,0.0,0.0,0.0,5.3926,0.0,5.3569,0.0,0.0,0.0,0.0,0.0,0.0,0.0,0.0,5.4975,5.5009,5.5032,5.5405,5.54,0.0,5.5496,5.4812,0.0,0.0,0.0,0.0,0.0,0.0,0.0,0.0,4.9726,4.9725,4.9723,4.9561,4.9274,4.923,4.9072,4.8799,4.8224,4.7961,4.7928,4.7968,4.8198,0.0,0.0,0.0,0.0,0.0,0.0,0.0,0.0,0.0,0.0,0.0,0.0,0.0,0.0,0.0,0.0,0.0,0.0,0.0,0.0,0.0,0.0,0.0,5.4248,0.0,0.0,0.0,0.0,0.0,0.0,0.0,0.0,0.0,5.5982,5.5791,5.5564,5.4988,5.4875,5.4681,5.4094,0.0,0.0,0.0,0.0,0.0,0.0,0.0,5.4601,5.4556,5.5079,5.5522,5.5574,5.611,5.6501,5.6518,0.0,0.0,5.5099,5.4619,5.4373,5.4358,5.4092,5.3844,5.3766,5.327,5.2693,0.0,0.0,0.0,0.0,0.0,0.0,0.0,0.0,5.5938,5.5972,0.0,5.6089,0.0,0.0,0.0,0.0,0.0,0.0,0.0,0.0,5.745,5.7564,5.7568,5.8409,5.8437,5.7702,5.8483,5.8063,5.6451,5.4927,0.0,0.0,0.0,0.0,0.0,0.0,5.1477,5.1417,5.1415,5.1013,5.0167,5.0072,4.9671,4.8893,4.8841,4.8821,4.8831,4.8817,4.8864,4.8903,4.8905,0.0,0.0,0.0,0.0,0.0,0.0,0.0,0.0,0.0,0.0,0.0,0.0,0.0,0.0,0.0,0.0,0.0,0.0,0.0,0.0,5.4162,0.0,0.0,0.0,0.0,0.0,0.0,0.0,0.0,0.0,0.0,5.9113,5.904,5.8503,5.6872,0.0,0.0,0.0,0.0,5.5308,5.5358,5.5948,5.643,5.6467,5.6249,5.6132,5.6167,0.0,0.0,5.6388,5.6444,5.6512,5.6562,5.652,5.6514,5.6551,5.5789,5.5257,5.5199,5.4564,5.3906,5.3817,5.3772,5.3386,5.9338,0.0,0.0,0.0,0.0,5.7493,5.7511,5.7554,5.7694,5.7747,5.7771,5.7904,0.0,0.0,0.0,0.0,0.0,0.0,5.7912,5.8339,5.8389,5.8415,5.8453,5.8693,5.8713,5.8483,5.8764,5.8696,5.8235,5.7794,5.6359,5.4049,0.0,0.0,0.0,0.0,5.2954,5.2362,5.2309,5.1858,5.0969,5.0963,5.0518,4.9674,4.9639,4.9648,4.9657,4.9628,4.9959,5.0545,5.0607,0.0,0.0,0.0,0.0,0.0,0.0,0.0,0.0,0.0,0.0,0.0,0.0,0.0,0.0,0.0,0.0,0.0,0.0,0.0,5.7502,5.708,5.716,0.0,0.0,0.0,0.0,0.0,0.0,0.0,0.0,0.0,6.0859,5.9919,5.898,0.0,0.0,5.7343,5.6833,5.6935,5.726,5.7811,0.0,0.0,0.0,5.7136,5.6324,5.6334,5.639,5.641,5.6379,5.6476,5.6484,5.6477,5.6501,5.6479,5.6449,5.6302,5.6106,5.6039,5.5788,5.5547,5.5384,5.4843,5.4066,6.1742,6.0221,5.9486,5.9217,5.9275,5.9315,5.9359,5.9374,5.9466,5.951,5.9534,5.9672,5.9563,5.9234,5.8972,0.0,0.0,0.0,5.9488,5.9754,5.9819,5.9636,5.9368,5.9696,5.9668,5.936,5.9708,5.9748,5.9485,5.951,5.8318,5.6059,0.0,0.0,5.4527,5.417,5.3736,5.3265,5.3211,5.2917,5.2348,5.1977,5.1361,5.0536,5.0492,5.0453,5.0497,5.0503,5.0763,5.1276,5.1351,5.1137,0.0,0.0,0.0,0.0,0.0,0.0,0.0,0.0,0.0,0.0,0.0,5.4811,5.4826,0.0,0.0,0.0,5.6919,5.796,5.8993,5.8643,0.0,0.0,0.0,0.0,0.0,0.0,0.0,6.0859,6.0937,6.1093,6.1596,6.0817,6.0078,5.9726,5.9219,5.8672,5.7968,0.0,5.7873,5.8011,5.7549,5.7361,5.7855,5.7088,5.6404,5.6424,5.6462,5.6481,5.6445,5.6479,5.6465,5.6399,5.6405,5.64,5.6339,5.6349,5.632,5.6334,5.6263,5.6118,5.5989,5.545,5.4596,6.3665,6.3495,6.1753,6.1054,6.1015,6.1015,6.1009,6.1023,6.1002,6.1046,6.1137,6.1268,6.0903,6.0169,5.9432,0.0,0.0,6.0271,6.068,6.1419,6.1416,6.0989,6.0254,6.1027,6.0989,6.0218,6.1026,6.1019,6.0355,6.0356,5.9983,5.92,5.7664,5.647,5.5618,5.4836,5.4326,5.4206,5.4236,5.4106,5.3898,5.3112,5.2282,5.1451,5.141,5.1366,5.1325,5.1429,5.1451,5.1388,5.1452,5.1518,5.1624,0.0,0.0,0.0,0.0,0.0,0.0,0.0,0.0,0.0,0.0,0.0,0.0,0.0,0.0,0.0,5.9342,0.0,5.9395,5.9397,0.0,0.0,0.0,6.0816,6.1639,6.1718,6.1719,6.1677,0.0,0.0,6.1696,0.0,6.1388,6.0619,6.0426,5.9841,5.832,5.8125,5.7734,5.7186,5.6868,5.686,5.7211,5.6934,5.6784,5.6835,5.6716,5.6779,5.6796,5.677,5.6696,5.6693,5.6487,5.6391,5.6288,5.6223,5.6091,5.6117,5.6074,5.5959,5.5784,5.5561,5.493,6.4355,6.3692,6.3273,6.2703,6.2128,6.2133,6.1774,6.1234,6.1208,6.1221,6.1272,6.1283,6.1243,6.1178,6.0948,6.1006,6.1159,6.1172,6.1259,6.1383,6.1391,6.1296,6.1105,6.1296,6.1299,6.1105,6.131,6.1347,6.1211,6.1217,6.0852,6.0096,5.9696,5.9052,5.8241,5.7964,5.7261,5.5976,5.597,5.5335,5.4028,5.3727,5.3458,5.3258,5.3199,5.2857,5.2235,5.2842,5.2886,5.2287,5.2835,5.3221,5.3288,5.3494,0.0,0.0,0.0,0.0,0.0,0.0,0.0,0.0,0.0,5.8576,5.9304,0.0,6.028,0.0,6.168,6.2052,6.2065,6.2066,0.0,0.0,6.1406,6.1481,6.1675,6.1707,6.1695,6.1643,6.1602,6.1631,6.1597,6.1644,6.1534,6.1334,6.0776,6.0247,5.986,5.9788,5.9714,5.9443,5.9331,5.949,5.9294,5.886,5.834,5.8422,5.8365,5.8381,5.832,5.8338,5.8265,5.814,5.7578,5.7171,5.7055,5.6429,5.5904,5.5773,5.5743,5.5712,5.5594,5.5413,5.4937,6.546,6.4994,6.4998,6.4528,6.3705,6.33,6.2873,6.2447,6.2447,6.2451,6.2451,6.2489,6.2555,6.2674,6.2652,6.2666,6.2676,6.2647,6.2618,6.2585,6.216,6.1977,6.196,6.1571,6.1416,6.1416,6.1416,6.1415,6.1481,6.1479,6.1309,6.0917,6.0939,6.0729,6.0234,5.953,5.8671,5.7773,5.7772,5.7061,5.5758,5.5664,5.5291,5.4523,5.4455,5.4031,5.3139,5.3565,5.3558,5.3154,5.392,5.442,5.45,5.5209,5.5842,0.0,0.0,0.0,0.0,0.0,0.0,0.0,0.0,0.0,0.0,0.0,6.2289,6.2788,6.3274,6.3515,6.3554,6.3553,6.3317,6.2883,6.2793,6.2821,6.2814,6.2443,6.2189,6.2132,6.1779,6.1573,6.1539,6.1536,6.1527,6.15,6.1135,6.0742,6.0432,6.0365,6.0209,5.9859,5.9787,5.9789,5.9745,5.9329,5.8942,5.8895,5.8909,5.8882,5.8817,5.883,5.8789,5.8653,5.8247,5.7869,5.7675,5.696,5.6279,5.6057,5.5705,5.5433,5.5326,5.5208,5.4783,6.6785,6.6708,6.6708,6.6218,6.5426,6.4602,6.4146,6.3899,6.3945,6.3945,6.3948,6.3982,6.4064,6.4112,6.4117,6.4128,6.4104,6.4081,6.409,6.4058,6.3246,6.286,6.2825,6.2083,6.1734,6.1734,6.1737,6.1778,6.184,6.1835,6.1779,6.1772,6.183,6.1818,6.164,6.0234,5.9492,5.9375,5.9257,5.8785,5.7994,5.7986,5.7274,5.5816,5.5711,5.5293,5.4453,5.4429,5.4413,5.4333,5.5151,5.5606,5.5737,5.7134,5.8081,0.0,5.9017,0.0,0.0,0.0,0.0,0.0,0.0,0.0,0.0,6.408,6.4602,6.4608,6.4568,6.4482,6.4398,6.4348,6.4298,6.4207,6.4187,6.4168,6.4109,6.3425,6.2935,6.2951,6.2248,6.1809,6.186,6.1792,6.18,6.1655,6.1557,6.1282,6.0607,6.0502,6.0261,5.9402,5.9324,5.9594,5.949,5.9343,5.9272,5.9189,5.9234,5.9078,5.9115,5.9075,5.9026,5.8943,5.88,5.8567,5.838,5.7687,5.7046,5.6773,5.5971,5.5303,5.5123,5.4963,5.4587,6.8327,6.7743,6.7704,6.7213,6.6415,6.6247,6.5361,6.4079,6.4065,6.4076,6.4078,6.4143,6.4196,6.4168,6.4185,6.4187,6.417,6.4108,6.4084,6.409,6.3842,6.3767,6.3722,6.3605,6.3531,6.3531,6.3554,6.3588,6.3626,6.3616,6.3269,6.2654,6.2694,6.2404,6.1712,0.0,0.0,0.0,5.9531,5.9101,5.8942,5.8941,5.878,5.8376,5.8363,0.0,5.7146,5.7671,5.7693,5.705,5.7791,0.0,0.0,0.0,0.0,0.0,0.0,0.0,0.0,0.0,0.0,0.0,6.4764,6.4844,6.4995,6.582,6.6324,6.6322,6.6263,6.5963,6.532,6.5186,6.4891,6.4203,6.4081,6.4048,6.4037,6.3836,6.3715,6.3669,6.3553,6.3422,6.3393,6.3452,6.3123,6.2428,6.2295,6.1958,6.1259,6.1161,6.1114,6.0958,6.0803,6.0867,6.0861,6.0773,6.0662,6.0755,6.0764,6.0648,6.0504,6.0514,6.0524,6.045,5.9864,5.9282,5.9242,5.8385,5.7627,5.7437,5.6594,5.5723,5.5071,5.4745,5.4517,6.905,0.0,6.8699,6.8195,0.0,6.7393,6.6647,6.542,6.5437,6.5433,6.5445,6.5455,6.5498,6.5459,6.5509,6.5457,6.5424,6.5374,6.5387,6.5347,6.4926,6.4672,6.4614,6.4225,6.404,6.4055,6.407,6.4101,6.414,6.4154,6.3955,6.3535,6.3556,6.3379,6.3002,6.2538,6.1914,6.1055,6.1055,6.1094,6.1093,6.1483,6.1285,6.0421,0.0,0.0,0.0,0.0,0.0,0.0,0.0,0.0,0.0,0.0,0.0,6.2921,6.2968,6.3319,6.4179,6.4642,6.506,6.5429,6.6271,6.6558,6.6165,6.65,6.6756,6.6755,6.6672,6.6468,6.6091,6.5984,6.5759,6.5333,6.5242,6.521,6.5167,6.4773,6.45,6.4423,6.4108,6.3867,6.3847,6.3826,6.3606,6.317,6.3065,6.2887,6.2409,6.1789,6.1364,6.1364,6.1303,6.1279,6.1195,6.1165,6.1168,6.1094,6.1114,6.1094,6.1005,6.0974,6.0938,6.0883,6.0414,6.0068,5.9906,5.9153,5.8398,5.8136,5.7331,5.6325,5.5452,5.4831,5.4405,6.9772,6.9616,6.9617,6.9108,6.8327,6.8337,6.7833,6.701,0.0,0.0,0.0,6.6825,6.6825,6.6825,6.6822,6.6762,6.6724,6.6718,6.6729,6.668,6.5973,6.5606,6.5504,6.4884,6.4552,6.4577,6.4593,6.4581,6.4657,6.4665,6.4577,6.4455,6.4422,6.4399,6.4256,6.3594,6.289,6.2226,6.2734,6.3008,6.3008,6.3867,6.3593,6.2187,6.2146,6.1479,6.0068,6.0027,6.0336,6.1073,6.1737,6.2486,6.32,6.3826,6.4296,6.4491,6.4599,6.4706,6.4862,6.5662,6.6138,6.6057,6.7374,6.7862,6.7088,6.7097,6.711,6.711,6.7078,6.7013,6.7022,6.6793,6.6679,6.6683,6.6523,6.6338,6.6291,6.5747,6.5246,6.5164,6.4647,6.4182,6.4255,6.4227,6.4039,6.3917,6.3838,6.3713,6.3383,6.2303,6.1509,6.1548,6.1362,6.1137,6.1099,6.106,6.1005,6.1003,6.0981,6.0976,6.096,6.0916,6.0866,6.0781,6.071,6.0572,6.0455,5.9797,5.9243,5.8988,5.8059,5.7024,5.6182,5.5212,5.4504,7.1197,7.0534,7.0534,7.0025,6.9205,6.9207,6.8738,6.7878,6.721,6.6897,6.6899,6.6899,6.6899,6.6898,6.685,6.6794,6.6766,6.6787,6.6755,0.0,6.6566,6.6513,6.6513,6.6377,6.6351,6.632,6.6381,6.6409,6.6418,6.6403,6.6066,6.5407,6.5381,6.5036,6.4336,6.4179,6.406,6.3943,6.3318,6.3006,6.3006,6.3862,6.4212,6.3977,6.3942,6.3827,6.3593,6.3515,6.3633,6.375,6.3828,6.3905,6.4021,6.4209,6.4554,6.5293,6.5963,6.6677,6.742,6.8238,6.8655,6.8595,6.8825,6.8615,6.793,6.8394,6.8783,6.8741,6.8609,6.8648,6.8601,6.7907,6.7454,6.7398,6.678,6.6312,6.6303,6.6136,6.593,6.5887,6.5788,6.5639,6.5572,6.56,6.528,6.4801,6.4635,6.4393,6.3687,6.2672,6.2115,6.1965,6.1458,6.1101,6.1216,6.1052,6.1053,6.0927,6.0916,6.0905,6.0866,6.0814,6.0734,6.071,6.0604,6.05,6.0405,6.0135,5.9763,5.9517,5.8629,5.7854,5.737,5.6145,5.4904,7.1755,7.1443,7.1404,7.0896,7.0076,6.9609,6.9179,6.8789,6.8437,6.7734,6.6909,6.6908,6.6908,6.6908,6.6863,6.6845,6.6811,6.6792,6.6759,6.6712,6.6699,6.6702,6.6714,6.6727,6.6716,6.675,6.6775,6.6794,6.6846,6.6856,6.6666,6.6281,6.6288,6.5859,6.5077,6.4996,6.4759,6.4329,6.4368,6.4407,6.4407,6.5264,6.5495,6.4984,6.4948,6.4713,6.4279,6.4243,6.4479,6.4948,6.4945,6.5327,6.6212,6.6278,6.6652,6.745,6.784,6.8234,6.8572,6.8923,6.9091,6.9053,6.9441,6.9557,6.9224,6.91,6.9053,6.9049,6.8976,6.8915,6.8892,6.8515,6.8249,6.8228,6.7815,6.7585,6.7454,6.7034,6.6769,6.6669,6.6277,6.6007,6.6007,6.6007,6.5913,6.5504,6.5436,6.5214,6.4796,6.4058,6.3349,6.2982,6.2546,6.2337,6.2254,6.1885,6.1626,6.1559,6.1129,6.0893,6.0781,6.0772,6.0685,6.0635,6.052,6.0405,6.0359,6.0122,5.9902,5.9656,5.9221,5.8559,5.776,5.6654,5.5432,7.2304,7.2304,7.207,7.1601,7.0937,7.0075,6.9683,6.9683,6.9483,6.8668,6.7578,6.746,6.746,6.746,6.7454,6.7439,6.7409,6.7387,6.7354,6.7316,6.7275,6.7284,6.7305,6.7313,6.7346,6.7381,6.739,6.7402,6.7452,6.7455,6.7341,6.7148,6.6991,6.6558,6.5894,6.5887,6.553,6.4945,6.5524,6.5759,6.5608,6.6426,6.6537,6.5865,6.5784,6.5464,6.4827,6.4744,6.5172,6.5992,6.6028,6.6714,6.8126,6.8268,6.8517,6.9137,6.9328,6.9483,6.96,6.9588,6.9562,6.9553,7.0103,7.0467,7.038,6.9905,6.954,6.9544,6.9546,6.9455,6.9409,6.9167,6.9009,6.8988,6.8783,6.8567,6.8503,6.7951,6.7559,6.747,6.6969,6.6578,6.6501,6.6352,6.618,6.5978,6.5935,6.5904,6.5827,6.5282,6.4677,6.4153,6.369,6.332,6.3315,6.2817,6.2409,6.2364,6.1864,6.1583,6.145,6.1209,6.0942,6.0891,6.0554,6.0344,6.0227,5.999,5.977,5.9525,5.9234,5.879,5.7782,5.7066,5.5983,7.3194,7.3037,7.2374,7.1943,7.1787,7.0966,7.0574,7.0496,6.9753,6.9364,6.917,6.9176,6.9139,6.9179,6.9098,6.9087,6.9074,6.9165,6.9063,6.9005,6.9081,6.9044,6.8972,6.9079,6.9135,6.9105,6.909,6.9019,6.9021,6.9062,6.8747,6.8,6.7256,6.6904,6.6785,6.6732,6.6644,6.6565,6.6599,6.6246,6.5623,6.638,6.6753,6.6713,6.6615,6.6566,6.6406,6.6464,6.688,6.7657,6.7673,6.8085,6.893,6.9036,6.9034,6.9179,6.9768,7.0438,7.1135,7.1276,7.117,7.1203,7.1154,7.1206,7.1164,7.1081,7.1107,7.1056,7.103,7.0943,7.0959,7.0252,6.9799,6.9735,6.9183,6.8574,6.8635,6.8423,6.8366,6.8302,6.8116,6.8142,6.793,6.743,6.6769,6.6269,6.6102,6.6058,6.6019,6.5827,6.5634,6.5307,6.4409,6.3524,6.3441,6.3281,6.3198,6.316,6.3083,6.2866,6.2592,6.2177,6.1754,6.1555,6.0848,6.0365,6.0096,5.977,5.9581,5.9345,5.9054,5.8628,5.7763,5.7363,5.6597,7.4051,7.4051,7.3699,7.3228,7.2676,7.1849,7.1452,7.1367,7.1043,7.0883,7.0886,7.0862,7.0335,6.9412,6.9414,6.9409,6.9397,6.9415,6.9401,6.9356,6.9344,6.9349,6.937,6.938,6.9391,6.9402,6.9412,6.9414,6.9414,6.941,6.921,6.8894,6.8539,6.8378,6.837,6.8353,6.8293,6.8271,6.8268,6.8011,6.7623,6.7048,6.6736,6.6722,6.7138,6.7434,6.7453,6.7852,6.83,6.8611,6.8578,6.8935,6.9764,6.9772,6.9972,7.049,7.0738,7.1078,7.1411,7.142,7.1389,7.1329,7.1297,7.1269,7.1247,7.1207,7.119,7.1213,7.123,7.1219,7.1121,7.0795,7.061,7.0516,7.0195,6.9977,6.9913,6.9476,6.9194,6.9129,6.8699,6.843,6.8353,6.8084,6.7744,6.7359,6.6974,6.6628,6.6596,6.6205,6.5897,6.582,6.5243,6.4936,6.4743,6.4359,6.4122,6.3962,6.3591,6.3245,6.3214,6.2883,6.2459,6.2388,6.1492,6.0819,6.064,5.9871,5.9383,5.914,5.8972,5.8618,5.8169,5.8032,5.7439,7.4933,7.4894,7.4699,7.4225,7.3552,7.2677,7.2273,7.218,7.2002,7.1874,7.1876,7.1899,7.1235,7.0179,7.0114,7.0117,7.0113,7.0103,7.0096,7.0096,7.0127,7.0132,7.0106,7.0108,7.0112,7.0117,7.0156,7.0154,7.0071,6.9829,6.9784,6.9742,6.9497,6.9368,6.9389,6.9371,6.9339,6.925,6.9251,6.9163,6.8882,6.7895,6.7295,6.7327,6.7862,6.8193,6.8207,6.875,6.9158,6.9391,6.9363,6.9714,7.0493,7.0751,7.1262,7.2031,7.2112,7.2091,7.2086,7.2037,7.1965,7.1998,7.1908,7.1912,7.1822,7.1632,7.1441,7.1428,7.1278,7.1124,7.1087,7.1075,7.1043,7.0985,7.0972,7.0952,7.0828,7.036,7.0014,6.9975,6.9552,6.8968,6.8814,6.8737,6.866,6.8314,6.7821,6.7475,6.7321,6.6782,6.6244,6.6211,6.6051,6.5865,6.5859,6.5397,6.5013,6.4821,6.436,6.4059,6.3789,6.3573,6.3207,6.3017,6.2081,6.1448,6.1143,6.0379,5.9393,5.903,5.8791,5.8635,5.8439,5.8449,5.8108,7.5721,7.5642,7.4864,7.4513,7.4353,7.3432,7.3069,7.2986,7.2183,7.1822,7.1864,7.1926,7.1876,7.1749,7.1805,7.1868,7.1834,7.1758,7.1718,7.1718,7.1757,7.1836,7.1914,7.1874,7.1834,7.1638,7.1632,7.1703,7.1694,7.1019,7.0653,7.06,6.988,6.9389,6.944,6.9497,6.9295,6.9309,6.9246,6.9099,6.9054,6.8898,6.8851,6.8905,6.8924,6.8985,6.8972,6.8928,6.9332,7.0151,7.0224,7.0607,7.1412,7.2143,7.2865,7.359,7.3695,7.3728,7.3678,7.3593,7.3564,7.3597,7.3426,7.3498,7.3305,7.2713,7.2335,7.2251,7.1634,7.1204,7.1088,7.1043,7.0979,7.0919,7.0905,7.0905,7.0898,7.0821,7.0821,7.0783,7.0629,7.0244,6.9706,6.9629,6.9276,6.8776,6.843,6.8353,6.8237,6.759,6.7128,6.6904,6.6481,6.5904,6.5897,6.5731,6.5705,6.5551,6.5288,6.5394,6.513,6.4732,6.423,6.3644,6.2855,6.2205,6.1733,6.0929,5.9881,5.9251,5.8751,5.854,5.8454,5.8312,5.8065,7.6523,7.6445,7.5588,7.5187,7.509,7.426,7.3895,7.3798,7.2929,7.2575,7.2575,7.2585,7.2609,7.2638,7.322,7.2892,7.2007,7.1939,7.1941,7.1937,7.1941,7.1941,7.1935,7.1931,7.193,7.1928,7.1917,7.1943,7.1925,7.1604,7.1476,7.1417,7.1133,7.0905,7.0847,7.0823,7.077,7.0634,7.0598,7.0546,7.0506,7.052,7.0515,7.0443,7.0026,6.9773,6.9777,7.023,7.0898,7.175,7.1758,7.2125,7.2932,7.3303,7.3541,7.3793,7.3825,7.3808,7.3765,7.3741,7.3728,7.3722,7.3665,7.3703,7.3581,7.331,7.3115,7.2979,7.2818,7.2395,7.1747,7.1285,7.0925,7.0905,7.0898,7.0898,7.0898,7.0898,7.0898,7.0898,7.0898,7.0744,7.0514,7.0475,7.036,7.0052,6.9552,6.9276,6.9122,6.8468,6.7936,6.7821,6.7244,6.6654,6.6608,6.6102,6.5813,6.5773,6.5649,6.5475,6.5244,6.507,6.4636,6.4246,6.355,6.2852,6.23,6.1216,6.0209,5.9589,5.9059,5.8617,5.8334,5.8223,5.8145,7.6891,7.6813,7.6265,7.6018,7.5917,7.5033,7.4661,7.4557,7.3714,7.3313,7.3313,7.3364,7.3355,7.3466,7.4024,7.3736,7.27,7.2697,7.2706,7.2695,7.2706,7.2706,7.2695,7.2732,7.2734,7.273,7.2719,7.2704,7.2647,7.2406,7.2272,7.2248,7.2003,7.1754,7.1622,7.1599,7.1538,7.146,7.1664,7.1774,7.1772,7.201,7.2159,7.206,7.1632,7.1252,7.1019,7.1758,7.2468,7.3004,7.3049,7.3408,7.4125,7.4256,7.4343,7.4538,7.457,7.4552,7.4501,7.4475,7.4462,7.45,7.444,7.4361,7.4354,7.4081,7.3899,7.3853,7.3584,7.3199,7.2706,7.2091,7.1514,7.1052,7.0898,7.0898,7.0898,7.0898,7.0898,7.0898,7.0898,7.0898,7.0898,7.0898,7.086,7.0898,7.0398,7.009,6.9975,6.9398,6.8814,6.8737,6.8052,6.7596,6.7312,6.6817,6.6001,6.5807,6.5628,6.5481,6.5352,6.5202,6.4989,6.4666,6.4172,6.347,6.2599,6.1486,6.0682,6.0033,5.9394,5.8866,5.8529,5.8156,5.8099,7.689,7.6847,7.6894,7.6805,7.6634,7.5793,7.5409,7.5275,7.4421,7.4044,7.4058,7.4072,7.4166,7.4205,7.4393,7.4262,7.4257,7.434,7.426,7.4146,7.4188,7.4188,7.4146,7.4107,7.4107,7.4107,7.4263,7.4263,7.4098,7.3412,7.3033,7.2882,7.2263,7.1908,7.1489,7.1635,7.1492,7.1595,7.2173,7.2485,7.2507,7.3186,7.357,7.3653,7.3667,7.3353,7.2651,7.3347,7.3734,7.3883,7.3916,7.4241,7.4871,7.497,7.5272,7.5851,7.6076,7.6115,7.6063,7.5932,7.5827,7.5814,7.5911,7.5721,7.5568,7.513,7.47,7.463,7.4161,7.3584,7.3546,7.343,7.2783,7.1283,7.1245,7.1245,7.1129,7.1014,7.0975,7.1091,7.1091,7.0937,7.0937,7.0937,7.0898,7.0898,7.0821,7.0744,7.0667,7.009,6.9744,6.9545,6.8955,6.8376,6.7976,6.7491,6.6576,6.5853,6.5588,6.5375,6.5226,6.5069,6.4871,6.4577,6.4271,6.3624,6.3078,6.2063,6.1311,6.0633,5.9896,5.9181,5.8734,5.8371,5.8091,7.671,7.671,7.671,7.671,7.6671,7.6366,7.6235,7.6119,7.526,7.4901,7.4906,7.4916,7.4936,7.5105,7.5551,7.5828,7.5871,7.584,7.5305,7.4378,7.4231,7.4235,7.4231,7.4231,7.4196,7.4192,7.4192,7.4192,7.4192,7.3904,7.3751,7.3643,7.3422,7.316,7.2853,7.2913,7.2841,7.2752,7.3035,7.3163,7.3189,7.353,7.3741,7.3867,7.4355,7.4533,7.4342,7.4077,7.4187,7.469,7.4688,7.4987,7.5659,7.5819,7.5902,7.6054,7.6125,7.6097,7.6048,7.6034,7.602,7.6012,7.6029,7.6015,7.5976,7.5745,7.5553,7.5553,7.5361,7.5014,7.4469,7.4315,7.3815,7.2822,7.2699,7.2584,7.2507,7.2629,7.2706,7.2629,7.2168,7.1822,7.1668,7.1398,7.0975,7.0937,7.0937,7.0898,7.0821,7.0667,7.0552,7.0437,6.9742,6.9149,6.8855,6.8347,6.7446,6.6506,6.5993,6.5364,6.5141,6.4906,6.4699,6.4405,6.4162,6.3819,6.3267,6.2691,6.1926,6.1183,6.043,5.9725,5.9032,5.8619,5.8338,7.7077,7.7038,7.6728,7.6612,7.6612,7.6553,7.6581,7.6498,7.5973,7.5697,7.5691,7.5697,7.5707,7.5834,7.6348,7.6542,7.6576,7.6521,7.5955,7.5066,7.4955,7.4955,7.4979,7.4975,7.4936,7.4936,7.4936,7.4975,7.4936,7.4601,7.4395,7.4315,7.401,7.3706,7.3502,7.3482,7.342,7.3366,7.3695,7.3885,7.4004,7.4336,7.4578,7.4745,7.5207,7.5481,7.5541,7.5082,7.5032,7.5461,7.5465,7.5665,7.612,7.6131,7.6097,7.6062,7.6048,7.6027,7.6022,7.5984,7.5976,7.5976,7.5976,7.5976,7.5976,7.5976,7.5976,7.5976,7.5938,7.5784,7.5284,7.5207,7.4938,7.4514,7.3776,7.3546,7.3507,7.3507,7.3469,7.3276,7.2976,7.2745,7.2514,7.1944,7.1444,7.1367,7.1091,7.0898,7.0898,7.0898,7.0898,7.0839,7.0413,7.0004,6.9802,6.913,6.8288,6.7398,6.6551,6.572,6.5127,6.4764,6.4491,6.4155,6.3888,6.3758,6.3297,6.3023,6.2452,6.1671,6.0925,6.0244,5.9599,5.8963,5.8584,7.7914,7.7765,7.7028,7.6674,7.6591,7.6505,7.6483,7.6472,7.6393,7.6338,7.6332,7.6266,7.636,7.6433,7.6483,7.6477,7.6466,7.6426,7.6323,7.6151,7.616,7.615,7.6032,7.6026,7.6026,7.6109,7.6148,7.6225,7.6026,7.5392,7.5002,7.4861,7.4216,7.363,7.3645,7.3461,7.3576,7.3667,7.4212,7.4574,7.4704,7.544,7.594,7.6038,7.6102,7.621,7.6237,7.6148,7.6195,7.625,7.6063,7.5995,7.6076,7.6012,7.6029,7.6029,7.5976,7.5984,7.5976,7.5976,7.5976,7.5976,7.5976,7.5976,7.5976,7.5976,7.5976,7.5976,7.5976,7.5976,7.5899,7.5899,7.5861,7.5784,7.47,7.3969,7.3699,7.3776,7.393,7.3815,7.3661,7.3546,7.3507,7.2706,7.2175,7.1944,7.1398,7.0975,7.0898,7.0898,7.0898,7.0787,7.063,7.052,7.0248,6.9904,6.9051,6.8201,6.7326,6.6418,6.5262,6.469,6.4284,6.3974,6.3736,6.359,6.3391,6.315,6.2849,6.2238,6.1529,6.081,6.0162,5.9612,5.8939,7.834,7.7727,7.7494,7.703,7.6488,7.6432,7.6426,7.6421,7.6409,7.6403,7.6403,7.6403,7.6409,7.6421,7.6426,7.6397,7.6362,7.6338,7.6225,7.6129,7.6097,7.6079,7.6059,7.602,7.6059,7.602,7.602,7.6052,7.602,7.5716,7.556,7.548,7.5142,7.494,7.4809,7.4669,7.4766,7.4795,7.5009,7.528,7.5418,7.5695,7.6029,7.6179,7.6218,7.6288,7.6374,7.6307,7.6244,7.6218,7.6145,7.6108,7.6097,7.6068,7.6092,7.613,7.6092,7.6015,7.6015,7.6015,7.6015,7.5976,7.5976,7.5976,7.5976,7.5976,7.5976,7.5976,7.5976,7.5976,7.5976,7.5976,7.5976,7.5938,7.5438,7.5207,7.5245,7.5322,7.5322,7.5277,7.4738,7.443,7.4123,7.3283,7.2367,7.2175,7.1591,7.0898,7.0937,7.0898,7.0898,7.0857,7.0769,7.0736,7.057,7.0332,6.9767,6.8934,6.8113,6.7306,6.5946,6.4672,6.4239,6.3823,6.3702,6.3568,6.3488,6.3322,6.2983,6.262,6.207,6.1312,6.086,6.0309,5.9526,7.9221,7.868,7.7983,7.7409,7.69,7.6558,7.6403,7.6403,7.6403,7.6403,7.6403,7.6403,7.6403,7.6403,7.6403,7.6368,7.6301,7.6244,7.6131,7.5984,7.5849,7.5802,7.5764,7.5718,7.5694,7.5694,7.5694,7.5694,7.5686,7.5662,7.5619,7.5498,7.5523,7.5409,7.5207,7.5255,7.5274,7.529,7.5392,7.5514,7.5684,7.5779,7.5954,7.6138,7.6198,7.625,7.6332,7.6604,7.6616,7.6288,7.6104,7.6181,7.6522,7.6553,7.6714,7.6976,7.7061,7.6938,7.6592,7.6515,7.6361,7.6092,7.5976,7.5976,7.5976,7.5976,7.5976,7.5976,7.5976,7.5976,7.5976,7.5976,7.5976,7.5976,7.5976,7.5976,7.5976,7.5938,7.5976,7.5861,7.5592,7.5245,7.52,7.4014,7.3245,7.2706,7.2052,7.1437,7.1014,7.0937,7.0878,7.0836,7.0772,7.073,7.0647,7.0423,7.0192,6.9432,6.8423,6.7731,6.638,6.488,6.4166,6.3784,6.3647,6.3568,6.3488,6.3396,6.3121,6.2756,6.2328,6.1949,6.141,6.097,6.0187,8.0298,8.0066,7.8486,7.779,7.7564,7.679,7.6403,7.6403,7.6403,7.6403,7.6403,7.6403,7.6403,7.6403,7.6386,7.6356,7.6276,7.6152,7.602,7.5833,7.5625,7.5471,7.5476,7.545,7.5433,7.5424,7.5368,7.5377,7.5415,7.5336,7.5263,7.5264,7.5228,7.5171,7.5085,7.5095,7.5218,7.5274,7.5292,7.5424,7.5644,7.5716,7.5871,7.6159,7.6508,7.6527,7.6746,7.7125,7.7311,7.6487,7.6318,7.676,7.7369,7.7407,7.7715,7.8176,7.8215,7.7984,7.7522,7.7292,7.6938,7.6361,7.6092,7.5976,7.5976,7.5976,7.5976,7.5976,7.5976,7.5976,7.5976,7.5976,7.5976,7.5976,7.5976,7.5976,7.5976,7.5976,7.5976,7.5976,7.5976,7.5976,7.5784,7.5245,7.4353,7.3168,7.2437,7.1668,7.1161,7.0909,7.085,7.0808,7.0729,7.067,7.0593,7.0475,7.0264,6.9836,6.8658,6.7707,6.6518,6.5249,6.4275,6.3732,6.365,6.3557,6.35,6.3373,6.3171,6.3014,6.2684,6.2304,6.1924,6.152,6.0896,8.084,8.0105,7.9144,7.8332,7.7603,7.679,7.6403,7.6403,7.6403,7.6403,7.6403,7.6403,7.6403,7.6403,7.635,7.6288,7.6212,7.6062,7.5872,7.5557,7.5274,7.5142,7.5171,7.519,7.5227,7.5227,7.5227,7.5227,7.5209,7.5171,7.5152,7.5005,7.4937,7.4915,7.4816,7.4846,7.4947,7.5181,7.5237,7.5401,7.5636,7.57,7.5887,7.6288,7.6951,7.7292,7.7447,7.8045,7.8286,7.8146,7.8036,7.8099,7.8215,7.8253,7.8407,7.86,7.8638,7.8484,7.8215,7.7753,7.7253,7.6976,7.6399,7.5976,7.5976,7.5976,7.5976,7.5976,7.5976,7.5976,7.5976,7.5976,7.5976,7.5976,7.5976,7.5976,7.5976,7.5976,7.5976,7.5976,7.5976,7.5976,7.5938,7.5322,7.4476,7.3623,7.2776,7.1898,7.1339,7.0882,7.0794,7.075,7.0715,7.0616,7.0546,7.0411,7.0234,6.9983,6.9015,6.7975,6.6816,6.587,6.5013,6.4216,6.3639,6.3557,6.3511,6.3373,6.3183,6.3075,6.2966,6.2659,6.234,6.1973,6.1741,8.084,8.0685,7.9531,7.8718,7.8138,7.6984,7.6403,7.6403,7.6403,7.6403,7.6403,7.6403,7.6403,7.6397,7.6332,7.6263,7.6159,7.5962,7.5682,7.5374,7.5152,7.5084,7.4937,7.4937,7.4947,7.4947,7.4887,7.4877,7.4867,7.4877,7.4805,7.4739,7.4691,7.467,7.4638,7.4659,7.4846,7.5056,7.519,7.5356,7.5636,7.57,7.6163,7.6705,7.7408,7.7786,7.8149,7.8881,7.9184,7.9251,7.95,7.9477,7.9169,7.9131,7.9292,7.9669,7.9708,7.9438,7.9092,7.8707,7.8169,7.7369,7.6823,7.6438,7.613,7.5976,7.5976,7.5976,7.5976,7.5976,7.5976,7.5976,7.5976,7.5976,7.5976,7.5976,7.5976,7.5976,7.5976,7.5976,7.5976,7.5976,7.5784,7.5399,7.4584,7.3731,7.3296,7.2412,7.1199,7.0779,7.0752,7.0693,7.0632,7.0561,7.0498,7.0336,7.0156,6.9882,6.9345,6.8409,6.7419,6.6601,6.582,6.4933,6.3925,6.3628,6.3545,6.3396,6.323,6.3135,6.3026,6.2904,6.2744,6.2401,6.2328,8.0646,8.1188,7.9647,7.9028,7.8718,7.7138,7.6403,7.6403,7.6403,7.6403,7.6403,7.6403,7.6403,7.6386,7.6313,7.6238,7.6069,7.5826,7.554,7.5265,7.5181,7.5055,7.4925,7.4833,7.4743,7.4691,7.4617,7.4563,7.4552,7.4509,7.4574,7.4498,7.4487,7.4498,7.4519,7.4617,7.4785,7.5007,7.5123,7.5365,7.5636,7.57,7.6294,7.722,7.7839,7.8341,7.894,7.9657,8.014,8.0069,8.0708,8.0631,8.0246,8.0054,8.0285,8.1016,8.0862,8.0554,8.0054,7.9708,7.9015,7.7599,7.7292,7.6823,7.6245,7.5976,7.5976,7.5976,7.5976,7.5976,7.5976,7.5976,7.5976,7.5976,7.5976,7.5976,7.5976,7.5976,7.5976,7.5976,7.5976,7.5976,7.5976,7.5745,7.4815,7.3909,7.3505,7.2807,7.1518,7.0752,7.0678,7.0624,7.0569,7.0538,7.0435,7.0302,7.0111,6.9853,6.9486,6.8854,6.8002,6.7273,6.639,6.5134,6.4333,6.3999,6.3679,6.3454,6.3312,6.3206,6.3075,6.2941,6.2855,6.2805,6.2756,8.0298,8.0343,7.9376,7.9028,7.8718,7.7138,7.6403,7.6403,7.6403,7.6403,7.6403,7.6403,7.6403,7.6374,7.6269,7.6083,7.5848,7.5699,7.5489,7.5247,7.5123,7.5007,7.4935,7.4812,7.4712,7.467,7.4574,7.4509,7.4498,7.4509,7.4432,7.4425,7.4414,7.4414,7.4436,7.4498,7.4722,7.4977,7.5123,7.5383,7.5611,7.5794,7.6378,7.7549,7.827,7.9024,7.9782,8.0544,8.1027,8.0923,8.1016,8.0977,8.0823,8.0785,8.09,8.1016,8.1093,8.0939,8.0708,8.0169,7.94,7.8446,7.7753,7.6938,7.6284,7.5976,7.5976,7.5976,7.5976,7.5976,7.5976,7.5976,7.5976,7.5976,7.5976,7.5976,7.5976,7.5976,7.5976,7.5976,7.5976,7.5969,7.5993,7.5824,7.5071,7.4158,7.3484,7.2632,7.1413,7.0823,7.0601,7.0554,7.0475,7.0451,7.0419,7.0268,7.0132,6.9901,6.9582,6.9289,6.8507,6.7881,6.6949,6.5803,6.4928,6.4482,6.4102,6.3722,6.3384,6.3292,6.3124,6.2966,6.288,6.2793,6.2793,8.0111,8.0724,7.9531,7.9028,7.868,7.7138,7.6403,7.6403,7.6403,7.6403,7.6403,7.6403,7.6403,7.6368,7.6257,7.6048,7.5841,7.5707,7.554,7.5376,7.5227,7.5123,7.5035,7.4895,7.4823,7.476,7.4606,7.4487,7.4458,7.4354,7.4358,7.4301,7.4289,7.4289,7.4335,7.4432,7.4632,7.4927,7.5152,7.5409,7.5692,7.5872,7.67,7.7935,7.8715,7.9527,8.0586,8.0976,8.1212,8.1131,8.1093,8.1093,8.1093,8.1093,8.1093,8.1093,8.1093,8.1093,8.1093,8.0592,7.9939,7.8677,7.8099,7.7292,7.6399,7.5976,7.5976,7.5976,7.5976,7.5976,7.5976,7.5976,7.5976,7.5976,7.5976,7.5976,7.5976,7.5976,7.5976,7.5976,7.5976,7.5993,7.594,7.5656,7.5173,7.4436,7.3615,7.2502,7.1344,7.0945,7.0683,7.0467,7.0443,7.0435,7.0386,7.0289,7.0149,6.992,6.9659,6.9369,6.9023,6.8361,6.7605,6.6635,6.5868,6.5336,6.4656,6.4288,6.3852,6.339,6.3221,6.3075,6.2892,6.2793,6.2793,8.0034,8.111,7.9608,7.9028,7.8718,7.7132,7.6403,7.6403,7.6403,7.6403,7.6403,7.6403,7.6403,7.6368,7.6257,7.6083,7.5918,7.5794,7.5658,7.5506,7.5409,7.532,7.5171,7.5046,7.4937,7.4857,7.475,7.4509,7.4447,7.4335,7.4255,7.4266,7.4243,7.4232,7.4289,7.4498,7.468,7.4879,7.5199,7.5497,7.5756,7.6125,7.7054,7.8624,7.8927,7.9694,8.1035,8.1246,8.1205,8.1139,8.1093,8.1093,8.1093,8.1093,8.1093,8.1093,8.1093,8.1093,8.1093,8.1054,8.0362,7.9054,7.8638,7.7676,7.6707,7.6207,7.5976,7.5976,7.5976,7.5976,7.5976,7.5976,7.5976,7.5976,7.5976,7.5976,7.5976,7.5976,7.5976,7.5976,7.5976,7.5978,7.5925,7.578,7.538,7.4711,7.3881,7.2922,7.184,7.1256,7.0902,7.0542,7.0419,7.0419,7.0361,7.0289,7.0167,6.9984,6.9719,6.9432,6.9186,6.884,6.8085,6.7402,6.7168,6.6599,6.5745,6.4879,6.4355,6.3879,6.3464,6.3148,6.2953,6.283,6.2793,8.0182,8.0298,7.9376,7.9028,7.8757,7.7132,7.6403,7.6403,7.6403,7.6403,7.6403,7.6403,7.6403,7.6368,7.6263,7.6118,7.5984,7.5918,7.5771,7.5633,7.5583,7.548,7.5329,7.5292,7.5161,7.5046,7.4897,7.4691,7.4552,7.4458,7.4369,7.4369,7.4369,7.4369,7.4425,7.4665,7.4915,7.5036,7.531,7.5633,7.5917,7.6118,7.7183,7.8413,7.905,7.97,8.1049,8.133,8.1251,8.1131,8.1093,8.1093,8.1093,8.1093,8.1093,8.1093,8.1093,8.1093,8.1093,8.1093,8.0708,7.9554,7.8946,7.8099,7.7053,7.6284,7.5976,7.5976,7.5976,7.5976,7.5976,7.5976,7.5976,7.5976,7.5976,7.5976,7.5976,7.5976,7.5976,7.5976,7.5976,7.5955,7.5902,7.5764,7.5572,7.4855,7.4115,7.3185,7.2349,7.1743,7.0992,7.0563,7.0411,7.0411,7.0361,7.0289,7.0185,7.003,6.9748,6.9484,6.9203,6.8949,6.8768,6.823,6.8022,6.7565,6.6673,6.5796,6.4995,6.4345,6.3857,6.3405,6.3014,6.2917,6.2805,8.0847,8.084,7.9531,7.9028,7.8796,7.7138,7.6403,7.6403,7.6403,7.6403,7.6403,7.6403,7.6386,7.6338,7.6276,7.6205,7.6104,7.6065,7.597,7.5818,7.5763,7.5644,7.5536,7.5497,7.5401,7.5283,7.5171,7.5065,7.4857,7.4606,7.4443,7.4454,7.4491,7.4487,7.4574,7.4792,7.5015,7.5237,7.5566,7.5856,7.6034,7.6294,7.708,7.8773,7.8952,7.9887,8.0942,8.1298,8.128,8.1169,8.1124,8.1093,8.1093,8.1093,8.1093,8.1093,8.1093,8.1093,8.1093,8.1093,8.0631,7.9862,7.8938,7.7907,7.6899,7.6284,7.5976,7.5976,7.5976,7.5976,7.5976,7.5976,7.5976,7.5976,7.5976,7.5976,7.5976,7.5976,7.5976,7.5976,7.5969,7.5948,7.5887,7.5764,7.5624,7.5225,7.4622,7.3909,7.3004,7.227,7.1412,7.0487,7.0411,7.0411,7.0353,7.0307,7.022,7.0086,6.9805,6.9515,6.9225,6.8983,6.8791,6.8651,6.8332,6.7862,6.7342,6.6724,6.5958,6.5098,6.4202,6.3786,6.3333,6.2892,6.2805,8.1367,8.1317,7.9661,7.8971,7.8834,7.7138,7.6403,7.6403,7.6403,7.6403,7.6403,7.6397,7.6374,7.6332,7.6307,7.6263,7.6212,7.6152,7.609,7.6027,7.5969,7.5864,7.5787,7.5747,7.5641,7.554,7.5392,7.5274,7.5114,7.4907,7.4701,7.46,7.468,7.4685,7.4836,7.5007,7.5218,7.5502,7.5833,7.6034,7.6159,7.6244,7.7305,7.8386,7.9107,7.9732,8.113,8.1326,8.1287,8.1214,8.1131,8.1093,8.1093,8.1093,8.1093,8.1093,8.1093,8.1093,8.1093,8.1054,8.0746,8.0054,7.8977,7.783,7.6361,7.5976,7.5976,7.5976,7.5976,7.5976,7.5976,7.5976,7.5976,7.5976,7.5976,7.5976,7.5976,7.5976,7.5976,7.5976,7.5954,7.5948,7.5841,7.5771,7.5628,7.5447,7.5004,7.4507,7.3628,7.2711,7.1833,7.0877,7.0449,7.0449,7.0369,7.0294,7.0246,7.0086,6.9805,6.9536,6.9236,6.8994,6.8791,6.8687,6.8543,6.8345,6.7899,6.7441,6.6947,6.6072,6.5149,6.4229,6.3653,6.3162,6.2805,8.1333,8.1253,7.9591,7.8934,7.8879,7.7138,7.6403,7.6421,7.6409,7.6415,7.6409,7.6397,7.6397,7.638,7.6338,7.6307,7.6295,7.6218,7.6192,7.6179,7.6165,7.6111,7.6041,7.5954,7.5864,7.5715,7.5599,7.5462,7.532,7.5237,7.5075,7.4997,7.4949,7.5018,7.5161,7.5345,7.5591,7.5841,7.6048,7.6159,7.6244,7.6455,7.7221,7.8578,7.9093,7.9726,8.1239,8.1333,8.127,8.1229,8.1154,8.11,8.1093,8.1093,8.1093,8.1093,8.1093,8.1093,8.1093,8.1093,8.1016,8.0516,7.9515,7.7977,7.6476,7.6092,7.6015,7.6015,7.5976,7.5976,7.5976,7.5976,7.5976,7.5976,7.5976,7.5976,7.5976,7.5976,7.5976,7.5976,7.5954,7.591,7.5841,7.5779,7.5682,7.5502,7.5395,7.4889,7.3896,7.2979,7.2185,7.1374,7.0724,7.0487,7.0394,7.0311,7.0211,7.005,6.9824,6.9546,6.9225,6.9031,6.8828,6.8663,6.8531,6.8531,6.8456,6.7924,6.7392,6.6874,6.6024,6.4795,6.3775,6.3149,6.2891,8.122,8.1172,7.948,7.8876,7.8894,7.719,7.6477,7.6505,7.651,7.6488,7.6449,7.6421,7.6403,7.6392,7.6386,7.6368,7.6362,7.6344,7.6301,7.6276,7.6257,7.6218,7.6165,7.6111,7.6034,7.591,7.581,7.5715,7.5553,7.5485,7.5527,7.5459,7.5318,7.5345,7.5493,7.574,7.5969,7.6055,7.6198,7.6307,7.6288,7.6427,7.7225,7.879,7.9028,7.9867,8.1143,8.1355,8.1319,8.1249,8.1207,8.1154,8.11,8.1093,8.1093,8.1093,8.1093,8.1093,8.1093,8.1054,8.09,8.0285,7.9554,7.8592,7.6976,7.6784,7.6438,7.6245,7.6015,7.5976,7.5976,7.5976,7.5976,7.5976,7.5976,7.5976,7.5976,7.5976,7.5976,7.5976,7.5962,7.5939,7.5864,7.5779,7.5682,7.5574,7.5476,7.5204,7.4278,7.3399,7.2635,7.1803,7.1145,7.0525,7.0441,7.0315,7.0167,7.0004,6.9824,6.9498,6.9203,6.9031,6.8852,6.8663,6.8531,6.8531,6.8419,6.8233,6.785,6.7343,6.6259,6.4918,6.4033,6.3174,6.2977,8.1207,8.1091,7.946,7.8844,7.8762,7.7224,7.656,7.6568,7.6607,7.6542,7.6521,7.6444,7.6415,7.6403,7.6397,7.6397,7.6397,7.6386,7.6368,7.635,7.6326,7.6301,7.6269,7.6225,7.6172,7.6083,7.6012,7.5932,7.581,7.5787,7.5818,7.5803,7.5724,7.5748,7.5856,7.6138,7.6263,7.6276,7.6332,7.6409,7.6374,7.6457,7.7248,7.868,7.8989,7.9879,8.1008,8.142,8.1374,8.1305,8.1234,8.1192,8.1139,8.1108,8.1093,8.1093,8.1054,8.1054,8.1093,8.1016,8.0708,8.0046,7.9854,7.8977,7.8092,7.7484,7.6945,7.6553,7.6245,7.5976,7.5976,7.5976,7.5976,7.5976,7.5976,7.5976,7.5976,7.5976,7.5976,7.5976,7.5962,7.5954,7.5894,7.581,7.5666,7.5574,7.5506,7.5356,7.4936,7.4049,7.317,7.2329,7.1535,7.0954,7.0441,7.0298,7.0158,6.9975,6.9767,6.9447,6.9171,6.9009,6.8828,6.8627,6.8531,6.8531,6.8456,6.8345,6.8085,6.7825,6.6506,6.5041,6.3714,6.294,6.2891,8.122,8.1098,7.9513,7.8887,7.8734,7.7185,7.657,7.6594,7.6627,7.6591,7.6538,7.6477,7.6449,7.6409,7.6403,7.6403,7.6403,7.6403,7.6392,7.6386,7.638,7.6386,7.6368,7.6326,7.6276,7.6263,7.6179,7.6097,7.6076,7.5981,7.6031,7.6147,7.6147,7.614,7.6212,7.6386,7.6472,7.6477,7.6488,7.6477,7.6455,7.6421,7.7332,7.8332,7.8757,7.9569,8.0595,8.0944,8.0866,8.0858,8.0807,8.0774,8.073,8.0754,8.0762,8.0785,8.0823,8.09,8.1016,8.1054,8.0708,8.0169,8.0092,7.9515,7.86,7.7907,7.733,7.6976,7.6438,7.6053,7.5976,7.5976,7.5976,7.5976,7.5976,7.5976,7.5976,7.5976,7.5976,7.5976,7.5976,7.5969,7.5917,7.5833,7.5674,7.5566,7.5535,7.5395,7.5204,7.4507,7.359,7.2711,7.1841,7.1107,7.0577,7.0319,7.014,6.9966,6.9748,6.9426,6.9149,6.8975,6.8768,6.8554,6.8531,6.8531,6.8493,6.8456,6.8111,6.7642,6.6531,6.5177,6.3775,6.2793,6.2793,8.0442,8.0356,7.8722,7.8138,7.8087,7.7049,7.6648,7.6708,7.6685,7.6628,7.6547,7.6543,7.6455,7.6415,7.6403,7.6403,7.6403,7.6403,7.6403,7.6403,7.6403,7.6397,7.6392,7.6374,7.6344,7.6301,7.6244,7.6238,7.6231,7.6173,7.6236,7.6349,7.6498,7.6519,7.6482,7.654,7.6638,7.656,7.6568,7.6565,7.6483,7.6515,7.6945,7.8144,7.8216,7.8834,7.9918,8.0035,8.0016,7.9978,7.9891,7.9811,7.9702,7.9637,7.953,7.9461,7.9446,7.9669,8.0208,8.0631,8.0977,8.0708,8.0516,8.0169,7.9438,7.8592,7.7977,7.7284,7.663,7.6207,7.5976,7.5976,7.5976,7.5976,7.5976,7.5976,7.5976,7.5976,7.5976,7.5976,7.5976,7.5985,7.5902,7.5849,7.5707,7.5599,7.554,7.5527,7.5356,7.466,7.3819,7.2979,7.2147,7.1336,7.0713,7.0395,7.0093,6.991,6.9709,6.9432,6.9186,6.8964,6.8756,6.8554,6.8518,6.8531,6.8481,6.837,6.7926,6.7296,6.642,6.5409,6.4068,6.3209,6.2793,7.9655,7.9501,7.8219,7.7742,7.7726,7.6963,7.6646,7.6756,7.6752,7.6694,7.6647,7.6581,7.6488,7.6444,7.6409,7.6403,7.6403,7.6403,7.6403,7.6403,7.6403,7.6403,7.6403,7.6403,7.6392,7.6362,7.6368,7.6374,7.6409,7.6426,7.6498,7.6603,7.6758,7.6793,7.6725,7.6768,7.6747,7.6669,7.6662,7.6632,7.6531,7.6588,7.6846,7.7492,7.7867,7.8216,7.8796,7.8983,7.8932,7.8889,7.8851,7.8812,7.8686,7.8609,7.8573,7.8529,7.8915,7.9254,7.99,8.0669,8.0977,8.1016,8.1093,8.0823,8.0208,7.9477,7.8592,7.7823,7.6938,7.6399,7.613,7.6092,7.6053,7.6053,7.5976,7.5976,7.5976,7.5976,7.5976,7.5976,7.5969,7.597,7.5933,7.5833,7.5755,7.5666,7.5574,7.5561,7.5518,7.4898,7.4087,7.3132,7.2452,7.168,7.0934,7.0366,7.0102,6.99,6.9641,6.9432,6.9175,6.8903,6.8744,6.8566,6.853,6.8481,6.8445,6.8235,6.7963,6.7418,6.6675,6.559,6.4348,6.3759,6.3282,7.8851,7.8748,7.7998,7.7705,7.7682,7.6932,7.6648,7.6691,7.6773,7.6739,7.6686,7.6627,7.6565,7.6472,7.6426,7.6403,7.6403,7.6403,7.6403,7.6403,7.6403,7.6403,7.6403,7.6409,7.6432,7.6466,7.6483,7.6505,7.6573,7.6618,7.6713,7.6805,7.6917,7.6933,7.6923,7.6897,7.6855,7.6766,7.6687,7.6662,7.6599,7.6565,7.6859,7.7289,7.7504,7.7841,7.826,7.8525,7.8564,7.8617,7.8663,7.8709,7.8689,7.8595,7.8546,7.872,7.9168,7.9485,7.9892,8.0631,8.1016,8.1093,8.1093,8.1054,8.0785,8.0092,7.9285,7.8554,7.7784,7.6938,7.6361,7.6245,7.613,7.6092,7.6015,7.5976,7.5976,7.5976,7.5976,7.5976,7.5976,7.5993,7.5978,7.5925,7.5786,7.5707,7.5616,7.554,7.5535,7.5509,7.4554,7.3246,7.2597,7.2062,7.1307,7.0442,7.0129,6.9928,6.9709,6.9474,6.9171,6.8903,6.8756,6.8602,6.853,6.8481,6.8457,6.8346,6.8096,6.755,6.7029,6.625,6.5204,6.453,6.4016,7.8037,7.7959,7.7126,7.6831,7.6875,7.675,7.6721,7.6773,7.6789,7.6764,7.6637,7.6622,7.6521,7.6426,7.6409,7.6403,7.6365,7.6403,7.6403,7.6403,7.6403,7.6403,7.6415,7.6444,7.6466,7.6499,7.6537,7.6604,7.6703,7.6805,7.6883,7.6936,7.6991,7.7014,7.6975,7.6968,7.6912,7.6841,7.6762,7.6726,7.6667,7.6599,7.6803,7.6903,7.6964,7.7223,7.7316,7.7376,7.7338,7.7287,7.7198,7.7129,7.7029,7.7023,7.7067,7.7778,7.8413,7.9092,7.9785,8.0592,8.1093,8.1093,8.1093,8.1093,8.0862,8.04,7.9738,7.9131,7.8446,7.7561,7.6868,7.6592,7.6322,7.6092,7.6015,7.5976,7.5976,7.5976,7.5976,7.5976,7.5976,7.5976,7.6,7.594,7.5841,7.5739,7.5658,7.5566,7.5506,7.5527,7.4974,7.3628,7.2788,7.2291,7.1277,7.0345,7.0185,6.9994,6.9748,6.9505,6.9171,6.8926,6.8768,6.8663,6.8555,6.8531,6.8531,6.8334,6.8095,6.7993,6.7557,6.6838,6.6109,6.5448,6.4714,7.7171,7.7138,7.6635,7.6432,7.6499,7.6614,7.6685,7.6717,7.6747,7.6703,7.6647,7.6558,7.6344,7.5985,7.6183,7.6204,7.5856,7.6243,7.6403,7.6403,7.6403,7.6421,7.6444,7.6477,7.6554,7.6553,7.6618,7.6655,7.6758,7.691,7.698,7.7014,7.7047,7.7012,7.7014,7.7047,7.6988,7.6927,7.6851,7.6801,7.673,7.6667,7.6604,7.6542,7.6526,7.6499,7.6472,7.646,7.6438,7.6426,7.6421,7.6386,7.6486,7.6661,7.692,7.7687,7.865,7.9268,7.9907,8.0646,8.0985,8.1093,8.1093,8.1093,8.1016,8.0669,8.0208,7.9669,7.89,7.8138,7.7522,7.6945,7.6476,7.6053,7.6015,7.5976,7.5976,7.5976,7.5976,7.5976,7.5976,7.5976,7.5985,7.5925,7.5856,7.5739,7.5658,7.5566,7.5553,7.5518,7.4974,7.3934,7.317,7.2559,7.146,7.0485,7.022,7.0039,6.9815,6.9539,6.9203,6.8926,6.8768,6.8626,6.8543,6.8531,6.8531,6.8296,6.807,6.7993,6.7926,6.7376,6.6783,6.6292,6.5558,7.6403,7.6442,7.6397,7.6415,7.6472,7.6537,7.6563,7.6612,7.6662,7.6676,7.6657,7.6459,7.5902,7.552,7.5686,7.5624,7.5546,7.5856,7.6216,7.637,7.6421,7.6444,7.6488,7.6505,7.6617,7.6648,7.6712,7.6768,7.6837,7.693,7.7036,7.7071,7.7075,7.7077,7.7077,7.7077,7.7061,7.7031,7.6983,7.692,7.6805,7.6734,7.6694,7.6618,7.6594,7.6583,7.6568,7.6531,7.6527,7.6472,7.6449,7.6415,7.6805,7.7105,7.7428,7.8148,7.9145,7.9712,8.0183,8.08,8.0993,8.11,8.1093,8.1093,8.1016,8.0939,8.0554,8.0169,7.9438,7.86,7.7946,7.7176,7.6592,7.6169,7.6015,7.5976,7.5976,7.5976,7.5976,7.5976,7.5976,7.5969,7.5963,7.5902,7.5833,7.5731,7.5658,7.5566,7.5544,7.5509,7.4957,7.4184,7.3399,7.2635,7.1723,7.0854,7.0348,7.0076,6.9854,6.9579,6.9198,6.8971,6.8756,6.8626,6.8531,6.8531,6.8457,6.8284,6.8121,6.8044,6.7965,6.7781,6.737,6.6916,6.6366,7.6403,7.6397,7.6344,7.6338,7.6356,7.6421,7.6444,7.6455,7.6515,7.6498,7.6405,7.5841,7.5377,7.5105,7.4746,7.469,7.5154,7.5403,7.5846,7.6256,7.646,7.6499,7.6558,7.6594,7.6648,7.6703,7.6764,7.6847,7.6945,7.7019,7.7061,7.7075,7.7084,7.7092,7.7092,7.7092,7.7084,7.7067,7.7047,7.7041,7.6923,7.6851,7.684,7.6747,7.6721,7.6676,7.6648,7.6588,7.6531,7.6488,7.6477,7.6792,7.7365,7.7536,7.8271,7.9282,7.98,8.0277,8.069,8.0992,8.1108,8.1108,8.1093,8.1093,8.1093,8.1093,8.09,8.0516,7.99,7.9023,7.8215,7.7407,7.6669,7.6284,7.5976,7.5976,7.5976,7.5976,7.5976,7.5976,7.5976,7.5978,7.5933,7.5872,7.5771,7.5699,7.5641,7.5566,7.5489,7.5436,7.5104,7.4379,7.3505,7.2665,7.1875,7.1015,7.0425,7.0105,6.9882,6.9569,6.9209,6.8915,6.8626,6.8603,6.8531,6.8531,6.8457,6.8358,6.8246,6.8132,6.7991,6.782,6.7727,6.7333,6.6916,7.6386,7.635,7.6282,7.625,7.6263,7.6295,7.6313,7.6319,7.635,7.613,7.5806,7.5332,7.4956,7.4612,7.4071,7.4038,7.4618,7.4995,7.5714,7.6289,7.6521,7.6563,7.6614,7.6662,7.6708,7.676,7.6866,7.6948,7.7012,7.7057,7.7087,7.7087,7.7098,7.7101,7.7101,7.71,7.7097,7.7087,7.7078,7.7053,7.7046,7.6963,7.69,7.6858,7.6821,7.6746,7.6739,7.669,7.6633,7.6568,7.6531,7.6958,7.7531,7.8069,7.8863,7.9765,8.0408,8.0804,8.1087,8.1229,8.1177,8.1124,8.1054,8.1054,8.0439,8.0439,8.0785,8.0362,7.9438,7.8561,7.8061,7.7369,7.6592,7.6092,7.6015,7.5976,7.5976,7.5976,7.5976,7.5976,7.5993,7.594,7.5879,7.5747,7.5674,7.5574,7.5523,7.5436,7.5383,7.5338,7.5033,7.446,7.3563,7.3021,7.2512,7.1443,7.0348,7.0086,6.9863,6.9478,6.9127,6.8791,6.8531,6.8531,6.8531,6.8531,6.8445,6.8371,6.8271,6.8108,6.8004,6.7873,6.7794,6.7714,6.737,7.635,7.6282,7.6198,7.6165,7.6165,7.6152,7.6159,7.6172,7.6063,7.562,7.4964,7.4786,7.4319,7.3949,7.3612,7.3728,7.401,7.453,7.5415,7.6322,7.6547,7.6604,7.6657,7.6712,7.6773,7.6858,7.6948,7.7012,7.7063,7.7089,7.7098,7.7101,7.7101,7.7101,7.7101,7.7101,7.7098,7.7095,7.7089,7.708,7.7059,7.7038,7.6986,7.6945,7.692,7.6904,7.6858,7.6805,7.6717,7.6662,7.6607,7.7019,7.7698,7.8397,7.9248,8.008,8.086,8.1135,8.1291,8.1266,8.1192,8.1085,8.1023,8.0631,7.9939,7.9823,8.0169,7.9785,7.8869,7.8253,7.7792,7.7215,7.6438,7.6015,7.6015,7.5976,7.5976,7.5976,7.5969,7.5969,7.5955,7.5895,7.5793,7.5658,7.5566,7.5462,7.5356,7.5255,7.518,7.5142,7.4971,7.4353,7.3506,7.3101,7.2825,7.1573,7.0185,7.005,6.9805,6.9395,6.9054,6.8721,6.8543,6.8531,6.8531,6.8531,6.8506,6.842,6.8296,6.8146,6.8068,6.7952,6.782,6.7754,6.7714,7.6282,7.6205,7.6076,7.602,7.6051,7.5916,7.5954,7.5911,7.532,7.4995,7.4501,7.3407,7.2794,7.2731,7.2048,7.2375,7.3728,7.4182,7.5293,7.6359,7.6534,7.6633,7.6699,7.6752,7.6844,7.6933,7.7002,7.7006,7.7077,7.7094,7.7101,7.71,7.71,7.71,7.71,7.7098,7.7097,7.7094,7.7095,7.709,7.7085,7.7026,7.7004,7.6978,7.6999,7.6975,7.6978,7.69,7.6782,7.6678,7.6666,7.7025,7.7626,7.8415,7.9183,7.9873,8.0737,8.0937,8.094,8.0884,8.0728,8.0646,8.0439,7.9939,7.9361,7.8938,7.9015,7.8707,7.8023,7.7715,7.7215,7.6676,7.6015,7.6015,7.5976,7.5976,7.5976,7.6007,7.6,7.5963,7.591,7.5809,7.5649,7.5549,7.5445,7.5329,7.518,7.5075,7.4997,7.4957,7.4907,7.4178,7.3459,7.3032,7.263,7.1177,6.9994,6.992,6.9737,6.93,6.8975,6.8697,6.8542,6.8543,6.8531,6.8531,6.8506,6.8482,6.8371,6.8271,6.817,6.8055,6.7913,6.7807,6.7754]}]]